<?xml version="1.0" encoding="UTF-8" standalone="no" ?>
<gpx xmlns="http://www.topografix.com/GPX/1/1" xmlns:xsi="http://www.w3.org/2001/XMLSchema-instance" xsi:schemaLocation="http://www.topografix.com/GPX/1/1 http://www.topografix.com/GPX/1/1/gpx.xsd" version="1.1" creator="VisuGPX - https://www.visugpx.com">
  <metadata>
    <name>BANSKHARKA ==&gt; NANGI (NEPAL)</name>
    <desc><![CDATA[Trek entre DAULAGHIRI et ANNAPURNAS]]></desc>
  </metadata>
  <trk>
    <name><![CDATA[BANKHARKA NANGI]]></name>
    <trkseg>
      <trkpt lat="28.37817" lon="83.59425">
        <ele>1509.41</ele>
        <time>2013-10-27T02:37:47Z</time>
      </trkpt>
      <trkpt lat="28.37816" lon="83.59426">
        <ele>1508.93</ele>
        <time>2013-10-27T02:38:02Z</time>
      </trkpt>
      <trkpt lat="28.37814" lon="83.59425">
        <ele>1508.93</ele>
        <time>2013-10-27T02:38:23Z</time>
      </trkpt>
      <trkpt lat="28.37815" lon="83.59425">
        <ele>1509.41</ele>
        <time>2013-10-27T02:38:44Z</time>
      </trkpt>
      <trkpt lat="28.37814" lon="83.59422">
        <ele>1508.45</ele>
        <time>2013-10-27T02:38:59Z</time>
      </trkpt>
      <trkpt lat="28.37814" lon="83.59423">
        <ele>1508.45</ele>
        <time>2013-10-27T02:39:00Z</time>
      </trkpt>
      <trkpt lat="28.37814" lon="83.59431">
        <ele>1510.37</ele>
        <time>2013-10-27T02:39:15Z</time>
      </trkpt>
      <trkpt lat="28.37813" lon="83.59431">
        <ele>1510.37</ele>
        <time>2013-10-27T02:39:17Z</time>
      </trkpt>
      <trkpt lat="28.37813" lon="83.59434">
        <ele>1510.37</ele>
        <time>2013-10-27T02:39:20Z</time>
      </trkpt>
      <trkpt lat="28.37815" lon="83.59442">
        <ele>1510.37</ele>
        <time>2013-10-27T02:39:27Z</time>
      </trkpt>
      <trkpt lat="28.37813" lon="83.5945">
        <ele>1510.37</ele>
        <time>2013-10-27T02:39:34Z</time>
      </trkpt>
      <trkpt lat="28.37806" lon="83.59459">
        <ele>1510.85</ele>
        <time>2013-10-27T02:39:48Z</time>
      </trkpt>
      <trkpt lat="28.37802" lon="83.5947">
        <ele>1509.41</ele>
        <time>2013-10-27T02:40:04Z</time>
      </trkpt>
      <trkpt lat="28.37797" lon="83.59478">
        <ele>1507</ele>
        <time>2013-10-27T02:40:18Z</time>
      </trkpt>
      <trkpt lat="28.37798" lon="83.59479">
        <ele>1507.48</ele>
        <time>2013-10-27T02:40:20Z</time>
      </trkpt>
      <trkpt lat="28.378" lon="83.59489">
        <ele>1507</ele>
        <time>2013-10-27T02:40:27Z</time>
      </trkpt>
      <trkpt lat="28.37801" lon="83.59493">
        <ele>1506.52</ele>
        <time>2013-10-27T02:40:30Z</time>
      </trkpt>
      <trkpt lat="28.37799" lon="83.59503">
        <ele>1505.08</ele>
        <time>2013-10-27T02:40:39Z</time>
      </trkpt>
      <trkpt lat="28.37786" lon="83.59517">
        <ele>1505.08</ele>
        <time>2013-10-27T02:40:54Z</time>
      </trkpt>
      <trkpt lat="28.37785" lon="83.59517">
        <ele>1504.6</ele>
        <time>2013-10-27T02:40:55Z</time>
      </trkpt>
      <trkpt lat="28.37783" lon="83.59519">
        <ele>1505.08</ele>
        <time>2013-10-27T02:40:58Z</time>
      </trkpt>
      <trkpt lat="28.37782" lon="83.59532">
        <ele>1505.56</ele>
        <time>2013-10-27T02:41:13Z</time>
      </trkpt>
      <trkpt lat="28.37782" lon="83.59534">
        <ele>1508.45</ele>
        <time>2013-10-27T02:41:26Z</time>
      </trkpt>
      <trkpt lat="28.37773" lon="83.59531">
        <ele>1510.85</ele>
        <time>2013-10-27T02:41:42Z</time>
      </trkpt>
      <trkpt lat="28.3777" lon="83.59532">
        <ele>1512.29</ele>
        <time>2013-10-27T02:41:58Z</time>
      </trkpt>
      <trkpt lat="28.37761" lon="83.59534">
        <ele>1514.69</ele>
        <time>2013-10-27T02:42:11Z</time>
      </trkpt>
      <trkpt lat="28.37758" lon="83.59536">
        <ele>1516.62</ele>
        <time>2013-10-27T02:42:23Z</time>
      </trkpt>
      <trkpt lat="28.37753" lon="83.59539">
        <ele>1519.5</ele>
        <time>2013-10-27T02:42:39Z</time>
      </trkpt>
      <trkpt lat="28.37748" lon="83.59535">
        <ele>1521.42</ele>
        <time>2013-10-27T02:42:53Z</time>
      </trkpt>
      <trkpt lat="28.37751" lon="83.59537">
        <ele>1519.98</ele>
        <time>2013-10-27T02:43:08Z</time>
      </trkpt>
      <trkpt lat="28.37754" lon="83.5954">
        <ele>1520.46</ele>
        <time>2013-10-27T02:43:34Z</time>
      </trkpt>
      <trkpt lat="28.37754" lon="83.59539">
        <ele>1520.46</ele>
        <time>2013-10-27T02:43:56Z</time>
      </trkpt>
      <trkpt lat="28.37754" lon="83.5954">
        <ele>1520.46</ele>
        <time>2013-10-27T02:44:19Z</time>
      </trkpt>
      <trkpt lat="28.37755" lon="83.59541">
        <ele>1519.98</ele>
        <time>2013-10-27T02:44:44Z</time>
      </trkpt>
      <trkpt lat="28.37755" lon="83.59542">
        <ele>1520.46</ele>
        <time>2013-10-27T02:45:05Z</time>
      </trkpt>
      <trkpt lat="28.3775" lon="83.59543">
        <ele>1522.39</ele>
        <time>2013-10-27T02:45:26Z</time>
      </trkpt>
      <trkpt lat="28.3774" lon="83.59541">
        <ele>1525.27</ele>
        <time>2013-10-27T02:45:42Z</time>
      </trkpt>
      <trkpt lat="28.37736" lon="83.59541">
        <ele>1526.71</ele>
        <time>2013-10-27T02:45:55Z</time>
      </trkpt>
      <trkpt lat="28.37735" lon="83.5955">
        <ele>1529.59</ele>
        <time>2013-10-27T02:46:10Z</time>
      </trkpt>
      <trkpt lat="28.37726" lon="83.59549">
        <ele>1532.48</ele>
        <time>2013-10-27T02:46:26Z</time>
      </trkpt>
      <trkpt lat="28.3773" lon="83.59553">
        <ele>1533.92</ele>
        <time>2013-10-27T02:46:40Z</time>
      </trkpt>
      <trkpt lat="28.37729" lon="83.59556">
        <ele>1535.36</ele>
        <time>2013-10-27T02:46:48Z</time>
      </trkpt>
      <trkpt lat="28.37725" lon="83.59561">
        <ele>1537.29</ele>
        <time>2013-10-27T02:47:02Z</time>
      </trkpt>
      <trkpt lat="28.37722" lon="83.59562">
        <ele>1538.25</ele>
        <time>2013-10-27T02:47:19Z</time>
      </trkpt>
      <trkpt lat="28.37721" lon="83.59565">
        <ele>1540.65</ele>
        <time>2013-10-27T02:47:35Z</time>
      </trkpt>
      <trkpt lat="28.37721" lon="83.59568">
        <ele>1542.09</ele>
        <time>2013-10-27T02:47:48Z</time>
      </trkpt>
      <trkpt lat="28.37719" lon="83.59568">
        <ele>1542.57</ele>
        <time>2013-10-27T02:47:55Z</time>
      </trkpt>
      <trkpt lat="28.37714" lon="83.59567">
        <ele>1542.57</ele>
        <time>2013-10-27T02:47:58Z</time>
      </trkpt>
      <trkpt lat="28.3771" lon="83.59566">
        <ele>1542.57</ele>
        <time>2013-10-27T02:48:00Z</time>
      </trkpt>
      <trkpt lat="28.37695" lon="83.59572">
        <ele>1542.57</ele>
        <time>2013-10-27T02:48:12Z</time>
      </trkpt>
      <trkpt lat="28.37689" lon="83.59572">
        <ele>1542.57</ele>
        <time>2013-10-27T02:48:23Z</time>
      </trkpt>
      <trkpt lat="28.37688" lon="83.59572">
        <ele>1544.01</ele>
        <time>2013-10-27T02:48:37Z</time>
      </trkpt>
      <trkpt lat="28.37689" lon="83.59571">
        <ele>1544.5</ele>
        <time>2013-10-27T02:48:57Z</time>
      </trkpt>
      <trkpt lat="28.37686" lon="83.59573">
        <ele>1546.42</ele>
        <time>2013-10-27T02:49:14Z</time>
      </trkpt>
      <trkpt lat="28.37681" lon="83.59574">
        <ele>1548.82</ele>
        <time>2013-10-27T02:49:30Z</time>
      </trkpt>
      <trkpt lat="28.37675" lon="83.59576">
        <ele>1550.74</ele>
        <time>2013-10-27T02:49:47Z</time>
      </trkpt>
      <trkpt lat="28.37672" lon="83.59577">
        <ele>1551.71</ele>
        <time>2013-10-27T02:50:02Z</time>
      </trkpt>
      <trkpt lat="28.37669" lon="83.59577">
        <ele>1554.59</ele>
        <time>2013-10-27T02:50:19Z</time>
      </trkpt>
      <trkpt lat="28.37666" lon="83.59577">
        <ele>1556.51</ele>
        <time>2013-10-27T02:50:35Z</time>
      </trkpt>
      <trkpt lat="28.37663" lon="83.59573">
        <ele>1558.92</ele>
        <time>2013-10-27T02:50:52Z</time>
      </trkpt>
      <trkpt lat="28.3766" lon="83.59573">
        <ele>1558.92</ele>
        <time>2013-10-27T02:51:07Z</time>
      </trkpt>
      <trkpt lat="28.37657" lon="83.5957">
        <ele>1558.92</ele>
        <time>2013-10-27T02:51:15Z</time>
      </trkpt>
      <trkpt lat="28.37657" lon="83.59579">
        <ele>1560.36</ele>
        <time>2013-10-27T02:51:27Z</time>
      </trkpt>
      <trkpt lat="28.37655" lon="83.59588">
        <ele>1561.32</ele>
        <time>2013-10-27T02:51:40Z</time>
      </trkpt>
      <trkpt lat="28.37656" lon="83.59594">
        <ele>1562.76</ele>
        <time>2013-10-27T02:51:53Z</time>
      </trkpt>
      <trkpt lat="28.37655" lon="83.59603">
        <ele>1564.2</ele>
        <time>2013-10-27T02:52:07Z</time>
      </trkpt>
      <trkpt lat="28.37658" lon="83.59609">
        <ele>1565.16</ele>
        <time>2013-10-27T02:52:20Z</time>
      </trkpt>
      <trkpt lat="28.37664" lon="83.59609">
        <ele>1566.61</ele>
        <time>2013-10-27T02:52:30Z</time>
      </trkpt>
      <trkpt lat="28.37673" lon="83.59614">
        <ele>1567.09</ele>
        <time>2013-10-27T02:52:39Z</time>
      </trkpt>
      <trkpt lat="28.3768" lon="83.59621">
        <ele>1569.01</ele>
        <time>2013-10-27T02:52:54Z</time>
      </trkpt>
      <trkpt lat="28.37681" lon="83.59621">
        <ele>1569.01</ele>
        <time>2013-10-27T02:53:12Z</time>
      </trkpt>
      <trkpt lat="28.37683" lon="83.59627">
        <ele>1569.49</ele>
        <time>2013-10-27T02:53:32Z</time>
      </trkpt>
      <trkpt lat="28.37685" lon="83.59632">
        <ele>1569.49</ele>
        <time>2013-10-27T02:53:36Z</time>
      </trkpt>
      <trkpt lat="28.37687" lon="83.59646">
        <ele>1570.93</ele>
        <time>2013-10-27T02:53:49Z</time>
      </trkpt>
      <trkpt lat="28.37685" lon="83.59653">
        <ele>1571.41</ele>
        <time>2013-10-27T02:53:58Z</time>
      </trkpt>
      <trkpt lat="28.37684" lon="83.59664">
        <ele>1571.89</ele>
        <time>2013-10-27T02:54:14Z</time>
      </trkpt>
      <trkpt lat="28.37692" lon="83.59668">
        <ele>1573.33</ele>
        <time>2013-10-27T02:54:27Z</time>
      </trkpt>
      <trkpt lat="28.377" lon="83.59676">
        <ele>1574.78</ele>
        <time>2013-10-27T02:54:39Z</time>
      </trkpt>
      <trkpt lat="28.37705" lon="83.59678">
        <ele>1576.7</ele>
        <time>2013-10-27T02:54:54Z</time>
      </trkpt>
      <trkpt lat="28.37706" lon="83.59681">
        <ele>1578.62</ele>
        <time>2013-10-27T02:55:09Z</time>
      </trkpt>
      <trkpt lat="28.3771" lon="83.59684">
        <ele>1580.54</ele>
        <time>2013-10-27T02:55:35Z</time>
      </trkpt>
      <trkpt lat="28.37715" lon="83.59686">
        <ele>1583.43</ele>
        <time>2013-10-27T02:55:47Z</time>
      </trkpt>
      <trkpt lat="28.37721" lon="83.59684">
        <ele>1586.31</ele>
        <time>2013-10-27T02:55:58Z</time>
      </trkpt>
      <trkpt lat="28.37725" lon="83.59684">
        <ele>1588.24</ele>
        <time>2013-10-27T02:56:11Z</time>
      </trkpt>
      <trkpt lat="28.37725" lon="83.59687">
        <ele>1591.12</ele>
        <time>2013-10-27T02:56:25Z</time>
      </trkpt>
      <trkpt lat="28.37729" lon="83.59689">
        <ele>1592.56</ele>
        <time>2013-10-27T02:56:37Z</time>
      </trkpt>
      <trkpt lat="28.37735" lon="83.59695">
        <ele>1594.96</ele>
        <time>2013-10-27T02:56:53Z</time>
      </trkpt>
      <trkpt lat="28.37741" lon="83.597">
        <ele>1597.37</ele>
        <time>2013-10-27T02:57:09Z</time>
      </trkpt>
      <trkpt lat="28.3775" lon="83.59705">
        <ele>1598.81</ele>
        <time>2013-10-27T02:57:22Z</time>
      </trkpt>
      <trkpt lat="28.37755" lon="83.59709">
        <ele>1600.25</ele>
        <time>2013-10-27T02:57:37Z</time>
      </trkpt>
      <trkpt lat="28.37758" lon="83.59714">
        <ele>1603.62</ele>
        <time>2013-10-27T02:57:51Z</time>
      </trkpt>
      <trkpt lat="28.37765" lon="83.59718">
        <ele>1604.58</ele>
        <time>2013-10-27T02:58:05Z</time>
      </trkpt>
      <trkpt lat="28.3777" lon="83.59721">
        <ele>1606.5</ele>
        <time>2013-10-27T02:58:21Z</time>
      </trkpt>
      <trkpt lat="28.37772" lon="83.59724">
        <ele>1607.94</ele>
        <time>2013-10-27T02:58:41Z</time>
      </trkpt>
      <trkpt lat="28.37776" lon="83.59728">
        <ele>1609.86</ele>
        <time>2013-10-27T02:58:56Z</time>
      </trkpt>
      <trkpt lat="28.3778" lon="83.59731">
        <ele>1612.27</ele>
        <time>2013-10-27T02:59:13Z</time>
      </trkpt>
      <trkpt lat="28.37781" lon="83.59733">
        <ele>1612.75</ele>
        <time>2013-10-27T02:59:30Z</time>
      </trkpt>
      <trkpt lat="28.37782" lon="83.59735">
        <ele>1612.27</ele>
        <time>2013-10-27T02:59:50Z</time>
      </trkpt>
      <trkpt lat="28.37783" lon="83.59735">
        <ele>1613.23</ele>
        <time>2013-10-27T03:00:20Z</time>
      </trkpt>
      <trkpt lat="28.37783" lon="83.59735">
        <ele>1613.23</ele>
        <time>2013-10-27T03:00:37Z</time>
      </trkpt>
      <trkpt lat="28.37784" lon="83.59735">
        <ele>1612.75</ele>
        <time>2013-10-27T03:00:57Z</time>
      </trkpt>
      <trkpt lat="28.37786" lon="83.59738">
        <ele>1614.19</ele>
        <time>2013-10-27T03:01:17Z</time>
      </trkpt>
      <trkpt lat="28.37787" lon="83.59739">
        <ele>1614.67</ele>
        <time>2013-10-27T03:01:37Z</time>
      </trkpt>
      <trkpt lat="28.37789" lon="83.59741">
        <ele>1616.11</ele>
        <time>2013-10-27T03:02:01Z</time>
      </trkpt>
      <trkpt lat="28.37792" lon="83.59747">
        <ele>1619</ele>
        <time>2013-10-27T03:02:13Z</time>
      </trkpt>
      <trkpt lat="28.37797" lon="83.59751">
        <ele>1622.36</ele>
        <time>2013-10-27T03:02:26Z</time>
      </trkpt>
      <trkpt lat="28.37803" lon="83.59755">
        <ele>1623.8</ele>
        <time>2013-10-27T03:02:37Z</time>
      </trkpt>
      <trkpt lat="28.3781" lon="83.59759">
        <ele>1626.21</ele>
        <time>2013-10-27T03:02:50Z</time>
      </trkpt>
      <trkpt lat="28.37811" lon="83.59765">
        <ele>1629.09</ele>
        <time>2013-10-27T03:03:05Z</time>
      </trkpt>
      <trkpt lat="28.37814" lon="83.59772">
        <ele>1632.46</ele>
        <time>2013-10-27T03:03:21Z</time>
      </trkpt>
      <trkpt lat="28.3781" lon="83.59774">
        <ele>1634.38</ele>
        <time>2013-10-27T03:03:36Z</time>
      </trkpt>
      <trkpt lat="28.37812" lon="83.59777">
        <ele>1636.3</ele>
        <time>2013-10-27T03:03:51Z</time>
      </trkpt>
      <trkpt lat="28.37817" lon="83.59781">
        <ele>1638.22</ele>
        <time>2013-10-27T03:04:05Z</time>
      </trkpt>
      <trkpt lat="28.37819" lon="83.59782">
        <ele>1639.67</ele>
        <time>2013-10-27T03:04:20Z</time>
      </trkpt>
      <trkpt lat="28.37822" lon="83.59785">
        <ele>1641.11</ele>
        <time>2013-10-27T03:04:32Z</time>
      </trkpt>
      <trkpt lat="28.37824" lon="83.59789">
        <ele>1642.07</ele>
        <time>2013-10-27T03:04:51Z</time>
      </trkpt>
      <trkpt lat="28.37827" lon="83.59793">
        <ele>1643.99</ele>
        <time>2013-10-27T03:05:07Z</time>
      </trkpt>
      <trkpt lat="28.37833" lon="83.59798">
        <ele>1646.4</ele>
        <time>2013-10-27T03:05:23Z</time>
      </trkpt>
      <trkpt lat="28.37836" lon="83.59801">
        <ele>1647.84</ele>
        <time>2013-10-27T03:05:37Z</time>
      </trkpt>
      <trkpt lat="28.3784" lon="83.59806">
        <ele>1650.24</ele>
        <time>2013-10-27T03:05:53Z</time>
      </trkpt>
      <trkpt lat="28.37844" lon="83.59816">
        <ele>1652.16</ele>
        <time>2013-10-27T03:06:09Z</time>
      </trkpt>
      <trkpt lat="28.3785" lon="83.5982">
        <ele>1654.09</ele>
        <time>2013-10-27T03:06:21Z</time>
      </trkpt>
      <trkpt lat="28.37852" lon="83.59822">
        <ele>1655.53</ele>
        <time>2013-10-27T03:06:35Z</time>
      </trkpt>
      <trkpt lat="28.37855" lon="83.59824">
        <ele>1657.45</ele>
        <time>2013-10-27T03:06:47Z</time>
      </trkpt>
      <trkpt lat="28.37859" lon="83.59826">
        <ele>1659.37</ele>
        <time>2013-10-27T03:07:00Z</time>
      </trkpt>
      <trkpt lat="28.37862" lon="83.59828">
        <ele>1660.81</ele>
        <time>2013-10-27T03:07:12Z</time>
      </trkpt>
      <trkpt lat="28.37867" lon="83.59827">
        <ele>1662.74</ele>
        <time>2013-10-27T03:07:24Z</time>
      </trkpt>
      <trkpt lat="28.37871" lon="83.5983">
        <ele>1664.18</ele>
        <time>2013-10-27T03:07:36Z</time>
      </trkpt>
      <trkpt lat="28.37872" lon="83.5983">
        <ele>1666.58</ele>
        <time>2013-10-27T03:07:51Z</time>
      </trkpt>
      <trkpt lat="28.3788" lon="83.59837">
        <ele>1668.02</ele>
        <time>2013-10-27T03:08:02Z</time>
      </trkpt>
      <trkpt lat="28.37888" lon="83.59845">
        <ele>1668.51</ele>
        <time>2013-10-27T03:08:14Z</time>
      </trkpt>
      <trkpt lat="28.37892" lon="83.59848">
        <ele>1670.43</ele>
        <time>2013-10-27T03:08:30Z</time>
      </trkpt>
      <trkpt lat="28.37896" lon="83.59848">
        <ele>1672.35</ele>
        <time>2013-10-27T03:08:40Z</time>
      </trkpt>
      <trkpt lat="28.37896" lon="83.59852">
        <ele>1673.79</ele>
        <time>2013-10-27T03:08:53Z</time>
      </trkpt>
      <trkpt lat="28.37898" lon="83.59856">
        <ele>1675.72</ele>
        <time>2013-10-27T03:09:08Z</time>
      </trkpt>
      <trkpt lat="28.379" lon="83.59859">
        <ele>1676.68</ele>
        <time>2013-10-27T03:09:20Z</time>
      </trkpt>
      <trkpt lat="28.37903" lon="83.59857">
        <ele>1677.64</ele>
        <time>2013-10-27T03:09:34Z</time>
      </trkpt>
      <trkpt lat="28.37903" lon="83.5986">
        <ele>1678.6</ele>
        <time>2013-10-27T03:09:44Z</time>
      </trkpt>
      <trkpt lat="28.37899" lon="83.59861">
        <ele>1680.52</ele>
        <time>2013-10-27T03:10:00Z</time>
      </trkpt>
      <trkpt lat="28.37902" lon="83.5986">
        <ele>1682.93</ele>
        <time>2013-10-27T03:10:15Z</time>
      </trkpt>
      <trkpt lat="28.37904" lon="83.59856">
        <ele>1683.89</ele>
        <time>2013-10-27T03:10:29Z</time>
      </trkpt>
      <trkpt lat="28.37905" lon="83.59857">
        <ele>1684.85</ele>
        <time>2013-10-27T03:10:48Z</time>
      </trkpt>
      <trkpt lat="28.37903" lon="83.59859">
        <ele>1687.25</ele>
        <time>2013-10-27T03:11:04Z</time>
      </trkpt>
      <trkpt lat="28.37906" lon="83.59861">
        <ele>1688.69</ele>
        <time>2013-10-27T03:11:18Z</time>
      </trkpt>
      <trkpt lat="28.37906" lon="83.5986">
        <ele>1688.69</ele>
        <time>2013-10-27T03:11:37Z</time>
      </trkpt>
      <trkpt lat="28.37907" lon="83.59862">
        <ele>1688.69</ele>
        <time>2013-10-27T03:11:45Z</time>
      </trkpt>
      <trkpt lat="28.37905" lon="83.59864">
        <ele>1690.14</ele>
        <time>2013-10-27T03:11:59Z</time>
      </trkpt>
      <trkpt lat="28.37904" lon="83.59864">
        <ele>1690.62</ele>
        <time>2013-10-27T03:12:26Z</time>
      </trkpt>
      <trkpt lat="28.37904" lon="83.59864">
        <ele>1690.62</ele>
        <time>2013-10-27T03:12:51Z</time>
      </trkpt>
      <trkpt lat="28.37904" lon="83.59864">
        <ele>1691.1</ele>
        <time>2013-10-27T03:13:17Z</time>
      </trkpt>
      <trkpt lat="28.37904" lon="83.59861">
        <ele>1691.1</ele>
        <time>2013-10-27T03:13:33Z</time>
      </trkpt>
      <trkpt lat="28.37905" lon="83.59861">
        <ele>1691.58</ele>
        <time>2013-10-27T03:13:59Z</time>
      </trkpt>
      <trkpt lat="28.37906" lon="83.59862">
        <ele>1691.58</ele>
        <time>2013-10-27T03:14:26Z</time>
      </trkpt>
      <trkpt lat="28.37907" lon="83.59862">
        <ele>1692.06</ele>
        <time>2013-10-27T03:14:58Z</time>
      </trkpt>
      <trkpt lat="28.37906" lon="83.59863">
        <ele>1692.06</ele>
        <time>2013-10-27T03:15:11Z</time>
      </trkpt>
      <trkpt lat="28.37908" lon="83.59862">
        <ele>1691.58</ele>
        <time>2013-10-27T03:15:28Z</time>
      </trkpt>
      <trkpt lat="28.37904" lon="83.59865">
        <ele>1692.54</ele>
        <time>2013-10-27T03:15:59Z</time>
      </trkpt>
      <trkpt lat="28.37904" lon="83.59865">
        <ele>1693.02</ele>
        <time>2013-10-27T03:16:29Z</time>
      </trkpt>
      <trkpt lat="28.37903" lon="83.59865">
        <ele>1693.02</ele>
        <time>2013-10-27T03:17:02Z</time>
      </trkpt>
      <trkpt lat="28.37903" lon="83.59864">
        <ele>1693.98</ele>
        <time>2013-10-27T03:17:30Z</time>
      </trkpt>
      <trkpt lat="28.37903" lon="83.59864">
        <ele>1693.98</ele>
        <time>2013-10-27T03:18:02Z</time>
      </trkpt>
      <trkpt lat="28.37903" lon="83.59864">
        <ele>1693.98</ele>
        <time>2013-10-27T03:18:32Z</time>
      </trkpt>
      <trkpt lat="28.37903" lon="83.59864">
        <ele>1694.46</ele>
        <time>2013-10-27T03:19:00Z</time>
      </trkpt>
      <trkpt lat="28.37907" lon="83.59863">
        <ele>1695.42</ele>
        <time>2013-10-27T03:19:15Z</time>
      </trkpt>
      <trkpt lat="28.37905" lon="83.59864">
        <ele>1697.83</ele>
        <time>2013-10-27T03:19:29Z</time>
      </trkpt>
      <trkpt lat="28.37907" lon="83.59868">
        <ele>1700.23</ele>
        <time>2013-10-27T03:19:48Z</time>
      </trkpt>
      <trkpt lat="28.3791" lon="83.59871">
        <ele>1702.63</ele>
        <time>2013-10-27T03:20:01Z</time>
      </trkpt>
      <trkpt lat="28.37912" lon="83.59874">
        <ele>1705.04</ele>
        <time>2013-10-27T03:20:14Z</time>
      </trkpt>
      <trkpt lat="28.37915" lon="83.5988">
        <ele>1706.96</ele>
        <time>2013-10-27T03:20:28Z</time>
      </trkpt>
      <trkpt lat="28.37917" lon="83.59884">
        <ele>1708.4</ele>
        <time>2013-10-27T03:20:42Z</time>
      </trkpt>
      <trkpt lat="28.3792" lon="83.59887">
        <ele>1710.32</ele>
        <time>2013-10-27T03:20:55Z</time>
      </trkpt>
      <trkpt lat="28.37923" lon="83.59889">
        <ele>1711.76</ele>
        <time>2013-10-27T03:21:11Z</time>
      </trkpt>
      <trkpt lat="28.37927" lon="83.59891">
        <ele>1714.17</ele>
        <time>2013-10-27T03:21:26Z</time>
      </trkpt>
      <trkpt lat="28.3793" lon="83.59892">
        <ele>1716.57</ele>
        <time>2013-10-27T03:21:42Z</time>
      </trkpt>
      <trkpt lat="28.37935" lon="83.59897">
        <ele>1718.49</ele>
        <time>2013-10-27T03:21:57Z</time>
      </trkpt>
      <trkpt lat="28.37941" lon="83.599">
        <ele>1720.42</ele>
        <time>2013-10-27T03:22:09Z</time>
      </trkpt>
      <trkpt lat="28.37945" lon="83.59908">
        <ele>1723.3</ele>
        <time>2013-10-27T03:22:29Z</time>
      </trkpt>
      <trkpt lat="28.37949" lon="83.59915">
        <ele>1724.26</ele>
        <time>2013-10-27T03:22:40Z</time>
      </trkpt>
      <trkpt lat="28.37954" lon="83.59927">
        <ele>1725.7</ele>
        <time>2013-10-27T03:22:56Z</time>
      </trkpt>
      <trkpt lat="28.37958" lon="83.59934">
        <ele>1727.63</ele>
        <time>2013-10-27T03:23:11Z</time>
      </trkpt>
      <trkpt lat="28.3796" lon="83.59938">
        <ele>1730.03</ele>
        <time>2013-10-27T03:23:23Z</time>
      </trkpt>
      <trkpt lat="28.37962" lon="83.59943">
        <ele>1731.47</ele>
        <time>2013-10-27T03:23:38Z</time>
      </trkpt>
      <trkpt lat="28.37965" lon="83.59949">
        <ele>1733.88</ele>
        <time>2013-10-27T03:23:53Z</time>
      </trkpt>
      <trkpt lat="28.37966" lon="83.59956">
        <ele>1735.8</ele>
        <time>2013-10-27T03:24:11Z</time>
      </trkpt>
      <trkpt lat="28.37969" lon="83.59961">
        <ele>1738.2</ele>
        <time>2013-10-27T03:24:24Z</time>
      </trkpt>
      <trkpt lat="28.37971" lon="83.59962">
        <ele>1740.12</ele>
        <time>2013-10-27T03:24:40Z</time>
      </trkpt>
      <trkpt lat="28.37974" lon="83.59964">
        <ele>1742.53</ele>
        <time>2013-10-27T03:24:53Z</time>
      </trkpt>
      <trkpt lat="28.37977" lon="83.59966">
        <ele>1743.01</ele>
        <time>2013-10-27T03:25:02Z</time>
      </trkpt>
      <trkpt lat="28.37982" lon="83.59975">
        <ele>1744.93</ele>
        <time>2013-10-27T03:25:19Z</time>
      </trkpt>
      <trkpt lat="28.37987" lon="83.59977">
        <ele>1747.81</ele>
        <time>2013-10-27T03:25:34Z</time>
      </trkpt>
      <trkpt lat="28.37991" lon="83.59978">
        <ele>1749.74</ele>
        <time>2013-10-27T03:25:48Z</time>
      </trkpt>
      <trkpt lat="28.37994" lon="83.59986">
        <ele>1751.18</ele>
        <time>2013-10-27T03:26:04Z</time>
      </trkpt>
      <trkpt lat="28.37997" lon="83.59992">
        <ele>1753.58</ele>
        <time>2013-10-27T03:26:22Z</time>
      </trkpt>
      <trkpt lat="28.37999" lon="83.5999">
        <ele>1756.47</ele>
        <time>2013-10-27T03:26:39Z</time>
      </trkpt>
      <trkpt lat="28.38002" lon="83.59996">
        <ele>1758.39</ele>
        <time>2013-10-27T03:26:55Z</time>
      </trkpt>
      <trkpt lat="28.38005" lon="83.60001">
        <ele>1760.79</ele>
        <time>2013-10-27T03:27:12Z</time>
      </trkpt>
      <trkpt lat="28.38002" lon="83.60005">
        <ele>1762.71</ele>
        <time>2013-10-27T03:27:32Z</time>
      </trkpt>
      <trkpt lat="28.38005" lon="83.60011">
        <ele>1765.6</ele>
        <time>2013-10-27T03:27:53Z</time>
      </trkpt>
      <trkpt lat="28.38009" lon="83.60017">
        <ele>1767.52</ele>
        <time>2013-10-27T03:28:08Z</time>
      </trkpt>
      <trkpt lat="28.38013" lon="83.60023">
        <ele>1769.44</ele>
        <time>2013-10-27T03:28:23Z</time>
      </trkpt>
      <trkpt lat="28.38019" lon="83.6003">
        <ele>1771.85</ele>
        <time>2013-10-27T03:28:40Z</time>
      </trkpt>
      <trkpt lat="28.38023" lon="83.60036">
        <ele>1773.77</ele>
        <time>2013-10-27T03:28:54Z</time>
      </trkpt>
      <trkpt lat="28.38025" lon="83.60036">
        <ele>1774.25</ele>
        <time>2013-10-27T03:29:19Z</time>
      </trkpt>
      <trkpt lat="28.38027" lon="83.60035">
        <ele>1775.69</ele>
        <time>2013-10-27T03:29:42Z</time>
      </trkpt>
      <trkpt lat="28.38031" lon="83.60036">
        <ele>1778.58</ele>
        <time>2013-10-27T03:29:58Z</time>
      </trkpt>
      <trkpt lat="28.38034" lon="83.6004">
        <ele>1780.5</ele>
        <time>2013-10-27T03:30:15Z</time>
      </trkpt>
      <trkpt lat="28.38036" lon="83.60046">
        <ele>1782.42</ele>
        <time>2013-10-27T03:30:29Z</time>
      </trkpt>
      <trkpt lat="28.38036" lon="83.6005">
        <ele>1784.82</ele>
        <time>2013-10-27T03:30:47Z</time>
      </trkpt>
      <trkpt lat="28.38038" lon="83.60055">
        <ele>1786.75</ele>
        <time>2013-10-27T03:31:01Z</time>
      </trkpt>
      <trkpt lat="28.38041" lon="83.60057">
        <ele>1788.19</ele>
        <time>2013-10-27T03:31:16Z</time>
      </trkpt>
      <trkpt lat="28.38041" lon="83.60062">
        <ele>1790.59</ele>
        <time>2013-10-27T03:31:33Z</time>
      </trkpt>
      <trkpt lat="28.38041" lon="83.60064">
        <ele>1792.52</ele>
        <time>2013-10-27T03:31:51Z</time>
      </trkpt>
      <trkpt lat="28.38044" lon="83.60067">
        <ele>1794.92</ele>
        <time>2013-10-27T03:32:07Z</time>
      </trkpt>
      <trkpt lat="28.38046" lon="83.60069">
        <ele>1796.84</ele>
        <time>2013-10-27T03:32:22Z</time>
      </trkpt>
      <trkpt lat="28.3805" lon="83.60077">
        <ele>1799.73</ele>
        <time>2013-10-27T03:32:38Z</time>
      </trkpt>
      <trkpt lat="28.38053" lon="83.6008">
        <ele>1800.21</ele>
        <time>2013-10-27T03:32:53Z</time>
      </trkpt>
      <trkpt lat="28.38059" lon="83.60082">
        <ele>1801.65</ele>
        <time>2013-10-27T03:33:08Z</time>
      </trkpt>
      <trkpt lat="28.38061" lon="83.60085">
        <ele>1802.61</ele>
        <time>2013-10-27T03:33:20Z</time>
      </trkpt>
      <trkpt lat="28.38063" lon="83.60086">
        <ele>1804.53</ele>
        <time>2013-10-27T03:33:38Z</time>
      </trkpt>
      <trkpt lat="28.38065" lon="83.6009">
        <ele>1807.42</ele>
        <time>2013-10-27T03:33:55Z</time>
      </trkpt>
      <trkpt lat="28.38069" lon="83.60095">
        <ele>1808.86</ele>
        <time>2013-10-27T03:34:12Z</time>
      </trkpt>
      <trkpt lat="28.38069" lon="83.60099">
        <ele>1810.78</ele>
        <time>2013-10-27T03:34:29Z</time>
      </trkpt>
      <trkpt lat="28.38073" lon="83.601">
        <ele>1813.18</ele>
        <time>2013-10-27T03:34:42Z</time>
      </trkpt>
      <trkpt lat="28.38077" lon="83.60105">
        <ele>1814.63</ele>
        <time>2013-10-27T03:34:57Z</time>
      </trkpt>
      <trkpt lat="28.38081" lon="83.60108">
        <ele>1817.03</ele>
        <time>2013-10-27T03:35:10Z</time>
      </trkpt>
      <trkpt lat="28.38085" lon="83.60107">
        <ele>1818.47</ele>
        <time>2013-10-27T03:35:26Z</time>
      </trkpt>
      <trkpt lat="28.38087" lon="83.60105">
        <ele>1817.99</ele>
        <time>2013-10-27T03:35:37Z</time>
      </trkpt>
      <trkpt lat="28.38094" lon="83.60095">
        <ele>1817.99</ele>
        <time>2013-10-27T03:35:53Z</time>
      </trkpt>
      <trkpt lat="28.38098" lon="83.60094">
        <ele>1817.99</ele>
        <time>2013-10-27T03:36:19Z</time>
      </trkpt>
      <trkpt lat="28.381" lon="83.60091">
        <ele>1817.99</ele>
        <time>2013-10-27T03:36:54Z</time>
      </trkpt>
      <trkpt lat="28.38097" lon="83.60097">
        <ele>1819.91</ele>
        <time>2013-10-27T03:37:08Z</time>
      </trkpt>
      <trkpt lat="28.381" lon="83.60099">
        <ele>1823.28</ele>
        <time>2013-10-27T03:37:24Z</time>
      </trkpt>
      <trkpt lat="28.38105" lon="83.60106">
        <ele>1825.68</ele>
        <time>2013-10-27T03:37:39Z</time>
      </trkpt>
      <trkpt lat="28.3811" lon="83.60108">
        <ele>1827.6</ele>
        <time>2013-10-27T03:37:54Z</time>
      </trkpt>
      <trkpt lat="28.3811" lon="83.60112">
        <ele>1828.08</ele>
        <time>2013-10-27T03:38:15Z</time>
      </trkpt>
      <trkpt lat="28.38112" lon="83.60114">
        <ele>1828.08</ele>
        <time>2013-10-27T03:38:34Z</time>
      </trkpt>
      <trkpt lat="28.38116" lon="83.60117">
        <ele>1830.01</ele>
        <time>2013-10-27T03:38:48Z</time>
      </trkpt>
      <trkpt lat="28.38119" lon="83.6012">
        <ele>1830.49</ele>
        <time>2013-10-27T03:39:02Z</time>
      </trkpt>
      <trkpt lat="28.38124" lon="83.60122">
        <ele>1832.41</ele>
        <time>2013-10-27T03:39:16Z</time>
      </trkpt>
      <trkpt lat="28.38128" lon="83.60127">
        <ele>1834.33</ele>
        <time>2013-10-27T03:39:30Z</time>
      </trkpt>
      <trkpt lat="28.38134" lon="83.60129">
        <ele>1836.74</ele>
        <time>2013-10-27T03:39:46Z</time>
      </trkpt>
      <trkpt lat="28.38137" lon="83.6013">
        <ele>1838.66</ele>
        <time>2013-10-27T03:40:02Z</time>
      </trkpt>
      <trkpt lat="28.38144" lon="83.60135">
        <ele>1840.58</ele>
        <time>2013-10-27T03:40:21Z</time>
      </trkpt>
      <trkpt lat="28.38148" lon="83.60137">
        <ele>1842.02</ele>
        <time>2013-10-27T03:40:42Z</time>
      </trkpt>
      <trkpt lat="28.38154" lon="83.60141">
        <ele>1844.43</ele>
        <time>2013-10-27T03:40:56Z</time>
      </trkpt>
      <trkpt lat="28.38159" lon="83.60145">
        <ele>1846.35</ele>
        <time>2013-10-27T03:41:15Z</time>
      </trkpt>
      <trkpt lat="28.38167" lon="83.60147">
        <ele>1848.75</ele>
        <time>2013-10-27T03:41:32Z</time>
      </trkpt>
      <trkpt lat="28.38173" lon="83.60155">
        <ele>1851.16</ele>
        <time>2013-10-27T03:41:48Z</time>
      </trkpt>
      <trkpt lat="28.38179" lon="83.60159">
        <ele>1852.6</ele>
        <time>2013-10-27T03:42:11Z</time>
      </trkpt>
      <trkpt lat="28.38183" lon="83.60163">
        <ele>1855</ele>
        <time>2013-10-27T03:42:25Z</time>
      </trkpt>
      <trkpt lat="28.38186" lon="83.60165">
        <ele>1855.96</ele>
        <time>2013-10-27T03:42:30Z</time>
      </trkpt>
      <trkpt lat="28.38192" lon="83.60173">
        <ele>1856.92</ele>
        <time>2013-10-27T03:42:42Z</time>
      </trkpt>
      <trkpt lat="28.38198" lon="83.60177">
        <ele>1857.89</ele>
        <time>2013-10-27T03:42:58Z</time>
      </trkpt>
      <trkpt lat="28.38205" lon="83.6018">
        <ele>1858.85</ele>
        <time>2013-10-27T03:43:08Z</time>
      </trkpt>
      <trkpt lat="28.38209" lon="83.60183">
        <ele>1858.37</ele>
        <time>2013-10-27T03:43:19Z</time>
      </trkpt>
      <trkpt lat="28.38215" lon="83.60186">
        <ele>1859.81</ele>
        <time>2013-10-27T03:43:34Z</time>
      </trkpt>
      <trkpt lat="28.3822" lon="83.60186">
        <ele>1861.73</ele>
        <time>2013-10-27T03:43:48Z</time>
      </trkpt>
      <trkpt lat="28.38223" lon="83.60183">
        <ele>1862.21</ele>
        <time>2013-10-27T03:44:04Z</time>
      </trkpt>
      <trkpt lat="28.38226" lon="83.60182">
        <ele>1862.21</ele>
        <time>2013-10-27T03:44:23Z</time>
      </trkpt>
      <trkpt lat="28.38226" lon="83.60184">
        <ele>1863.17</ele>
        <time>2013-10-27T03:44:35Z</time>
      </trkpt>
      <trkpt lat="28.38223" lon="83.60187">
        <ele>1863.17</ele>
        <time>2013-10-27T03:44:58Z</time>
      </trkpt>
      <trkpt lat="28.38224" lon="83.60187">
        <ele>1863.17</ele>
        <time>2013-10-27T03:45:17Z</time>
      </trkpt>
      <trkpt lat="28.38224" lon="83.60188">
        <ele>1863.17</ele>
        <time>2013-10-27T03:45:41Z</time>
      </trkpt>
      <trkpt lat="28.38223" lon="83.60188">
        <ele>1863.17</ele>
        <time>2013-10-27T03:46:05Z</time>
      </trkpt>
      <trkpt lat="28.38222" lon="83.60191">
        <ele>1863.17</ele>
        <time>2013-10-27T03:46:26Z</time>
      </trkpt>
      <trkpt lat="28.38221" lon="83.60192">
        <ele>1864.13</ele>
        <time>2013-10-27T03:46:48Z</time>
      </trkpt>
      <trkpt lat="28.38222" lon="83.60192">
        <ele>1863.65</ele>
        <time>2013-10-27T03:47:12Z</time>
      </trkpt>
      <trkpt lat="28.38221" lon="83.60192">
        <ele>1857.4</ele>
        <time>2013-10-27T03:47:18Z</time>
      </trkpt>
      <trkpt lat="28.38221" lon="83.60192">
        <ele>1871.82</ele>
        <time>2013-10-27T03:47:19Z</time>
      </trkpt>
      <trkpt lat="28.38221" lon="83.60193">
        <ele>1865.09</ele>
        <time>2013-10-27T03:47:20Z</time>
      </trkpt>
      <trkpt lat="28.38218" lon="83.60195">
        <ele>1861.73</ele>
        <time>2013-10-27T03:47:32Z</time>
      </trkpt>
      <trkpt lat="28.38218" lon="83.60195">
        <ele>1866.06</ele>
        <time>2013-10-27T03:47:33Z</time>
      </trkpt>
      <trkpt lat="28.38222" lon="83.60191">
        <ele>1864.61</ele>
        <time>2013-10-27T03:47:50Z</time>
      </trkpt>
      <trkpt lat="28.38232" lon="83.60181">
        <ele>1866.06</ele>
        <time>2013-10-27T03:48:04Z</time>
      </trkpt>
      <trkpt lat="28.38236" lon="83.60178">
        <ele>1866.54</ele>
        <time>2013-10-27T03:48:25Z</time>
      </trkpt>
      <trkpt lat="28.38236" lon="83.60177">
        <ele>1866.54</ele>
        <time>2013-10-27T03:48:44Z</time>
      </trkpt>
      <trkpt lat="28.3824" lon="83.60177">
        <ele>1866.54</ele>
        <time>2013-10-27T03:49:08Z</time>
      </trkpt>
      <trkpt lat="28.38234" lon="83.60175">
        <ele>1865.09</ele>
        <time>2013-10-27T03:49:25Z</time>
      </trkpt>
      <trkpt lat="28.38232" lon="83.60176">
        <ele>1865.58</ele>
        <time>2013-10-27T03:49:45Z</time>
      </trkpt>
      <trkpt lat="28.38234" lon="83.60178">
        <ele>1866.06</ele>
        <time>2013-10-27T03:50:02Z</time>
      </trkpt>
      <trkpt lat="28.38236" lon="83.60176">
        <ele>1867.02</ele>
        <time>2013-10-27T03:50:17Z</time>
      </trkpt>
      <trkpt lat="28.38237" lon="83.60178">
        <ele>1867.5</ele>
        <time>2013-10-27T03:50:39Z</time>
      </trkpt>
      <trkpt lat="28.38237" lon="83.60173">
        <ele>1867.5</ele>
        <time>2013-10-27T03:51:06Z</time>
      </trkpt>
      <trkpt lat="28.38239" lon="83.60174">
        <ele>1867.5</ele>
        <time>2013-10-27T03:51:29Z</time>
      </trkpt>
      <trkpt lat="28.38245" lon="83.60178">
        <ele>1867.98</ele>
        <time>2013-10-27T03:51:51Z</time>
      </trkpt>
      <trkpt lat="28.38237" lon="83.60174">
        <ele>1867.98</ele>
        <time>2013-10-27T03:52:11Z</time>
      </trkpt>
      <trkpt lat="28.38237" lon="83.60175">
        <ele>1868.46</ele>
        <time>2013-10-27T03:52:34Z</time>
      </trkpt>
      <trkpt lat="28.38235" lon="83.60175">
        <ele>1867.5</ele>
        <time>2013-10-27T03:52:58Z</time>
      </trkpt>
      <trkpt lat="28.38232" lon="83.60175">
        <ele>1867.02</ele>
        <time>2013-10-27T03:53:18Z</time>
      </trkpt>
      <trkpt lat="28.38227" lon="83.60173">
        <ele>1867.02</ele>
        <time>2013-10-27T03:53:45Z</time>
      </trkpt>
      <trkpt lat="28.38226" lon="83.60174">
        <ele>1867.5</ele>
        <time>2013-10-27T03:54:08Z</time>
      </trkpt>
      <trkpt lat="28.38225" lon="83.60173">
        <ele>1867.5</ele>
        <time>2013-10-27T03:54:30Z</time>
      </trkpt>
      <trkpt lat="28.38224" lon="83.60174">
        <ele>1867.02</ele>
        <time>2013-10-27T03:54:46Z</time>
      </trkpt>
      <trkpt lat="28.38225" lon="83.60176">
        <ele>1867.02</ele>
        <time>2013-10-27T03:55:04Z</time>
      </trkpt>
      <trkpt lat="28.38226" lon="83.60178">
        <ele>1867.5</ele>
        <time>2013-10-27T03:55:36Z</time>
      </trkpt>
      <trkpt lat="28.38228" lon="83.60181">
        <ele>1867.98</ele>
        <time>2013-10-27T03:56:13Z</time>
      </trkpt>
      <trkpt lat="28.38229" lon="83.60181">
        <ele>1867.5</ele>
        <time>2013-10-27T03:56:36Z</time>
      </trkpt>
      <trkpt lat="28.38229" lon="83.60187">
        <ele>1867.98</ele>
        <time>2013-10-27T03:56:52Z</time>
      </trkpt>
      <trkpt lat="28.38227" lon="83.60198">
        <ele>1867.98</ele>
        <time>2013-10-27T03:57:08Z</time>
      </trkpt>
      <trkpt lat="28.38228" lon="83.60207">
        <ele>1870.38</ele>
        <time>2013-10-27T03:57:29Z</time>
      </trkpt>
      <trkpt lat="28.38228" lon="83.60212">
        <ele>1871.34</ele>
        <time>2013-10-27T03:57:51Z</time>
      </trkpt>
      <trkpt lat="28.38229" lon="83.60216">
        <ele>1872.3</ele>
        <time>2013-10-27T03:58:05Z</time>
      </trkpt>
      <trkpt lat="28.38231" lon="83.60224">
        <ele>1874.23</ele>
        <time>2013-10-27T03:58:21Z</time>
      </trkpt>
      <trkpt lat="28.38232" lon="83.60228">
        <ele>1876.63</ele>
        <time>2013-10-27T03:58:39Z</time>
      </trkpt>
      <trkpt lat="28.38233" lon="83.60229">
        <ele>1878.55</ele>
        <time>2013-10-27T03:58:54Z</time>
      </trkpt>
      <trkpt lat="28.38236" lon="83.60236">
        <ele>1880.96</ele>
        <time>2013-10-27T03:59:13Z</time>
      </trkpt>
      <trkpt lat="28.38236" lon="83.60248">
        <ele>1884.8</ele>
        <time>2013-10-27T03:59:34Z</time>
      </trkpt>
      <trkpt lat="28.38239" lon="83.60258">
        <ele>1885.76</ele>
        <time>2013-10-27T03:59:47Z</time>
      </trkpt>
      <trkpt lat="28.38237" lon="83.60269">
        <ele>1886.24</ele>
        <time>2013-10-27T04:00:01Z</time>
      </trkpt>
      <trkpt lat="28.38236" lon="83.60276">
        <ele>1888.17</ele>
        <time>2013-10-27T04:00:17Z</time>
      </trkpt>
      <trkpt lat="28.38234" lon="83.60282">
        <ele>1890.57</ele>
        <time>2013-10-27T04:00:36Z</time>
      </trkpt>
      <trkpt lat="28.38236" lon="83.60287">
        <ele>1892.49</ele>
        <time>2013-10-27T04:00:52Z</time>
      </trkpt>
      <trkpt lat="28.38238" lon="83.60293">
        <ele>1894.9</ele>
        <time>2013-10-27T04:01:09Z</time>
      </trkpt>
      <trkpt lat="28.3824" lon="83.60294">
        <ele>1896.82</ele>
        <time>2013-10-27T04:01:26Z</time>
      </trkpt>
      <trkpt lat="28.3824" lon="83.60297">
        <ele>1898.74</ele>
        <time>2013-10-27T04:01:43Z</time>
      </trkpt>
      <trkpt lat="28.38244" lon="83.60301">
        <ele>1901.14</ele>
        <time>2013-10-27T04:02:02Z</time>
      </trkpt>
      <trkpt lat="28.38245" lon="83.60307">
        <ele>1903.07</ele>
        <time>2013-10-27T04:02:20Z</time>
      </trkpt>
      <trkpt lat="28.38248" lon="83.60311">
        <ele>1904.99</ele>
        <time>2013-10-27T04:02:37Z</time>
      </trkpt>
      <trkpt lat="28.38252" lon="83.60318">
        <ele>1906.43</ele>
        <time>2013-10-27T04:02:56Z</time>
      </trkpt>
      <trkpt lat="28.38253" lon="83.60322">
        <ele>1907.87</ele>
        <time>2013-10-27T04:03:18Z</time>
      </trkpt>
      <trkpt lat="28.38256" lon="83.60321">
        <ele>1909.32</ele>
        <time>2013-10-27T04:03:48Z</time>
      </trkpt>
      <trkpt lat="28.38257" lon="83.60326">
        <ele>1910.76</ele>
        <time>2013-10-27T04:04:05Z</time>
      </trkpt>
      <trkpt lat="28.38258" lon="83.60328">
        <ele>1914.12</ele>
        <time>2013-10-27T04:04:25Z</time>
      </trkpt>
      <trkpt lat="28.38263" lon="83.60336">
        <ele>1916.04</ele>
        <time>2013-10-27T04:04:43Z</time>
      </trkpt>
      <trkpt lat="28.38264" lon="83.60338">
        <ele>1916.53</ele>
        <time>2013-10-27T04:05:02Z</time>
      </trkpt>
      <trkpt lat="28.38268" lon="83.60338">
        <ele>1918.93</ele>
        <time>2013-10-27T04:05:20Z</time>
      </trkpt>
      <trkpt lat="28.38272" lon="83.60349">
        <ele>1920.85</ele>
        <time>2013-10-27T04:05:42Z</time>
      </trkpt>
      <trkpt lat="28.38275" lon="83.60355">
        <ele>1920.85</ele>
        <time>2013-10-27T04:06:06Z</time>
      </trkpt>
      <trkpt lat="28.38275" lon="83.60357">
        <ele>1922.77</ele>
        <time>2013-10-27T04:06:35Z</time>
      </trkpt>
      <trkpt lat="28.38278" lon="83.60357">
        <ele>1924.7</ele>
        <time>2013-10-27T04:06:52Z</time>
      </trkpt>
      <trkpt lat="28.38282" lon="83.60362">
        <ele>1926.14</ele>
        <time>2013-10-27T04:07:10Z</time>
      </trkpt>
      <trkpt lat="28.38283" lon="83.60369">
        <ele>1929.02</ele>
        <time>2013-10-27T04:07:29Z</time>
      </trkpt>
      <trkpt lat="28.38283" lon="83.60372">
        <ele>1930.95</ele>
        <time>2013-10-27T04:07:49Z</time>
      </trkpt>
      <trkpt lat="28.38281" lon="83.60375">
        <ele>1933.35</ele>
        <time>2013-10-27T04:08:10Z</time>
      </trkpt>
      <trkpt lat="28.3828" lon="83.60379">
        <ele>1935.75</ele>
        <time>2013-10-27T04:08:36Z</time>
      </trkpt>
      <trkpt lat="28.38284" lon="83.60383">
        <ele>1937.67</ele>
        <time>2013-10-27T04:08:52Z</time>
      </trkpt>
      <trkpt lat="28.38289" lon="83.60383">
        <ele>1940.08</ele>
        <time>2013-10-27T04:09:12Z</time>
      </trkpt>
      <trkpt lat="28.38291" lon="83.60387">
        <ele>1942</ele>
        <time>2013-10-27T04:09:29Z</time>
      </trkpt>
      <trkpt lat="28.38291" lon="83.60393">
        <ele>1944.4</ele>
        <time>2013-10-27T04:09:46Z</time>
      </trkpt>
      <trkpt lat="28.38287" lon="83.604">
        <ele>1946.33</ele>
        <time>2013-10-27T04:10:06Z</time>
      </trkpt>
      <trkpt lat="28.38292" lon="83.60402">
        <ele>1947.77</ele>
        <time>2013-10-27T04:10:21Z</time>
      </trkpt>
      <trkpt lat="28.38294" lon="83.60403">
        <ele>1949.69</ele>
        <time>2013-10-27T04:10:40Z</time>
      </trkpt>
      <trkpt lat="28.38296" lon="83.60405">
        <ele>1951.61</ele>
        <time>2013-10-27T04:11:00Z</time>
      </trkpt>
      <trkpt lat="28.38298" lon="83.60407">
        <ele>1954.98</ele>
        <time>2013-10-27T04:11:20Z</time>
      </trkpt>
      <trkpt lat="28.38301" lon="83.60405">
        <ele>1956.42</ele>
        <time>2013-10-27T04:11:38Z</time>
      </trkpt>
      <trkpt lat="28.38303" lon="83.60407">
        <ele>1957.38</ele>
        <time>2013-10-27T04:11:57Z</time>
      </trkpt>
      <trkpt lat="28.38305" lon="83.60407">
        <ele>1958.34</ele>
        <time>2013-10-27T04:12:23Z</time>
      </trkpt>
      <trkpt lat="28.38306" lon="83.60411">
        <ele>1959.78</ele>
        <time>2013-10-27T04:12:40Z</time>
      </trkpt>
      <trkpt lat="28.38308" lon="83.6042">
        <ele>1962.19</ele>
        <time>2013-10-27T04:13:00Z</time>
      </trkpt>
      <trkpt lat="28.38311" lon="83.60422">
        <ele>1964.11</ele>
        <time>2013-10-27T04:13:18Z</time>
      </trkpt>
      <trkpt lat="28.38313" lon="83.60425">
        <ele>1966.03</ele>
        <time>2013-10-27T04:13:39Z</time>
      </trkpt>
      <trkpt lat="28.38315" lon="83.60426">
        <ele>1966.03</ele>
        <time>2013-10-27T04:14:05Z</time>
      </trkpt>
      <trkpt lat="28.38316" lon="83.60428">
        <ele>1966.51</ele>
        <time>2013-10-27T04:14:26Z</time>
      </trkpt>
      <trkpt lat="28.38316" lon="83.60432">
        <ele>1969.4</ele>
        <time>2013-10-27T04:14:43Z</time>
      </trkpt>
      <trkpt lat="28.38314" lon="83.60434">
        <ele>1970.84</ele>
        <time>2013-10-27T04:14:59Z</time>
      </trkpt>
      <trkpt lat="28.38312" lon="83.60433">
        <ele>1972.76</ele>
        <time>2013-10-27T04:15:17Z</time>
      </trkpt>
      <trkpt lat="28.38308" lon="83.60433">
        <ele>1975.17</ele>
        <time>2013-10-27T04:15:38Z</time>
      </trkpt>
      <trkpt lat="28.38306" lon="83.60435">
        <ele>1975.65</ele>
        <time>2013-10-27T04:15:56Z</time>
      </trkpt>
      <trkpt lat="28.38305" lon="83.60436">
        <ele>1977.57</ele>
        <time>2013-10-27T04:16:15Z</time>
      </trkpt>
      <trkpt lat="28.38306" lon="83.60438">
        <ele>1980.45</ele>
        <time>2013-10-27T04:16:30Z</time>
      </trkpt>
      <trkpt lat="28.38308" lon="83.60442">
        <ele>1982.38</ele>
        <time>2013-10-27T04:16:46Z</time>
      </trkpt>
      <trkpt lat="28.38308" lon="83.60442">
        <ele>1982.86</ele>
        <time>2013-10-27T04:17:01Z</time>
      </trkpt>
      <trkpt lat="28.3831" lon="83.6044">
        <ele>1982.86</ele>
        <time>2013-10-27T04:17:18Z</time>
      </trkpt>
      <trkpt lat="28.38309" lon="83.6044">
        <ele>1982.86</ele>
        <time>2013-10-27T04:17:37Z</time>
      </trkpt>
      <trkpt lat="28.38311" lon="83.60442">
        <ele>1983.82</ele>
        <time>2013-10-27T04:18:00Z</time>
      </trkpt>
      <trkpt lat="28.38316" lon="83.60449">
        <ele>1984.78</ele>
        <time>2013-10-27T04:18:16Z</time>
      </trkpt>
      <trkpt lat="28.3832" lon="83.60451">
        <ele>1986.7</ele>
        <time>2013-10-27T04:18:33Z</time>
      </trkpt>
      <trkpt lat="28.38325" lon="83.60455">
        <ele>1985.74</ele>
        <time>2013-10-27T04:18:51Z</time>
      </trkpt>
      <trkpt lat="28.38328" lon="83.60457">
        <ele>1985.26</ele>
        <time>2013-10-27T04:19:10Z</time>
      </trkpt>
      <trkpt lat="28.3833" lon="83.60459">
        <ele>1983.34</ele>
        <time>2013-10-27T04:19:29Z</time>
      </trkpt>
      <trkpt lat="28.38334" lon="83.60466">
        <ele>1982.38</ele>
        <time>2013-10-27T04:19:42Z</time>
      </trkpt>
      <trkpt lat="28.38344" lon="83.60475">
        <ele>1982.38</ele>
        <time>2013-10-27T04:19:57Z</time>
      </trkpt>
      <trkpt lat="28.38348" lon="83.60478">
        <ele>1982.86</ele>
        <time>2013-10-27T04:20:09Z</time>
      </trkpt>
      <trkpt lat="28.38351" lon="83.60478">
        <ele>1982.86</ele>
        <time>2013-10-27T04:20:34Z</time>
      </trkpt>
      <trkpt lat="28.38353" lon="83.60478">
        <ele>1982.86</ele>
        <time>2013-10-27T04:20:59Z</time>
      </trkpt>
      <trkpt lat="28.38355" lon="83.60478">
        <ele>1982.86</ele>
        <time>2013-10-27T04:21:30Z</time>
      </trkpt>
      <trkpt lat="28.38355" lon="83.60478">
        <ele>1983.34</ele>
        <time>2013-10-27T04:21:56Z</time>
      </trkpt>
      <trkpt lat="28.38356" lon="83.60478">
        <ele>1983.34</ele>
        <time>2013-10-27T04:22:21Z</time>
      </trkpt>
      <trkpt lat="28.38356" lon="83.60481">
        <ele>1983.34</ele>
        <time>2013-10-27T04:22:36Z</time>
      </trkpt>
      <trkpt lat="28.38353" lon="83.60488">
        <ele>1981.41</ele>
        <time>2013-10-27T04:22:52Z</time>
      </trkpt>
      <trkpt lat="28.38353" lon="83.60493">
        <ele>1979.49</ele>
        <time>2013-10-27T04:23:08Z</time>
      </trkpt>
      <trkpt lat="28.38355" lon="83.60495">
        <ele>1978.53</ele>
        <time>2013-10-27T04:23:29Z</time>
      </trkpt>
      <trkpt lat="28.38353" lon="83.60496">
        <ele>1977.09</ele>
        <time>2013-10-27T04:23:49Z</time>
      </trkpt>
      <trkpt lat="28.38351" lon="83.60501">
        <ele>1976.61</ele>
        <time>2013-10-27T04:24:07Z</time>
      </trkpt>
      <trkpt lat="28.38353" lon="83.60503">
        <ele>1976.13</ele>
        <time>2013-10-27T04:24:26Z</time>
      </trkpt>
      <trkpt lat="28.38355" lon="83.60505">
        <ele>1974.2</ele>
        <time>2013-10-27T04:24:43Z</time>
      </trkpt>
      <trkpt lat="28.38358" lon="83.60508">
        <ele>1971.32</ele>
        <time>2013-10-27T04:25:01Z</time>
      </trkpt>
      <trkpt lat="28.38358" lon="83.60508">
        <ele>1970.36</ele>
        <time>2013-10-27T04:25:23Z</time>
      </trkpt>
      <trkpt lat="28.38361" lon="83.6051">
        <ele>1968.44</ele>
        <time>2013-10-27T04:25:38Z</time>
      </trkpt>
      <trkpt lat="28.38359" lon="83.60514">
        <ele>1966.99</ele>
        <time>2013-10-27T04:25:57Z</time>
      </trkpt>
      <trkpt lat="28.38353" lon="83.60518">
        <ele>1964.11</ele>
        <time>2013-10-27T04:26:13Z</time>
      </trkpt>
      <trkpt lat="28.38344" lon="83.60519">
        <ele>1963.15</ele>
        <time>2013-10-27T04:26:30Z</time>
      </trkpt>
      <trkpt lat="28.38344" lon="83.60522">
        <ele>1962.67</ele>
        <time>2013-10-27T04:26:50Z</time>
      </trkpt>
      <trkpt lat="28.38346" lon="83.60523">
        <ele>1960.75</ele>
        <time>2013-10-27T04:27:07Z</time>
      </trkpt>
      <trkpt lat="28.38349" lon="83.60523">
        <ele>1958.82</ele>
        <time>2013-10-27T04:27:26Z</time>
      </trkpt>
      <trkpt lat="28.38353" lon="83.60525">
        <ele>1958.82</ele>
        <time>2013-10-27T04:27:48Z</time>
      </trkpt>
      <trkpt lat="28.38347" lon="83.60533">
        <ele>1956.42</ele>
        <time>2013-10-27T04:28:06Z</time>
      </trkpt>
      <trkpt lat="28.3835" lon="83.60535">
        <ele>1954.98</ele>
        <time>2013-10-27T04:28:21Z</time>
      </trkpt>
      <trkpt lat="28.38354" lon="83.60536">
        <ele>1954.02</ele>
        <time>2013-10-27T04:28:43Z</time>
      </trkpt>
      <trkpt lat="28.38353" lon="83.60538">
        <ele>1951.13</ele>
        <time>2013-10-27T04:28:59Z</time>
      </trkpt>
      <trkpt lat="28.38357" lon="83.60543">
        <ele>1950.65</ele>
        <time>2013-10-27T04:29:18Z</time>
      </trkpt>
      <trkpt lat="28.38352" lon="83.60546">
        <ele>1949.21</ele>
        <time>2013-10-27T04:29:36Z</time>
      </trkpt>
      <trkpt lat="28.38353" lon="83.6055">
        <ele>1947.77</ele>
        <time>2013-10-27T04:29:53Z</time>
      </trkpt>
      <trkpt lat="28.38356" lon="83.60557">
        <ele>1946.33</ele>
        <time>2013-10-27T04:30:07Z</time>
      </trkpt>
      <trkpt lat="28.38356" lon="83.60559">
        <ele>1944.88</ele>
        <time>2013-10-27T04:30:25Z</time>
      </trkpt>
      <trkpt lat="28.38352" lon="83.60559">
        <ele>1943.44</ele>
        <time>2013-10-27T04:30:43Z</time>
      </trkpt>
      <trkpt lat="28.3835" lon="83.60558">
        <ele>1942.48</ele>
        <time>2013-10-27T04:31:03Z</time>
      </trkpt>
      <trkpt lat="28.3835" lon="83.60564">
        <ele>1941.52</ele>
        <time>2013-10-27T04:31:18Z</time>
      </trkpt>
      <trkpt lat="28.38352" lon="83.60565">
        <ele>1940.56</ele>
        <time>2013-10-27T04:31:36Z</time>
      </trkpt>
      <trkpt lat="28.38355" lon="83.60568">
        <ele>1939.6</ele>
        <time>2013-10-27T04:31:53Z</time>
      </trkpt>
      <trkpt lat="28.38355" lon="83.60572">
        <ele>1937.67</ele>
        <time>2013-10-27T04:32:09Z</time>
      </trkpt>
      <trkpt lat="28.38356" lon="83.60576">
        <ele>1935.75</ele>
        <time>2013-10-27T04:32:23Z</time>
      </trkpt>
      <trkpt lat="28.38359" lon="83.60581">
        <ele>1934.79</ele>
        <time>2013-10-27T04:32:35Z</time>
      </trkpt>
      <trkpt lat="28.38357" lon="83.60586">
        <ele>1935.27</ele>
        <time>2013-10-27T04:32:51Z</time>
      </trkpt>
      <trkpt lat="28.38355" lon="83.60593">
        <ele>1935.27</ele>
        <time>2013-10-27T04:33:05Z</time>
      </trkpt>
      <trkpt lat="28.38353" lon="83.60594">
        <ele>1935.75</ele>
        <time>2013-10-27T04:33:07Z</time>
      </trkpt>
      <trkpt lat="28.38339" lon="83.60599">
        <ele>1937.19</ele>
        <time>2013-10-27T04:33:24Z</time>
      </trkpt>
      <trkpt lat="28.38336" lon="83.60602">
        <ele>1938.64</ele>
        <time>2013-10-27T04:33:31Z</time>
      </trkpt>
      <trkpt lat="28.38338" lon="83.60613">
        <ele>1939.12</ele>
        <time>2013-10-27T04:33:42Z</time>
      </trkpt>
      <trkpt lat="28.3834" lon="83.6062">
        <ele>1939.6</ele>
        <time>2013-10-27T04:33:57Z</time>
      </trkpt>
      <trkpt lat="28.38342" lon="83.60624">
        <ele>1942</ele>
        <time>2013-10-27T04:34:13Z</time>
      </trkpt>
      <trkpt lat="28.38344" lon="83.60629">
        <ele>1943.44</ele>
        <time>2013-10-27T04:34:28Z</time>
      </trkpt>
      <trkpt lat="28.38345" lon="83.60632">
        <ele>1944.88</ele>
        <time>2013-10-27T04:34:41Z</time>
      </trkpt>
      <trkpt lat="28.38344" lon="83.60636">
        <ele>1946.33</ele>
        <time>2013-10-27T04:35:05Z</time>
      </trkpt>
      <trkpt lat="28.38346" lon="83.60642">
        <ele>1948.25</ele>
        <time>2013-10-27T04:35:20Z</time>
      </trkpt>
      <trkpt lat="28.38346" lon="83.60649">
        <ele>1950.17</ele>
        <time>2013-10-27T04:35:34Z</time>
      </trkpt>
      <trkpt lat="28.38344" lon="83.60653">
        <ele>1952.09</ele>
        <time>2013-10-27T04:35:52Z</time>
      </trkpt>
      <trkpt lat="28.3834" lon="83.60653">
        <ele>1953.54</ele>
        <time>2013-10-27T04:36:09Z</time>
      </trkpt>
      <trkpt lat="28.3834" lon="83.60653">
        <ele>1953.54</ele>
        <time>2013-10-27T04:36:30Z</time>
      </trkpt>
      <trkpt lat="28.38339" lon="83.60656">
        <ele>1955.94</ele>
        <time>2013-10-27T04:36:49Z</time>
      </trkpt>
      <trkpt lat="28.38341" lon="83.60661">
        <ele>1958.34</ele>
        <time>2013-10-27T04:37:04Z</time>
      </trkpt>
      <trkpt lat="28.38342" lon="83.60665">
        <ele>1958.34</ele>
        <time>2013-10-27T04:37:21Z</time>
      </trkpt>
      <trkpt lat="28.38341" lon="83.60668">
        <ele>1960.27</ele>
        <time>2013-10-27T04:37:37Z</time>
      </trkpt>
      <trkpt lat="28.3834" lon="83.60669">
        <ele>1963.15</ele>
        <time>2013-10-27T04:37:54Z</time>
      </trkpt>
      <trkpt lat="28.38339" lon="83.6067">
        <ele>1965.07</ele>
        <time>2013-10-27T04:38:12Z</time>
      </trkpt>
      <trkpt lat="28.38328" lon="83.60674">
        <ele>1966.51</ele>
        <time>2013-10-27T04:38:28Z</time>
      </trkpt>
      <trkpt lat="28.38326" lon="83.60671">
        <ele>1968.44</ele>
        <time>2013-10-27T04:38:45Z</time>
      </trkpt>
      <trkpt lat="28.38323" lon="83.60672">
        <ele>1969.88</ele>
        <time>2013-10-27T04:39:03Z</time>
      </trkpt>
      <trkpt lat="28.38323" lon="83.60672">
        <ele>1970.36</ele>
        <time>2013-10-27T04:39:18Z</time>
      </trkpt>
      <trkpt lat="28.3832" lon="83.60672">
        <ele>1972.28</ele>
        <time>2013-10-27T04:39:38Z</time>
      </trkpt>
      <trkpt lat="28.3832" lon="83.60675">
        <ele>1974.2</ele>
        <time>2013-10-27T04:39:59Z</time>
      </trkpt>
      <trkpt lat="28.3832" lon="83.60681">
        <ele>1975.65</ele>
        <time>2013-10-27T04:40:16Z</time>
      </trkpt>
      <trkpt lat="28.3832" lon="83.60686">
        <ele>1977.09</ele>
        <time>2013-10-27T04:40:32Z</time>
      </trkpt>
      <trkpt lat="28.38321" lon="83.60691">
        <ele>1979.49</ele>
        <time>2013-10-27T04:40:47Z</time>
      </trkpt>
      <trkpt lat="28.3832" lon="83.60697">
        <ele>1980.93</ele>
        <time>2013-10-27T04:41:05Z</time>
      </trkpt>
      <trkpt lat="28.3832" lon="83.60701">
        <ele>1982.86</ele>
        <time>2013-10-27T04:41:21Z</time>
      </trkpt>
      <trkpt lat="28.38317" lon="83.60705">
        <ele>1984.78</ele>
        <time>2013-10-27T04:41:36Z</time>
      </trkpt>
      <trkpt lat="28.38314" lon="83.6071">
        <ele>1986.7</ele>
        <time>2013-10-27T04:41:53Z</time>
      </trkpt>
      <trkpt lat="28.38312" lon="83.60714">
        <ele>1988.14</ele>
        <time>2013-10-27T04:42:07Z</time>
      </trkpt>
      <trkpt lat="28.38309" lon="83.60717">
        <ele>1989.59</ele>
        <time>2013-10-27T04:42:25Z</time>
      </trkpt>
      <trkpt lat="28.38309" lon="83.60717">
        <ele>1990.07</ele>
        <time>2013-10-27T04:42:44Z</time>
      </trkpt>
      <trkpt lat="28.38309" lon="83.60717">
        <ele>1990.55</ele>
        <time>2013-10-27T04:43:15Z</time>
      </trkpt>
      <trkpt lat="28.3831" lon="83.60718">
        <ele>1990.55</ele>
        <time>2013-10-27T04:43:43Z</time>
      </trkpt>
      <trkpt lat="28.3831" lon="83.60717">
        <ele>1990.07</ele>
        <time>2013-10-27T04:44:11Z</time>
      </trkpt>
      <trkpt lat="28.38312" lon="83.60717">
        <ele>1990.55</ele>
        <time>2013-10-27T04:44:45Z</time>
      </trkpt>
      <trkpt lat="28.38311" lon="83.60718">
        <ele>1990.07</ele>
        <time>2013-10-27T04:45:12Z</time>
      </trkpt>
      <trkpt lat="28.38312" lon="83.60718">
        <ele>1992.47</ele>
        <time>2013-10-27T04:45:42Z</time>
      </trkpt>
      <trkpt lat="28.38309" lon="83.6072">
        <ele>1994.87</ele>
        <time>2013-10-27T04:46:02Z</time>
      </trkpt>
      <trkpt lat="28.38305" lon="83.60726">
        <ele>1997.28</ele>
        <time>2013-10-27T04:46:21Z</time>
      </trkpt>
      <trkpt lat="28.38304" lon="83.6073">
        <ele>2000.64</ele>
        <time>2013-10-27T04:46:39Z</time>
      </trkpt>
      <trkpt lat="28.38302" lon="83.60735">
        <ele>2002.08</ele>
        <time>2013-10-27T04:46:58Z</time>
      </trkpt>
      <trkpt lat="28.38295" lon="83.60746">
        <ele>2002.56</ele>
        <time>2013-10-27T04:47:12Z</time>
      </trkpt>
      <trkpt lat="28.38293" lon="83.60755">
        <ele>2003.52</ele>
        <time>2013-10-27T04:47:24Z</time>
      </trkpt>
      <trkpt lat="28.38289" lon="83.60758">
        <ele>2005.45</ele>
        <time>2013-10-27T04:47:40Z</time>
      </trkpt>
      <trkpt lat="28.38283" lon="83.60763">
        <ele>2005.93</ele>
        <time>2013-10-27T04:47:51Z</time>
      </trkpt>
      <trkpt lat="28.38283" lon="83.60764">
        <ele>2007.37</ele>
        <time>2013-10-27T04:48:10Z</time>
      </trkpt>
      <trkpt lat="28.38279" lon="83.60768">
        <ele>2009.29</ele>
        <time>2013-10-27T04:48:28Z</time>
      </trkpt>
      <trkpt lat="28.38278" lon="83.6077">
        <ele>2010.73</ele>
        <time>2013-10-27T04:48:48Z</time>
      </trkpt>
      <trkpt lat="28.38279" lon="83.60776">
        <ele>2013.14</ele>
        <time>2013-10-27T04:49:05Z</time>
      </trkpt>
      <trkpt lat="28.38278" lon="83.60778">
        <ele>2015.06</ele>
        <time>2013-10-27T04:49:24Z</time>
      </trkpt>
      <trkpt lat="28.38273" lon="83.60781">
        <ele>2017.46</ele>
        <time>2013-10-27T04:49:42Z</time>
      </trkpt>
      <trkpt lat="28.38274" lon="83.60784">
        <ele>2017.94</ele>
        <time>2013-10-27T04:50:03Z</time>
      </trkpt>
      <trkpt lat="28.38276" lon="83.60796">
        <ele>2019.39</ele>
        <time>2013-10-27T04:50:17Z</time>
      </trkpt>
      <trkpt lat="28.3827" lon="83.60795">
        <ele>2019.39</ele>
        <time>2013-10-27T04:50:32Z</time>
      </trkpt>
      <trkpt lat="28.38264" lon="83.60797">
        <ele>2019.87</ele>
        <time>2013-10-27T04:50:45Z</time>
      </trkpt>
      <trkpt lat="28.38262" lon="83.60798">
        <ele>2020.35</ele>
        <time>2013-10-27T04:50:47Z</time>
      </trkpt>
      <trkpt lat="28.38258" lon="83.60801">
        <ele>2023.23</ele>
        <time>2013-10-27T04:51:03Z</time>
      </trkpt>
      <trkpt lat="28.38259" lon="83.60806">
        <ele>2026.12</ele>
        <time>2013-10-27T04:51:18Z</time>
      </trkpt>
      <trkpt lat="28.38256" lon="83.60808">
        <ele>2029</ele>
        <time>2013-10-27T04:51:34Z</time>
      </trkpt>
      <trkpt lat="28.38254" lon="83.60812">
        <ele>2030.92</ele>
        <time>2013-10-27T04:51:46Z</time>
      </trkpt>
      <trkpt lat="28.38252" lon="83.60815">
        <ele>2033.81</ele>
        <time>2013-10-27T04:52:03Z</time>
      </trkpt>
      <trkpt lat="28.38249" lon="83.60819">
        <ele>2036.69</ele>
        <time>2013-10-27T04:52:19Z</time>
      </trkpt>
      <trkpt lat="28.38245" lon="83.60824">
        <ele>2038.13</ele>
        <time>2013-10-27T04:52:31Z</time>
      </trkpt>
      <trkpt lat="28.38241" lon="83.60832">
        <ele>2040.05</ele>
        <time>2013-10-27T04:52:44Z</time>
      </trkpt>
      <trkpt lat="28.38236" lon="83.60837">
        <ele>2041.98</ele>
        <time>2013-10-27T04:52:57Z</time>
      </trkpt>
      <trkpt lat="28.38237" lon="83.60841">
        <ele>2041.5</ele>
        <time>2013-10-27T04:53:13Z</time>
      </trkpt>
      <trkpt lat="28.38236" lon="83.6084">
        <ele>2041.5</ele>
        <time>2013-10-27T04:53:29Z</time>
      </trkpt>
      <trkpt lat="28.38237" lon="83.60843">
        <ele>2041.98</ele>
        <time>2013-10-27T04:54:03Z</time>
      </trkpt>
      <trkpt lat="28.38242" lon="83.60836">
        <ele>2040.54</ele>
        <time>2013-10-27T04:54:15Z</time>
      </trkpt>
      <trkpt lat="28.38242" lon="83.60837">
        <ele>2041.02</ele>
        <time>2013-10-27T04:54:41Z</time>
      </trkpt>
      <trkpt lat="28.38236" lon="83.60841">
        <ele>2042.46</ele>
        <time>2013-10-27T04:54:53Z</time>
      </trkpt>
      <trkpt lat="28.38237" lon="83.6084">
        <ele>2041.98</ele>
        <time>2013-10-27T04:55:10Z</time>
      </trkpt>
      <trkpt lat="28.38235" lon="83.60842">
        <ele>2042.46</ele>
        <time>2013-10-27T04:55:39Z</time>
      </trkpt>
      <trkpt lat="28.38237" lon="83.60841">
        <ele>2042.46</ele>
        <time>2013-10-27T04:56:12Z</time>
      </trkpt>
      <trkpt lat="28.38237" lon="83.60842">
        <ele>2042.94</ele>
        <time>2013-10-27T04:56:46Z</time>
      </trkpt>
      <trkpt lat="28.38237" lon="83.60843">
        <ele>2042.94</ele>
        <time>2013-10-27T04:57:16Z</time>
      </trkpt>
      <trkpt lat="28.38237" lon="83.60843">
        <ele>2041.98</ele>
        <time>2013-10-27T04:57:52Z</time>
      </trkpt>
      <trkpt lat="28.38237" lon="83.60843">
        <ele>2045.82</ele>
        <time>2013-10-27T04:57:53Z</time>
      </trkpt>
      <trkpt lat="28.38237" lon="83.60843">
        <ele>2045.34</ele>
        <time>2013-10-27T04:57:54Z</time>
      </trkpt>
      <trkpt lat="28.38237" lon="83.60843">
        <ele>2043.9</ele>
        <time>2013-10-27T04:57:56Z</time>
      </trkpt>
      <trkpt lat="28.38236" lon="83.60843">
        <ele>2043.9</ele>
        <time>2013-10-27T04:58:12Z</time>
      </trkpt>
      <trkpt lat="28.38237" lon="83.60842">
        <ele>2043.9</ele>
        <time>2013-10-27T04:58:27Z</time>
      </trkpt>
      <trkpt lat="28.38237" lon="83.60842">
        <ele>2045.82</ele>
        <time>2013-10-27T04:58:28Z</time>
      </trkpt>
      <trkpt lat="28.38236" lon="83.60842">
        <ele>2043.9</ele>
        <time>2013-10-27T04:58:29Z</time>
      </trkpt>
      <trkpt lat="28.38236" lon="83.60842">
        <ele>2041.02</ele>
        <time>2013-10-27T04:58:32Z</time>
      </trkpt>
      <trkpt lat="28.38236" lon="83.60842">
        <ele>2045.82</ele>
        <time>2013-10-27T04:58:33Z</time>
      </trkpt>
      <trkpt lat="28.38236" lon="83.60842">
        <ele>2041.5</ele>
        <time>2013-10-27T04:58:34Z</time>
      </trkpt>
      <trkpt lat="28.38236" lon="83.60842">
        <ele>2045.34</ele>
        <time>2013-10-27T04:58:35Z</time>
      </trkpt>
      <trkpt lat="28.38235" lon="83.60842">
        <ele>2043.42</ele>
        <time>2013-10-27T04:58:59Z</time>
      </trkpt>
      <trkpt lat="28.38236" lon="83.60843">
        <ele>2043.9</ele>
        <time>2013-10-27T04:59:27Z</time>
      </trkpt>
      <trkpt lat="28.38237" lon="83.60844">
        <ele>2043.42</ele>
        <time>2013-10-27T04:59:45Z</time>
      </trkpt>
      <trkpt lat="28.38237" lon="83.60843">
        <ele>2043.9</ele>
        <time>2013-10-27T05:00:04Z</time>
      </trkpt>
      <trkpt lat="28.38237" lon="83.60842">
        <ele>2044.38</ele>
        <time>2013-10-27T05:00:36Z</time>
      </trkpt>
      <trkpt lat="28.38237" lon="83.60842">
        <ele>2044.38</ele>
        <time>2013-10-27T05:01:03Z</time>
      </trkpt>
      <trkpt lat="28.38238" lon="83.60842">
        <ele>2044.38</ele>
        <time>2013-10-27T05:01:28Z</time>
      </trkpt>
      <trkpt lat="28.38238" lon="83.60841">
        <ele>2044.86</ele>
        <time>2013-10-27T05:01:55Z</time>
      </trkpt>
      <trkpt lat="28.38237" lon="83.60841">
        <ele>2044.86</ele>
        <time>2013-10-27T05:02:20Z</time>
      </trkpt>
      <trkpt lat="28.38237" lon="83.6084">
        <ele>2044.38</ele>
        <time>2013-10-27T05:02:43Z</time>
      </trkpt>
      <trkpt lat="28.38237" lon="83.6084">
        <ele>2044.86</ele>
        <time>2013-10-27T05:03:00Z</time>
      </trkpt>
      <trkpt lat="28.38238" lon="83.6084">
        <ele>2044.86</ele>
        <time>2013-10-27T05:03:22Z</time>
      </trkpt>
      <trkpt lat="28.38238" lon="83.6084">
        <ele>2044.86</ele>
        <time>2013-10-27T05:03:54Z</time>
      </trkpt>
      <trkpt lat="28.38238" lon="83.6084">
        <ele>2045.34</ele>
        <time>2013-10-27T05:04:20Z</time>
      </trkpt>
      <trkpt lat="28.38241" lon="83.60841">
        <ele>2045.34</ele>
        <time>2013-10-27T05:04:40Z</time>
      </trkpt>
      <trkpt lat="28.38239" lon="83.60842">
        <ele>2045.34</ele>
        <time>2013-10-27T05:05:04Z</time>
      </trkpt>
      <trkpt lat="28.38238" lon="83.6084">
        <ele>2045.34</ele>
        <time>2013-10-27T05:05:33Z</time>
      </trkpt>
      <trkpt lat="28.38238" lon="83.6084">
        <ele>2045.34</ele>
        <time>2013-10-27T05:06:02Z</time>
      </trkpt>
      <trkpt lat="28.38235" lon="83.6084">
        <ele>2045.34</ele>
        <time>2013-10-27T05:06:29Z</time>
      </trkpt>
      <trkpt lat="28.38236" lon="83.60841">
        <ele>2045.82</ele>
        <time>2013-10-27T05:06:59Z</time>
      </trkpt>
      <trkpt lat="28.38237" lon="83.60842">
        <ele>2045.82</ele>
        <time>2013-10-27T05:07:26Z</time>
      </trkpt>
      <trkpt lat="28.38236" lon="83.60842">
        <ele>2045.82</ele>
        <time>2013-10-27T05:07:42Z</time>
      </trkpt>
      <trkpt lat="28.38234" lon="83.60842">
        <ele>2045.82</ele>
        <time>2013-10-27T05:07:54Z</time>
      </trkpt>
      <trkpt lat="28.38228" lon="83.60843">
        <ele>2046.3</ele>
        <time>2013-10-27T05:08:03Z</time>
      </trkpt>
      <trkpt lat="28.38216" lon="83.60842">
        <ele>2046.78</ele>
        <time>2013-10-27T05:08:18Z</time>
      </trkpt>
      <trkpt lat="28.38203" lon="83.60838">
        <ele>2048.71</ele>
        <time>2013-10-27T05:08:33Z</time>
      </trkpt>
      <trkpt lat="28.38194" lon="83.60839">
        <ele>2050.15</ele>
        <time>2013-10-27T05:08:41Z</time>
      </trkpt>
      <trkpt lat="28.38183" lon="83.60841">
        <ele>2051.11</ele>
        <time>2013-10-27T05:08:54Z</time>
      </trkpt>
      <trkpt lat="28.38175" lon="83.60845">
        <ele>2053.03</ele>
        <time>2013-10-27T05:09:08Z</time>
      </trkpt>
      <trkpt lat="28.38167" lon="83.60846">
        <ele>2054.47</ele>
        <time>2013-10-27T05:09:22Z</time>
      </trkpt>
      <trkpt lat="28.38164" lon="83.60847">
        <ele>2057.36</ele>
        <time>2013-10-27T05:09:38Z</time>
      </trkpt>
      <trkpt lat="28.3816" lon="83.60851">
        <ele>2058.8</ele>
        <time>2013-10-27T05:09:48Z</time>
      </trkpt>
      <trkpt lat="28.38154" lon="83.60852">
        <ele>2061.2</ele>
        <time>2013-10-27T05:09:59Z</time>
      </trkpt>
      <trkpt lat="28.38151" lon="83.60854">
        <ele>2061.68</ele>
        <time>2013-10-27T05:10:22Z</time>
      </trkpt>
      <trkpt lat="28.38148" lon="83.60856">
        <ele>2063.13</ele>
        <time>2013-10-27T05:10:35Z</time>
      </trkpt>
      <trkpt lat="28.3815" lon="83.60859">
        <ele>2065.05</ele>
        <time>2013-10-27T05:10:41Z</time>
      </trkpt>
      <trkpt lat="28.38153" lon="83.60863">
        <ele>2066.01</ele>
        <time>2013-10-27T05:10:55Z</time>
      </trkpt>
      <trkpt lat="28.38151" lon="83.60867">
        <ele>2067.93</ele>
        <time>2013-10-27T05:11:08Z</time>
      </trkpt>
      <trkpt lat="28.38147" lon="83.60873">
        <ele>2070.82</ele>
        <time>2013-10-27T05:11:24Z</time>
      </trkpt>
      <trkpt lat="28.38147" lon="83.60884">
        <ele>2070.82</ele>
        <time>2013-10-27T05:11:35Z</time>
      </trkpt>
      <trkpt lat="28.38149" lon="83.60889">
        <ele>2072.74</ele>
        <time>2013-10-27T05:11:48Z</time>
      </trkpt>
      <trkpt lat="28.38147" lon="83.60888">
        <ele>2073.7</ele>
        <time>2013-10-27T05:12:06Z</time>
      </trkpt>
      <trkpt lat="28.38142" lon="83.60891">
        <ele>2076.1</ele>
        <time>2013-10-27T05:12:19Z</time>
      </trkpt>
      <trkpt lat="28.38137" lon="83.60887">
        <ele>2078.99</ele>
        <time>2013-10-27T05:12:36Z</time>
      </trkpt>
      <trkpt lat="28.38133" lon="83.60883">
        <ele>2080.43</ele>
        <time>2013-10-27T05:12:51Z</time>
      </trkpt>
      <trkpt lat="28.3813" lon="83.60885">
        <ele>2082.83</ele>
        <time>2013-10-27T05:13:06Z</time>
      </trkpt>
      <trkpt lat="28.38132" lon="83.60894">
        <ele>2083.31</ele>
        <time>2013-10-27T05:13:23Z</time>
      </trkpt>
      <trkpt lat="28.38135" lon="83.609">
        <ele>2085.72</ele>
        <time>2013-10-27T05:13:38Z</time>
      </trkpt>
      <trkpt lat="28.38135" lon="83.60907">
        <ele>2087.16</ele>
        <time>2013-10-27T05:13:53Z</time>
      </trkpt>
      <trkpt lat="28.38126" lon="83.60915">
        <ele>2088.12</ele>
        <time>2013-10-27T05:14:06Z</time>
      </trkpt>
      <trkpt lat="28.38122" lon="83.60923">
        <ele>2087.64</ele>
        <time>2013-10-27T05:14:20Z</time>
      </trkpt>
      <trkpt lat="28.38122" lon="83.60933">
        <ele>2085.72</ele>
        <time>2013-10-27T05:14:32Z</time>
      </trkpt>
      <trkpt lat="28.3812" lon="83.60946">
        <ele>2083.79</ele>
        <time>2013-10-27T05:14:44Z</time>
      </trkpt>
      <trkpt lat="28.38116" lon="83.60956">
        <ele>2083.79</ele>
        <time>2013-10-27T05:14:58Z</time>
      </trkpt>
      <trkpt lat="28.38114" lon="83.6097">
        <ele>2083.79</ele>
        <time>2013-10-27T05:15:13Z</time>
      </trkpt>
      <trkpt lat="28.38111" lon="83.60985">
        <ele>2084.76</ele>
        <time>2013-10-27T05:15:28Z</time>
      </trkpt>
      <trkpt lat="28.38112" lon="83.60994">
        <ele>2084.76</ele>
        <time>2013-10-27T05:15:40Z</time>
      </trkpt>
      <trkpt lat="28.38119" lon="83.61002">
        <ele>2082.83</ele>
        <time>2013-10-27T05:15:56Z</time>
      </trkpt>
      <trkpt lat="28.38125" lon="83.6101">
        <ele>2083.79</ele>
        <time>2013-10-27T05:16:06Z</time>
      </trkpt>
      <trkpt lat="28.38122" lon="83.61024">
        <ele>2084.76</ele>
        <time>2013-10-27T05:16:19Z</time>
      </trkpt>
      <trkpt lat="28.38119" lon="83.61037">
        <ele>2086.68</ele>
        <time>2013-10-27T05:16:34Z</time>
      </trkpt>
      <trkpt lat="28.38118" lon="83.61049">
        <ele>2087.64</ele>
        <time>2013-10-27T05:16:48Z</time>
      </trkpt>
      <trkpt lat="28.38122" lon="83.61061">
        <ele>2087.64</ele>
        <time>2013-10-27T05:17:00Z</time>
      </trkpt>
      <trkpt lat="28.38116" lon="83.61068">
        <ele>2089.56</ele>
        <time>2013-10-27T05:17:13Z</time>
      </trkpt>
      <trkpt lat="28.38113" lon="83.61076">
        <ele>2091</ele>
        <time>2013-10-27T05:17:25Z</time>
      </trkpt>
      <trkpt lat="28.38109" lon="83.61085">
        <ele>2092.93</ele>
        <time>2013-10-27T05:17:42Z</time>
      </trkpt>
      <trkpt lat="28.38104" lon="83.61092">
        <ele>2095.81</ele>
        <time>2013-10-27T05:17:56Z</time>
      </trkpt>
      <trkpt lat="28.381" lon="83.61097">
        <ele>2096.29</ele>
        <time>2013-10-27T05:18:10Z</time>
      </trkpt>
      <trkpt lat="28.38096" lon="83.61103">
        <ele>2096.77</ele>
        <time>2013-10-27T05:18:24Z</time>
      </trkpt>
      <trkpt lat="28.38092" lon="83.61104">
        <ele>2096.29</ele>
        <time>2013-10-27T05:18:53Z</time>
      </trkpt>
      <trkpt lat="28.38093" lon="83.61105">
        <ele>2096.77</ele>
        <time>2013-10-27T05:19:23Z</time>
      </trkpt>
      <trkpt lat="28.38093" lon="83.61104">
        <ele>2096.29</ele>
        <time>2013-10-27T05:19:54Z</time>
      </trkpt>
      <trkpt lat="28.38092" lon="83.61104">
        <ele>2096.77</ele>
        <time>2013-10-27T05:20:18Z</time>
      </trkpt>
      <trkpt lat="28.38092" lon="83.61104">
        <ele>2096.77</ele>
        <time>2013-10-27T05:20:42Z</time>
      </trkpt>
      <trkpt lat="28.38091" lon="83.61104">
        <ele>2096.29</ele>
        <time>2013-10-27T05:21:03Z</time>
      </trkpt>
      <trkpt lat="28.38091" lon="83.61103">
        <ele>2096.77</ele>
        <time>2013-10-27T05:21:23Z</time>
      </trkpt>
      <trkpt lat="28.38091" lon="83.61106">
        <ele>2096.29</ele>
        <time>2013-10-27T05:21:46Z</time>
      </trkpt>
      <trkpt lat="28.38085" lon="83.61104">
        <ele>2099.18</ele>
        <time>2013-10-27T05:22:00Z</time>
      </trkpt>
      <trkpt lat="28.38074" lon="83.61099">
        <ele>2101.1</ele>
        <time>2013-10-27T05:22:14Z</time>
      </trkpt>
      <trkpt lat="28.38066" lon="83.61097">
        <ele>2103.02</ele>
        <time>2013-10-27T05:22:29Z</time>
      </trkpt>
      <trkpt lat="28.38058" lon="83.61098">
        <ele>2104.46</ele>
        <time>2013-10-27T05:22:43Z</time>
      </trkpt>
      <trkpt lat="28.38045" lon="83.61099">
        <ele>2105.91</ele>
        <time>2013-10-27T05:22:56Z</time>
      </trkpt>
      <trkpt lat="28.38038" lon="83.61101">
        <ele>2107.35</ele>
        <time>2013-10-27T05:23:10Z</time>
      </trkpt>
      <trkpt lat="28.38027" lon="83.61102">
        <ele>2107.83</ele>
        <time>2013-10-27T05:23:23Z</time>
      </trkpt>
      <trkpt lat="28.38021" lon="83.61104">
        <ele>2107.83</ele>
        <time>2013-10-27T05:23:29Z</time>
      </trkpt>
      <trkpt lat="28.38012" lon="83.61113">
        <ele>2109.75</ele>
        <time>2013-10-27T05:23:42Z</time>
      </trkpt>
      <trkpt lat="28.37998" lon="83.61116">
        <ele>2111.67</ele>
        <time>2013-10-27T05:23:57Z</time>
      </trkpt>
      <trkpt lat="28.37985" lon="83.61112">
        <ele>2114.08</ele>
        <time>2013-10-27T05:24:12Z</time>
      </trkpt>
      <trkpt lat="28.37981" lon="83.61111">
        <ele>2114.56</ele>
        <time>2013-10-27T05:24:16Z</time>
      </trkpt>
      <trkpt lat="28.37973" lon="83.61112">
        <ele>2116</ele>
        <time>2013-10-27T05:24:28Z</time>
      </trkpt>
      <trkpt lat="28.37965" lon="83.6111">
        <ele>2117.44</ele>
        <time>2013-10-27T05:24:39Z</time>
      </trkpt>
      <trkpt lat="28.37961" lon="83.61112">
        <ele>2116.96</ele>
        <time>2013-10-27T05:24:52Z</time>
      </trkpt>
      <trkpt lat="28.37953" lon="83.61112">
        <ele>2116.48</ele>
        <time>2013-10-27T05:25:07Z</time>
      </trkpt>
      <trkpt lat="28.37951" lon="83.61113">
        <ele>2116.48</ele>
        <time>2013-10-27T05:25:09Z</time>
      </trkpt>
      <trkpt lat="28.37947" lon="83.61115">
        <ele>2116.48</ele>
        <time>2013-10-27T05:25:13Z</time>
      </trkpt>
      <trkpt lat="28.37935" lon="83.61119">
        <ele>2115.52</ele>
        <time>2013-10-27T05:25:27Z</time>
      </trkpt>
      <trkpt lat="28.37922" lon="83.61118">
        <ele>2113.12</ele>
        <time>2013-10-27T05:25:41Z</time>
      </trkpt>
      <trkpt lat="28.3792" lon="83.61117">
        <ele>2112.63</ele>
        <time>2013-10-27T05:25:44Z</time>
      </trkpt>
      <trkpt lat="28.37915" lon="83.6111">
        <ele>2110.71</ele>
        <time>2013-10-27T05:25:53Z</time>
      </trkpt>
      <trkpt lat="28.37906" lon="83.61105">
        <ele>2108.79</ele>
        <time>2013-10-27T05:26:07Z</time>
      </trkpt>
      <trkpt lat="28.37906" lon="83.61106">
        <ele>2108.79</ele>
        <time>2013-10-27T05:26:09Z</time>
      </trkpt>
      <trkpt lat="28.37906" lon="83.61108">
        <ele>2108.31</ele>
        <time>2013-10-27T05:26:11Z</time>
      </trkpt>
      <trkpt lat="28.37909" lon="83.61119">
        <ele>2106.87</ele>
        <time>2013-10-27T05:26:23Z</time>
      </trkpt>
      <trkpt lat="28.37909" lon="83.61119">
        <ele>2106.87</ele>
        <time>2013-10-27T05:26:41Z</time>
      </trkpt>
      <trkpt lat="28.37909" lon="83.61121">
        <ele>2106.39</ele>
        <time>2013-10-27T05:27:02Z</time>
      </trkpt>
      <trkpt lat="28.37904" lon="83.61121">
        <ele>2104.46</ele>
        <time>2013-10-27T05:27:16Z</time>
      </trkpt>
      <trkpt lat="28.37901" lon="83.61123">
        <ele>2102.54</ele>
        <time>2013-10-27T05:27:29Z</time>
      </trkpt>
      <trkpt lat="28.37901" lon="83.61125">
        <ele>2100.14</ele>
        <time>2013-10-27T05:27:41Z</time>
      </trkpt>
      <trkpt lat="28.37899" lon="83.61125">
        <ele>2098.21</ele>
        <time>2013-10-27T05:27:57Z</time>
      </trkpt>
      <trkpt lat="28.37896" lon="83.61129">
        <ele>2095.81</ele>
        <time>2013-10-27T05:28:08Z</time>
      </trkpt>
      <trkpt lat="28.3789" lon="83.61125">
        <ele>2092.45</ele>
        <time>2013-10-27T05:28:20Z</time>
      </trkpt>
      <trkpt lat="28.37882" lon="83.61129">
        <ele>2093.89</ele>
        <time>2013-10-27T05:28:31Z</time>
      </trkpt>
      <trkpt lat="28.37881" lon="83.61129">
        <ele>2093.89</ele>
        <time>2013-10-27T05:28:32Z</time>
      </trkpt>
      <trkpt lat="28.37869" lon="83.6113">
        <ele>2091.49</ele>
        <time>2013-10-27T05:28:47Z</time>
      </trkpt>
      <trkpt lat="28.37862" lon="83.61134">
        <ele>2090.52</ele>
        <time>2013-10-27T05:28:54Z</time>
      </trkpt>
      <trkpt lat="28.37856" lon="83.61137">
        <ele>2090.04</ele>
        <time>2013-10-27T05:29:10Z</time>
      </trkpt>
      <trkpt lat="28.37855" lon="83.61137">
        <ele>2089.56</ele>
        <time>2013-10-27T05:29:36Z</time>
      </trkpt>
      <trkpt lat="28.37854" lon="83.61136">
        <ele>2090.04</ele>
        <time>2013-10-27T05:29:54Z</time>
      </trkpt>
      <trkpt lat="28.37852" lon="83.61136">
        <ele>2090.04</ele>
        <time>2013-10-27T05:30:10Z</time>
      </trkpt>
      <trkpt lat="28.3785" lon="83.61134">
        <ele>2090.04</ele>
        <time>2013-10-27T05:30:39Z</time>
      </trkpt>
      <trkpt lat="28.37843" lon="83.61135">
        <ele>2088.12</ele>
        <time>2013-10-27T05:30:56Z</time>
      </trkpt>
      <trkpt lat="28.37833" lon="83.61137">
        <ele>2085.24</ele>
        <time>2013-10-27T05:31:10Z</time>
      </trkpt>
      <trkpt lat="28.37827" lon="83.61135">
        <ele>2085.24</ele>
        <time>2013-10-27T05:31:23Z</time>
      </trkpt>
      <trkpt lat="28.37827" lon="83.61135">
        <ele>2085.72</ele>
        <time>2013-10-27T05:31:25Z</time>
      </trkpt>
      <trkpt lat="28.37823" lon="83.61136">
        <ele>2085.24</ele>
        <time>2013-10-27T05:31:29Z</time>
      </trkpt>
      <trkpt lat="28.37809" lon="83.61144">
        <ele>2085.24</ele>
        <time>2013-10-27T05:31:42Z</time>
      </trkpt>
      <trkpt lat="28.3781" lon="83.61145">
        <ele>2085.72</ele>
        <time>2013-10-27T05:31:44Z</time>
      </trkpt>
      <trkpt lat="28.37806" lon="83.61148">
        <ele>2087.16</ele>
        <time>2013-10-27T05:31:56Z</time>
      </trkpt>
      <trkpt lat="28.37806" lon="83.6115">
        <ele>2089.08</ele>
        <time>2013-10-27T05:32:11Z</time>
      </trkpt>
      <trkpt lat="28.37808" lon="83.61155">
        <ele>2091</ele>
        <time>2013-10-27T05:32:25Z</time>
      </trkpt>
      <trkpt lat="28.37811" lon="83.61158">
        <ele>2093.41</ele>
        <time>2013-10-27T05:32:42Z</time>
      </trkpt>
      <trkpt lat="28.37816" lon="83.61165">
        <ele>2095.81</ele>
        <time>2013-10-27T05:32:57Z</time>
      </trkpt>
      <trkpt lat="28.37823" lon="83.6118">
        <ele>2097.25</ele>
        <time>2013-10-27T05:33:13Z</time>
      </trkpt>
      <trkpt lat="28.37828" lon="83.61184">
        <ele>2097.25</ele>
        <time>2013-10-27T05:33:16Z</time>
      </trkpt>
      <trkpt lat="28.37844" lon="83.61197">
        <ele>2097.25</ele>
        <time>2013-10-27T05:33:31Z</time>
      </trkpt>
      <trkpt lat="28.37849" lon="83.61201">
        <ele>2097.73</ele>
        <time>2013-10-27T05:33:38Z</time>
      </trkpt>
      <trkpt lat="28.37851" lon="83.61203">
        <ele>2097.73</ele>
        <time>2013-10-27T05:33:41Z</time>
      </trkpt>
      <trkpt lat="28.37853" lon="83.61205">
        <ele>2098.21</ele>
        <time>2013-10-27T05:33:43Z</time>
      </trkpt>
      <trkpt lat="28.37854" lon="83.61223">
        <ele>2100.14</ele>
        <time>2013-10-27T05:33:59Z</time>
      </trkpt>
      <trkpt lat="28.37852" lon="83.61229">
        <ele>2102.06</ele>
        <time>2013-10-27T05:34:13Z</time>
      </trkpt>
      <trkpt lat="28.37844" lon="83.61234">
        <ele>2103.98</ele>
        <time>2013-10-27T05:34:27Z</time>
      </trkpt>
      <trkpt lat="28.37832" lon="83.61241">
        <ele>2104.94</ele>
        <time>2013-10-27T05:34:40Z</time>
      </trkpt>
      <trkpt lat="28.37827" lon="83.61248">
        <ele>2106.87</ele>
        <time>2013-10-27T05:34:52Z</time>
      </trkpt>
      <trkpt lat="28.3782" lon="83.61256">
        <ele>2108.31</ele>
        <time>2013-10-27T05:35:07Z</time>
      </trkpt>
      <trkpt lat="28.37815" lon="83.61263">
        <ele>2109.27</ele>
        <time>2013-10-27T05:35:19Z</time>
      </trkpt>
      <trkpt lat="28.37808" lon="83.61275">
        <ele>2110.23</ele>
        <time>2013-10-27T05:35:33Z</time>
      </trkpt>
      <trkpt lat="28.37803" lon="83.61287">
        <ele>2110.71</ele>
        <time>2013-10-27T05:35:44Z</time>
      </trkpt>
      <trkpt lat="28.37802" lon="83.61288">
        <ele>2111.19</ele>
        <time>2013-10-27T05:35:45Z</time>
      </trkpt>
      <trkpt lat="28.37796" lon="83.613">
        <ele>2112.15</ele>
        <time>2013-10-27T05:35:59Z</time>
      </trkpt>
      <trkpt lat="28.37794" lon="83.61302">
        <ele>2112.15</ele>
        <time>2013-10-27T05:36:01Z</time>
      </trkpt>
      <trkpt lat="28.37789" lon="83.61314">
        <ele>2112.15</ele>
        <time>2013-10-27T05:36:13Z</time>
      </trkpt>
      <trkpt lat="28.37787" lon="83.61329">
        <ele>2112.63</ele>
        <time>2013-10-27T05:36:27Z</time>
      </trkpt>
      <trkpt lat="28.37782" lon="83.6134">
        <ele>2113.12</ele>
        <time>2013-10-27T05:36:39Z</time>
      </trkpt>
      <trkpt lat="28.37784" lon="83.61353">
        <ele>2114.08</ele>
        <time>2013-10-27T05:36:51Z</time>
      </trkpt>
      <trkpt lat="28.37786" lon="83.61364">
        <ele>2115.52</ele>
        <time>2013-10-27T05:37:02Z</time>
      </trkpt>
      <trkpt lat="28.37785" lon="83.6137">
        <ele>2116.96</ele>
        <time>2013-10-27T05:37:10Z</time>
      </trkpt>
      <trkpt lat="28.3779" lon="83.61384">
        <ele>2118.4</ele>
        <time>2013-10-27T05:37:24Z</time>
      </trkpt>
      <trkpt lat="28.37791" lon="83.61388">
        <ele>2117.92</ele>
        <time>2013-10-27T05:37:37Z</time>
      </trkpt>
      <trkpt lat="28.37784" lon="83.61387">
        <ele>2117.92</ele>
        <time>2013-10-27T05:37:45Z</time>
      </trkpt>
      <trkpt lat="28.37782" lon="83.61382">
        <ele>2118.4</ele>
        <time>2013-10-27T05:37:58Z</time>
      </trkpt>
      <trkpt lat="28.37782" lon="83.61382">
        <ele>2118.88</ele>
        <time>2013-10-27T05:38:17Z</time>
      </trkpt>
      <trkpt lat="28.37782" lon="83.61382">
        <ele>2118.4</ele>
        <time>2013-10-27T05:38:42Z</time>
      </trkpt>
      <trkpt lat="28.37784" lon="83.61384">
        <ele>2118.88</ele>
        <time>2013-10-27T05:38:56Z</time>
      </trkpt>
      <trkpt lat="28.37783" lon="83.61384">
        <ele>2118.88</ele>
        <time>2013-10-27T05:39:19Z</time>
      </trkpt>
      <trkpt lat="28.37783" lon="83.61384">
        <ele>2119.36</ele>
        <time>2013-10-27T05:39:44Z</time>
      </trkpt>
      <trkpt lat="28.37785" lon="83.61388">
        <ele>2120.32</ele>
        <time>2013-10-27T05:40:04Z</time>
      </trkpt>
      <trkpt lat="28.37783" lon="83.61386">
        <ele>2119.84</ele>
        <time>2013-10-27T05:40:30Z</time>
      </trkpt>
      <trkpt lat="28.37783" lon="83.61386">
        <ele>2119.84</ele>
        <time>2013-10-27T05:40:49Z</time>
      </trkpt>
      <trkpt lat="28.37783" lon="83.61386">
        <ele>2119.84</ele>
        <time>2013-10-27T05:41:11Z</time>
      </trkpt>
      <trkpt lat="28.37783" lon="83.61386">
        <ele>2120.32</ele>
        <time>2013-10-27T05:41:37Z</time>
      </trkpt>
      <trkpt lat="28.37786" lon="83.61385">
        <ele>2119.84</ele>
        <time>2013-10-27T05:41:46Z</time>
      </trkpt>
      <trkpt lat="28.37789" lon="83.61384">
        <ele>2119.84</ele>
        <time>2013-10-27T05:42:03Z</time>
      </trkpt>
      <trkpt lat="28.37785" lon="83.61385">
        <ele>2119.84</ele>
        <time>2013-10-27T05:42:24Z</time>
      </trkpt>
      <trkpt lat="28.37785" lon="83.61383">
        <ele>2120.81</ele>
        <time>2013-10-27T05:42:39Z</time>
      </trkpt>
      <trkpt lat="28.37783" lon="83.61384">
        <ele>2120.81</ele>
        <time>2013-10-27T05:43:05Z</time>
      </trkpt>
      <trkpt lat="28.37783" lon="83.61385">
        <ele>2120.81</ele>
        <time>2013-10-27T05:43:27Z</time>
      </trkpt>
      <trkpt lat="28.37783" lon="83.61385">
        <ele>2120.81</ele>
        <time>2013-10-27T05:43:53Z</time>
      </trkpt>
      <trkpt lat="28.37783" lon="83.61385">
        <ele>2121.29</ele>
        <time>2013-10-27T05:44:20Z</time>
      </trkpt>
      <trkpt lat="28.37784" lon="83.61383">
        <ele>2121.29</ele>
        <time>2013-10-27T05:44:41Z</time>
      </trkpt>
      <trkpt lat="28.37784" lon="83.61383">
        <ele>2121.29</ele>
        <time>2013-10-27T05:45:11Z</time>
      </trkpt>
      <trkpt lat="28.37784" lon="83.61383">
        <ele>2121.29</ele>
        <time>2013-10-27T05:45:43Z</time>
      </trkpt>
      <trkpt lat="28.37785" lon="83.61383">
        <ele>2121.29</ele>
        <time>2013-10-27T05:46:16Z</time>
      </trkpt>
      <trkpt lat="28.37785" lon="83.61382">
        <ele>2121.29</ele>
        <time>2013-10-27T05:46:49Z</time>
      </trkpt>
      <trkpt lat="28.37785" lon="83.61381">
        <ele>2121.29</ele>
        <time>2013-10-27T05:47:18Z</time>
      </trkpt>
      <trkpt lat="28.37785" lon="83.61381">
        <ele>2122.25</ele>
        <time>2013-10-27T05:47:45Z</time>
      </trkpt>
      <trkpt lat="28.37785" lon="83.61382">
        <ele>2122.25</ele>
        <time>2013-10-27T05:47:58Z</time>
      </trkpt>
      <trkpt lat="28.37789" lon="83.61385">
        <ele>2121.29</ele>
        <time>2013-10-27T05:48:14Z</time>
      </trkpt>
      <trkpt lat="28.37788" lon="83.61386">
        <ele>2121.29</ele>
        <time>2013-10-27T05:48:46Z</time>
      </trkpt>
      <trkpt lat="28.37788" lon="83.61387">
        <ele>2120.81</ele>
        <time>2013-10-27T05:49:05Z</time>
      </trkpt>
      <trkpt lat="28.37785" lon="83.61386">
        <ele>2121.77</ele>
        <time>2013-10-27T05:49:07Z</time>
      </trkpt>
      <trkpt lat="28.37783" lon="83.61382">
        <ele>2122.25</ele>
        <time>2013-10-27T05:49:25Z</time>
      </trkpt>
      <trkpt lat="28.37783" lon="83.61382">
        <ele>2121.77</ele>
        <time>2013-10-27T05:49:49Z</time>
      </trkpt>
      <trkpt lat="28.37784" lon="83.61382">
        <ele>2122.25</ele>
        <time>2013-10-27T05:49:59Z</time>
      </trkpt>
      <trkpt lat="28.37784" lon="83.61386">
        <ele>2122.73</ele>
        <time>2013-10-27T05:50:02Z</time>
      </trkpt>
      <trkpt lat="28.37783" lon="83.61388">
        <ele>2122.25</ele>
        <time>2013-10-27T05:50:04Z</time>
      </trkpt>
      <trkpt lat="28.37778" lon="83.61395">
        <ele>2123.21</ele>
        <time>2013-10-27T05:50:15Z</time>
      </trkpt>
      <trkpt lat="28.3778" lon="83.61391">
        <ele>2121.77</ele>
        <time>2013-10-27T05:50:22Z</time>
      </trkpt>
      <trkpt lat="28.37778" lon="83.61398">
        <ele>2122.73</ele>
        <time>2013-10-27T05:50:29Z</time>
      </trkpt>
      <trkpt lat="28.37764" lon="83.61409">
        <ele>2122.73</ele>
        <time>2013-10-27T05:50:42Z</time>
      </trkpt>
      <trkpt lat="28.37751" lon="83.61417">
        <ele>2121.29</ele>
        <time>2013-10-27T05:50:54Z</time>
      </trkpt>
      <trkpt lat="28.37744" lon="83.61424">
        <ele>2120.81</ele>
        <time>2013-10-27T05:51:01Z</time>
      </trkpt>
      <trkpt lat="28.37736" lon="83.61435">
        <ele>2120.32</ele>
        <time>2013-10-27T05:51:13Z</time>
      </trkpt>
      <trkpt lat="28.37731" lon="83.61439">
        <ele>2120.81</ele>
        <time>2013-10-27T05:51:30Z</time>
      </trkpt>
      <trkpt lat="28.3773" lon="83.61439">
        <ele>2120.32</ele>
        <time>2013-10-27T05:51:47Z</time>
      </trkpt>
      <trkpt lat="28.3773" lon="83.61439">
        <ele>2120.32</ele>
        <time>2013-10-27T05:51:48Z</time>
      </trkpt>
      <trkpt lat="28.37733" lon="83.61437">
        <ele>2120.32</ele>
        <time>2013-10-27T05:52:02Z</time>
      </trkpt>
      <trkpt lat="28.3773" lon="83.61439">
        <ele>2120.32</ele>
        <time>2013-10-27T05:52:20Z</time>
      </trkpt>
      <trkpt lat="28.37731" lon="83.61439">
        <ele>2120.81</ele>
        <time>2013-10-27T05:52:51Z</time>
      </trkpt>
      <trkpt lat="28.3772" lon="83.61447">
        <ele>2121.29</ele>
        <time>2013-10-27T05:53:04Z</time>
      </trkpt>
      <trkpt lat="28.37712" lon="83.61464">
        <ele>2121.29</ele>
        <time>2013-10-27T05:53:20Z</time>
      </trkpt>
      <trkpt lat="28.3771" lon="83.61467">
        <ele>2120.81</ele>
        <time>2013-10-27T05:53:35Z</time>
      </trkpt>
      <trkpt lat="28.37705" lon="83.6147">
        <ele>2120.81</ele>
        <time>2013-10-27T05:53:45Z</time>
      </trkpt>
      <trkpt lat="28.37695" lon="83.61476">
        <ele>2120.32</ele>
        <time>2013-10-27T05:53:55Z</time>
      </trkpt>
      <trkpt lat="28.37685" lon="83.61488">
        <ele>2120.32</ele>
        <time>2013-10-27T05:54:09Z</time>
      </trkpt>
      <trkpt lat="28.37683" lon="83.61497">
        <ele>2121.29</ele>
        <time>2013-10-27T05:54:24Z</time>
      </trkpt>
      <trkpt lat="28.37678" lon="83.6151">
        <ele>2121.29</ele>
        <time>2013-10-27T05:54:38Z</time>
      </trkpt>
      <trkpt lat="28.37674" lon="83.6152">
        <ele>2121.29</ele>
        <time>2013-10-27T05:54:53Z</time>
      </trkpt>
      <trkpt lat="28.37674" lon="83.61522">
        <ele>2121.77</ele>
        <time>2013-10-27T05:55:00Z</time>
      </trkpt>
      <trkpt lat="28.37671" lon="83.61528">
        <ele>2121.29</ele>
        <time>2013-10-27T05:55:06Z</time>
      </trkpt>
      <trkpt lat="28.37665" lon="83.61546">
        <ele>2121.29</ele>
        <time>2013-10-27T05:55:22Z</time>
      </trkpt>
      <trkpt lat="28.37664" lon="83.61547">
        <ele>2121.29</ele>
        <time>2013-10-27T05:55:24Z</time>
      </trkpt>
      <trkpt lat="28.37662" lon="83.61548">
        <ele>2121.29</ele>
        <time>2013-10-27T05:55:26Z</time>
      </trkpt>
      <trkpt lat="28.3766" lon="83.6155">
        <ele>2120.81</ele>
        <time>2013-10-27T05:55:28Z</time>
      </trkpt>
      <trkpt lat="28.37643" lon="83.61556">
        <ele>2119.36</ele>
        <time>2013-10-27T05:55:45Z</time>
      </trkpt>
      <trkpt lat="28.37638" lon="83.61563">
        <ele>2119.36</ele>
        <time>2013-10-27T05:55:55Z</time>
      </trkpt>
      <trkpt lat="28.37632" lon="83.61576">
        <ele>2118.4</ele>
        <time>2013-10-27T05:56:09Z</time>
      </trkpt>
      <trkpt lat="28.37641" lon="83.61587">
        <ele>2117.92</ele>
        <time>2013-10-27T05:56:25Z</time>
      </trkpt>
      <trkpt lat="28.37655" lon="83.61596">
        <ele>2118.4</ele>
        <time>2013-10-27T05:56:41Z</time>
      </trkpt>
      <trkpt lat="28.37655" lon="83.61595">
        <ele>2118.4</ele>
        <time>2013-10-27T05:57:01Z</time>
      </trkpt>
      <trkpt lat="28.37654" lon="83.61595">
        <ele>2118.4</ele>
        <time>2013-10-27T05:57:25Z</time>
      </trkpt>
      <trkpt lat="28.37659" lon="83.61602">
        <ele>2118.88</ele>
        <time>2013-10-27T05:57:47Z</time>
      </trkpt>
      <trkpt lat="28.37654" lon="83.61613">
        <ele>2120.32</ele>
        <time>2013-10-27T05:58:03Z</time>
      </trkpt>
      <trkpt lat="28.37649" lon="83.61623">
        <ele>2119.84</ele>
        <time>2013-10-27T05:58:17Z</time>
      </trkpt>
      <trkpt lat="28.37642" lon="83.61632">
        <ele>2119.84</ele>
        <time>2013-10-27T05:58:31Z</time>
      </trkpt>
      <trkpt lat="28.37636" lon="83.61638">
        <ele>2120.81</ele>
        <time>2013-10-27T05:58:45Z</time>
      </trkpt>
      <trkpt lat="28.37626" lon="83.61645">
        <ele>2120.81</ele>
        <time>2013-10-27T05:59:02Z</time>
      </trkpt>
      <trkpt lat="28.37625" lon="83.61646">
        <ele>2120.81</ele>
        <time>2013-10-27T05:59:04Z</time>
      </trkpt>
      <trkpt lat="28.37617" lon="83.61654">
        <ele>2120.32</ele>
        <time>2013-10-27T05:59:20Z</time>
      </trkpt>
      <trkpt lat="28.37612" lon="83.61657">
        <ele>2122.25</ele>
        <time>2013-10-27T05:59:38Z</time>
      </trkpt>
      <trkpt lat="28.37606" lon="83.6166">
        <ele>2125.61</ele>
        <time>2013-10-27T05:59:57Z</time>
      </trkpt>
      <trkpt lat="28.376" lon="83.61661">
        <ele>2124.65</ele>
        <time>2013-10-27T06:00:13Z</time>
      </trkpt>
      <trkpt lat="28.37587" lon="83.61664">
        <ele>2125.13</ele>
        <time>2013-10-27T06:00:26Z</time>
      </trkpt>
      <trkpt lat="28.37586" lon="83.61665">
        <ele>2125.13</ele>
        <time>2013-10-27T06:00:27Z</time>
      </trkpt>
      <trkpt lat="28.37579" lon="83.61679">
        <ele>2125.61</ele>
        <time>2013-10-27T06:00:41Z</time>
      </trkpt>
      <trkpt lat="28.37578" lon="83.61689">
        <ele>2126.09</ele>
        <time>2013-10-27T06:00:55Z</time>
      </trkpt>
      <trkpt lat="28.37576" lon="83.61694">
        <ele>2125.61</ele>
        <time>2013-10-27T06:01:05Z</time>
      </trkpt>
      <trkpt lat="28.37576" lon="83.61697">
        <ele>2125.61</ele>
        <time>2013-10-27T06:01:22Z</time>
      </trkpt>
      <trkpt lat="28.37576" lon="83.61705">
        <ele>2125.61</ele>
        <time>2013-10-27T06:01:33Z</time>
      </trkpt>
      <trkpt lat="28.37576" lon="83.61707">
        <ele>2125.13</ele>
        <time>2013-10-27T06:01:52Z</time>
      </trkpt>
      <trkpt lat="28.37574" lon="83.61707">
        <ele>2125.61</ele>
        <time>2013-10-27T06:02:17Z</time>
      </trkpt>
      <trkpt lat="28.37574" lon="83.61709">
        <ele>2125.13</ele>
        <time>2013-10-27T06:02:36Z</time>
      </trkpt>
      <trkpt lat="28.37575" lon="83.61712">
        <ele>2126.09</ele>
        <time>2013-10-27T06:02:57Z</time>
      </trkpt>
      <trkpt lat="28.37576" lon="83.61724">
        <ele>2125.13</ele>
        <time>2013-10-27T06:03:11Z</time>
      </trkpt>
      <trkpt lat="28.37577" lon="83.61734">
        <ele>2124.17</ele>
        <time>2013-10-27T06:03:24Z</time>
      </trkpt>
      <trkpt lat="28.37576" lon="83.61733">
        <ele>2124.65</ele>
        <time>2013-10-27T06:03:59Z</time>
      </trkpt>
      <trkpt lat="28.37575" lon="83.61734">
        <ele>2124.65</ele>
        <time>2013-10-27T06:04:07Z</time>
      </trkpt>
      <trkpt lat="28.37573" lon="83.6175">
        <ele>2125.13</ele>
        <time>2013-10-27T06:04:23Z</time>
      </trkpt>
      <trkpt lat="28.37559" lon="83.61756">
        <ele>2125.13</ele>
        <time>2013-10-27T06:04:37Z</time>
      </trkpt>
      <trkpt lat="28.37547" lon="83.61758">
        <ele>2121.77</ele>
        <time>2013-10-27T06:04:53Z</time>
      </trkpt>
      <trkpt lat="28.37547" lon="83.6176">
        <ele>2125.61</ele>
        <time>2013-10-27T06:05:00Z</time>
      </trkpt>
      <trkpt lat="28.37548" lon="83.61759">
        <ele>2120.81</ele>
        <time>2013-10-27T06:05:02Z</time>
      </trkpt>
      <trkpt lat="28.37548" lon="83.61759">
        <ele>2128.02</ele>
        <time>2013-10-27T06:05:03Z</time>
      </trkpt>
      <trkpt lat="28.37549" lon="83.61759">
        <ele>2124.65</ele>
        <time>2013-10-27T06:05:04Z</time>
      </trkpt>
      <trkpt lat="28.37551" lon="83.61766">
        <ele>2127.53</ele>
        <time>2013-10-27T06:05:14Z</time>
      </trkpt>
      <trkpt lat="28.37555" lon="83.61772">
        <ele>2128.98</ele>
        <time>2013-10-27T06:05:32Z</time>
      </trkpt>
      <trkpt lat="28.37555" lon="83.61775">
        <ele>2129.46</ele>
        <time>2013-10-27T06:05:35Z</time>
      </trkpt>
      <trkpt lat="28.37551" lon="83.61783">
        <ele>2129.94</ele>
        <time>2013-10-27T06:05:45Z</time>
      </trkpt>
      <trkpt lat="28.37548" lon="83.61788">
        <ele>2130.9</ele>
        <time>2013-10-27T06:06:00Z</time>
      </trkpt>
      <trkpt lat="28.37545" lon="83.61784">
        <ele>2132.34</ele>
        <time>2013-10-27T06:06:12Z</time>
      </trkpt>
      <trkpt lat="28.37543" lon="83.61782">
        <ele>2133.3</ele>
        <time>2013-10-27T06:06:22Z</time>
      </trkpt>
      <trkpt lat="28.37539" lon="83.61786">
        <ele>2133.78</ele>
        <time>2013-10-27T06:06:27Z</time>
      </trkpt>
      <trkpt lat="28.37536" lon="83.61787">
        <ele>2133.78</ele>
        <time>2013-10-27T06:06:30Z</time>
      </trkpt>
      <trkpt lat="28.3753" lon="83.61789">
        <ele>2129.46</ele>
        <time>2013-10-27T06:06:41Z</time>
      </trkpt>
      <trkpt lat="28.3753" lon="83.61789">
        <ele>2131.86</ele>
        <time>2013-10-27T06:06:42Z</time>
      </trkpt>
      <trkpt lat="28.3753" lon="83.61789">
        <ele>2139.55</ele>
        <time>2013-10-27T06:06:43Z</time>
      </trkpt>
      <trkpt lat="28.3753" lon="83.61789">
        <ele>2134.74</ele>
        <time>2013-10-27T06:06:44Z</time>
      </trkpt>
      <trkpt lat="28.3753" lon="83.61789">
        <ele>2133.78</ele>
        <time>2013-10-27T06:06:46Z</time>
      </trkpt>
      <trkpt lat="28.37529" lon="83.6179">
        <ele>2133.78</ele>
        <time>2013-10-27T06:07:03Z</time>
      </trkpt>
      <trkpt lat="28.37532" lon="83.61797">
        <ele>2133.78</ele>
        <time>2013-10-27T06:07:17Z</time>
      </trkpt>
      <trkpt lat="28.37533" lon="83.61798">
        <ele>2134.26</ele>
        <time>2013-10-27T06:07:37Z</time>
      </trkpt>
      <trkpt lat="28.37531" lon="83.61797">
        <ele>2134.26</ele>
        <time>2013-10-27T06:07:58Z</time>
      </trkpt>
      <trkpt lat="28.37527" lon="83.618">
        <ele>2133.78</ele>
        <time>2013-10-27T06:08:02Z</time>
      </trkpt>
      <trkpt lat="28.37522" lon="83.61803">
        <ele>2133.78</ele>
        <time>2013-10-27T06:08:19Z</time>
      </trkpt>
      <trkpt lat="28.37523" lon="83.61804">
        <ele>2134.26</ele>
        <time>2013-10-27T06:08:53Z</time>
      </trkpt>
      <trkpt lat="28.37527" lon="83.61798">
        <ele>2134.74</ele>
        <time>2013-10-27T06:09:16Z</time>
      </trkpt>
      <trkpt lat="28.37529" lon="83.61791">
        <ele>2134.26</ele>
        <time>2013-10-27T06:09:37Z</time>
      </trkpt>
      <trkpt lat="28.37528" lon="83.61793">
        <ele>2134.74</ele>
        <time>2013-10-27T06:09:56Z</time>
      </trkpt>
      <trkpt lat="28.3753" lon="83.61791">
        <ele>2134.74</ele>
        <time>2013-10-27T06:10:11Z</time>
      </trkpt>
      <trkpt lat="28.3753" lon="83.6179">
        <ele>2134.26</ele>
        <time>2013-10-27T06:10:40Z</time>
      </trkpt>
      <trkpt lat="28.3753" lon="83.61789">
        <ele>2134.26</ele>
        <time>2013-10-27T06:11:08Z</time>
      </trkpt>
      <trkpt lat="28.3753" lon="83.6179">
        <ele>2135.23</ele>
        <time>2013-10-27T06:11:27Z</time>
      </trkpt>
      <trkpt lat="28.37529" lon="83.61793">
        <ele>2134.74</ele>
        <time>2013-10-27T06:11:35Z</time>
      </trkpt>
      <trkpt lat="28.37527" lon="83.61793">
        <ele>2135.23</ele>
        <time>2013-10-27T06:11:49Z</time>
      </trkpt>
      <trkpt lat="28.37528" lon="83.61793">
        <ele>2135.23</ele>
        <time>2013-10-27T06:12:14Z</time>
      </trkpt>
      <trkpt lat="28.37528" lon="83.61793">
        <ele>2135.23</ele>
        <time>2013-10-27T06:12:41Z</time>
      </trkpt>
      <trkpt lat="28.3753" lon="83.61792">
        <ele>2135.23</ele>
        <time>2013-10-27T06:13:04Z</time>
      </trkpt>
      <trkpt lat="28.3753" lon="83.61791">
        <ele>2135.23</ele>
        <time>2013-10-27T06:13:24Z</time>
      </trkpt>
      <trkpt lat="28.3753" lon="83.61791">
        <ele>2135.71</ele>
        <time>2013-10-27T06:13:49Z</time>
      </trkpt>
      <trkpt lat="28.37532" lon="83.61792">
        <ele>2135.71</ele>
        <time>2013-10-27T06:14:16Z</time>
      </trkpt>
      <trkpt lat="28.37534" lon="83.61792">
        <ele>2136.19</ele>
        <time>2013-10-27T06:14:42Z</time>
      </trkpt>
      <trkpt lat="28.37534" lon="83.61791">
        <ele>2136.19</ele>
        <time>2013-10-27T06:14:49Z</time>
      </trkpt>
      <trkpt lat="28.37535" lon="83.6179">
        <ele>2136.19</ele>
        <time>2013-10-27T06:15:07Z</time>
      </trkpt>
      <trkpt lat="28.37535" lon="83.6179">
        <ele>2136.19</ele>
        <time>2013-10-27T06:15:24Z</time>
      </trkpt>
      <trkpt lat="28.37534" lon="83.6179">
        <ele>2136.67</ele>
        <time>2013-10-27T06:15:56Z</time>
      </trkpt>
      <trkpt lat="28.37531" lon="83.61794">
        <ele>2136.67</ele>
        <time>2013-10-27T06:16:22Z</time>
      </trkpt>
      <trkpt lat="28.3753" lon="83.61796">
        <ele>2136.67</ele>
        <time>2013-10-27T06:16:33Z</time>
      </trkpt>
      <trkpt lat="28.3753" lon="83.61797">
        <ele>2136.67</ele>
        <time>2013-10-27T06:17:00Z</time>
      </trkpt>
      <trkpt lat="28.37529" lon="83.61797">
        <ele>2136.67</ele>
        <time>2013-10-27T06:17:32Z</time>
      </trkpt>
      <trkpt lat="28.37529" lon="83.61797">
        <ele>2136.19</ele>
        <time>2013-10-27T06:18:05Z</time>
      </trkpt>
      <trkpt lat="28.37529" lon="83.61797">
        <ele>2136.67</ele>
        <time>2013-10-27T06:18:35Z</time>
      </trkpt>
      <trkpt lat="28.37528" lon="83.61797">
        <ele>2137.15</ele>
        <time>2013-10-27T06:19:07Z</time>
      </trkpt>
      <trkpt lat="28.37528" lon="83.61796">
        <ele>2137.15</ele>
        <time>2013-10-27T06:19:24Z</time>
      </trkpt>
      <trkpt lat="28.37528" lon="83.61799">
        <ele>2137.15</ele>
        <time>2013-10-27T06:19:32Z</time>
      </trkpt>
      <trkpt lat="28.37526" lon="83.61803">
        <ele>2137.63</ele>
        <time>2013-10-27T06:19:46Z</time>
      </trkpt>
      <trkpt lat="28.37525" lon="83.61802">
        <ele>2137.63</ele>
        <time>2013-10-27T06:20:03Z</time>
      </trkpt>
      <trkpt lat="28.37526" lon="83.61804">
        <ele>2137.63</ele>
        <time>2013-10-27T06:20:25Z</time>
      </trkpt>
      <trkpt lat="28.37528" lon="83.61804">
        <ele>2137.15</ele>
        <time>2013-10-27T06:20:49Z</time>
      </trkpt>
      <trkpt lat="28.37527" lon="83.61805">
        <ele>2137.63</ele>
        <time>2013-10-27T06:21:11Z</time>
      </trkpt>
      <trkpt lat="28.37525" lon="83.61805">
        <ele>2137.63</ele>
        <time>2013-10-27T06:21:30Z</time>
      </trkpt>
      <trkpt lat="28.37525" lon="83.61805">
        <ele>2136.19</ele>
        <time>2013-10-27T06:21:34Z</time>
      </trkpt>
      <trkpt lat="28.37525" lon="83.61805">
        <ele>2140.03</ele>
        <time>2013-10-27T06:21:35Z</time>
      </trkpt>
      <trkpt lat="28.37525" lon="83.61805">
        <ele>2137.15</ele>
        <time>2013-10-27T06:21:36Z</time>
      </trkpt>
      <trkpt lat="28.3752" lon="83.61799">
        <ele>2137.15</ele>
        <time>2013-10-27T06:21:56Z</time>
      </trkpt>
      <trkpt lat="28.37513" lon="83.61799">
        <ele>2137.63</ele>
        <time>2013-10-27T06:22:16Z</time>
      </trkpt>
      <trkpt lat="28.37519" lon="83.61801">
        <ele>2137.63</ele>
        <time>2013-10-27T06:22:36Z</time>
      </trkpt>
      <trkpt lat="28.37516" lon="83.61796">
        <ele>2137.15</ele>
        <time>2013-10-27T06:22:55Z</time>
      </trkpt>
      <trkpt lat="28.37517" lon="83.61803">
        <ele>2137.15</ele>
        <time>2013-10-27T06:23:15Z</time>
      </trkpt>
      <trkpt lat="28.37521" lon="83.61804">
        <ele>2137.15</ele>
        <time>2013-10-27T06:23:37Z</time>
      </trkpt>
      <trkpt lat="28.37523" lon="83.61801">
        <ele>2137.15</ele>
        <time>2013-10-27T06:24:01Z</time>
      </trkpt>
      <trkpt lat="28.37529" lon="83.61805">
        <ele>2137.15</ele>
        <time>2013-10-27T06:24:26Z</time>
      </trkpt>
      <trkpt lat="28.37532" lon="83.61809">
        <ele>2137.15</ele>
        <time>2013-10-27T06:24:37Z</time>
      </trkpt>
      <trkpt lat="28.37549" lon="83.61823">
        <ele>2137.63</ele>
        <time>2013-10-27T06:24:57Z</time>
      </trkpt>
      <trkpt lat="28.37549" lon="83.61825">
        <ele>2137.63</ele>
        <time>2013-10-27T06:25:15Z</time>
      </trkpt>
      <trkpt lat="28.37541" lon="83.61819">
        <ele>2137.63</ele>
        <time>2013-10-27T06:25:38Z</time>
      </trkpt>
      <trkpt lat="28.37535" lon="83.61806">
        <ele>2137.63</ele>
        <time>2013-10-27T06:25:59Z</time>
      </trkpt>
      <trkpt lat="28.37531" lon="83.61801">
        <ele>2137.63</ele>
        <time>2013-10-27T06:26:20Z</time>
      </trkpt>
      <trkpt lat="28.37524" lon="83.61799">
        <ele>2138.11</ele>
        <time>2013-10-27T06:26:38Z</time>
      </trkpt>
      <trkpt lat="28.37518" lon="83.61796">
        <ele>2137.63</ele>
        <time>2013-10-27T06:26:49Z</time>
      </trkpt>
      <trkpt lat="28.37534" lon="83.61807">
        <ele>2138.59</ele>
        <time>2013-10-27T06:27:48Z</time>
      </trkpt>
      <trkpt lat="28.37535" lon="83.61808">
        <ele>2138.59</ele>
        <time>2013-10-27T06:27:51Z</time>
      </trkpt>
      <trkpt lat="28.37527" lon="83.61799">
        <ele>2138.59</ele>
        <time>2013-10-27T06:27:56Z</time>
      </trkpt>
      <trkpt lat="28.37529" lon="83.61793">
        <ele>2138.11</ele>
        <time>2013-10-27T06:28:00Z</time>
      </trkpt>
      <trkpt lat="28.37533" lon="83.61795">
        <ele>2138.11</ele>
        <time>2013-10-27T06:28:16Z</time>
      </trkpt>
      <trkpt lat="28.37535" lon="83.61798">
        <ele>2138.59</ele>
        <time>2013-10-27T06:28:32Z</time>
      </trkpt>
      <trkpt lat="28.37534" lon="83.61796">
        <ele>2138.59</ele>
        <time>2013-10-27T06:28:50Z</time>
      </trkpt>
      <trkpt lat="28.37533" lon="83.61799">
        <ele>2139.07</ele>
        <time>2013-10-27T06:28:56Z</time>
      </trkpt>
      <trkpt lat="28.37526" lon="83.61806">
        <ele>2139.07</ele>
        <time>2013-10-27T06:29:08Z</time>
      </trkpt>
      <trkpt lat="28.37525" lon="83.61803">
        <ele>2139.55</ele>
        <time>2013-10-27T06:29:30Z</time>
      </trkpt>
      <trkpt lat="28.37534" lon="83.61797">
        <ele>2139.55</ele>
        <time>2013-10-27T06:29:51Z</time>
      </trkpt>
      <trkpt lat="28.37521" lon="83.61799">
        <ele>2140.03</ele>
        <time>2013-10-27T06:32:24Z</time>
      </trkpt>
      <trkpt lat="28.37522" lon="83.61797">
        <ele>2140.03</ele>
        <time>2013-10-27T06:32:27Z</time>
      </trkpt>
      <trkpt lat="28.37523" lon="83.61795">
        <ele>2140.03</ele>
        <time>2013-10-27T06:32:30Z</time>
      </trkpt>
      <trkpt lat="28.37526" lon="83.61792">
        <ele>2140.03</ele>
        <time>2013-10-27T06:32:34Z</time>
      </trkpt>
      <trkpt lat="28.37527" lon="83.61793">
        <ele>2140.51</ele>
        <time>2013-10-27T06:32:50Z</time>
      </trkpt>
      <trkpt lat="28.37525" lon="83.61798">
        <ele>2140.51</ele>
        <time>2013-10-27T06:33:17Z</time>
      </trkpt>
      <trkpt lat="28.37518" lon="83.61808">
        <ele>2140.51</ele>
        <time>2013-10-27T06:33:30Z</time>
      </trkpt>
      <trkpt lat="28.37526" lon="83.61809">
        <ele>2140.51</ele>
        <time>2013-10-27T06:33:55Z</time>
      </trkpt>
      <trkpt lat="28.37514" lon="83.61806">
        <ele>2140.51</ele>
        <time>2013-10-27T06:34:13Z</time>
      </trkpt>
      <trkpt lat="28.37509" lon="83.61807">
        <ele>2140.51</ele>
        <time>2013-10-27T06:34:36Z</time>
      </trkpt>
      <trkpt lat="28.37515" lon="83.61807">
        <ele>2140.51</ele>
        <time>2013-10-27T06:34:59Z</time>
      </trkpt>
      <trkpt lat="28.37518" lon="83.61803">
        <ele>2140.51</ele>
        <time>2013-10-27T06:35:19Z</time>
      </trkpt>
      <trkpt lat="28.37518" lon="83.61805">
        <ele>2140.51</ele>
        <time>2013-10-27T06:35:40Z</time>
      </trkpt>
      <trkpt lat="28.37513" lon="83.61805">
        <ele>2140.51</ele>
        <time>2013-10-27T06:35:59Z</time>
      </trkpt>
      <trkpt lat="28.37514" lon="83.61806">
        <ele>2140.51</ele>
        <time>2013-10-27T06:36:23Z</time>
      </trkpt>
      <trkpt lat="28.37518" lon="83.618">
        <ele>2140.51</ele>
        <time>2013-10-27T06:36:36Z</time>
      </trkpt>
      <trkpt lat="28.37541" lon="83.61789">
        <ele>2140.51</ele>
        <time>2013-10-27T06:36:59Z</time>
      </trkpt>
      <trkpt lat="28.37511" lon="83.61808">
        <ele>2143.88</ele>
        <time>2013-10-27T07:02:12Z</time>
      </trkpt>
      <trkpt lat="28.37513" lon="83.61808">
        <ele>2143.88</ele>
        <time>2013-10-27T07:02:13Z</time>
      </trkpt>
      <trkpt lat="28.3752" lon="83.61808">
        <ele>2143.88</ele>
        <time>2013-10-27T07:02:17Z</time>
      </trkpt>
      <trkpt lat="28.37514" lon="83.6181">
        <ele>2143.88</ele>
        <time>2013-10-27T07:02:29Z</time>
      </trkpt>
      <trkpt lat="28.37512" lon="83.61806">
        <ele>2143.4</ele>
        <time>2013-10-27T07:02:44Z</time>
      </trkpt>
      <trkpt lat="28.37505" lon="83.61805">
        <ele>2143.88</ele>
        <time>2013-10-27T07:03:04Z</time>
      </trkpt>
      <trkpt lat="28.37505" lon="83.61804">
        <ele>2143.88</ele>
        <time>2013-10-27T07:03:32Z</time>
      </trkpt>
      <trkpt lat="28.37512" lon="83.618">
        <ele>2143.88</ele>
        <time>2013-10-27T07:03:50Z</time>
      </trkpt>
      <trkpt lat="28.37514" lon="83.61804">
        <ele>2143.88</ele>
        <time>2013-10-27T07:03:56Z</time>
      </trkpt>
      <trkpt lat="28.37517" lon="83.61811">
        <ele>2143.88</ele>
        <time>2013-10-27T07:04:05Z</time>
      </trkpt>
      <trkpt lat="28.37521" lon="83.61809">
        <ele>2143.88</ele>
        <time>2013-10-27T07:04:22Z</time>
      </trkpt>
      <trkpt lat="28.37526" lon="83.61804">
        <ele>2142.92</ele>
        <time>2013-10-27T07:04:35Z</time>
      </trkpt>
      <trkpt lat="28.37525" lon="83.61804">
        <ele>2143.4</ele>
        <time>2013-10-27T07:05:02Z</time>
      </trkpt>
      <trkpt lat="28.37525" lon="83.61804">
        <ele>2143.4</ele>
        <time>2013-10-27T07:05:30Z</time>
      </trkpt>
      <trkpt lat="28.37526" lon="83.61803">
        <ele>2143.88</ele>
        <time>2013-10-27T07:05:58Z</time>
      </trkpt>
      <trkpt lat="28.37526" lon="83.618">
        <ele>2143.4</ele>
        <time>2013-10-27T07:06:00Z</time>
      </trkpt>
      <trkpt lat="28.37527" lon="83.61794">
        <ele>2143.4</ele>
        <time>2013-10-27T07:06:11Z</time>
      </trkpt>
      <trkpt lat="28.37527" lon="83.61795">
        <ele>2143.4</ele>
        <time>2013-10-27T07:06:28Z</time>
      </trkpt>
      <trkpt lat="28.37527" lon="83.61794">
        <ele>2143.4</ele>
        <time>2013-10-27T07:06:57Z</time>
      </trkpt>
      <trkpt lat="28.37526" lon="83.61793">
        <ele>2143.4</ele>
        <time>2013-10-27T07:07:17Z</time>
      </trkpt>
      <trkpt lat="28.37526" lon="83.61793">
        <ele>2143.4</ele>
        <time>2013-10-27T07:07:47Z</time>
      </trkpt>
      <trkpt lat="28.37526" lon="83.61793">
        <ele>2142.92</ele>
        <time>2013-10-27T07:08:05Z</time>
      </trkpt>
      <trkpt lat="28.37526" lon="83.61793">
        <ele>2142.92</ele>
        <time>2013-10-27T07:08:28Z</time>
      </trkpt>
      <trkpt lat="28.37525" lon="83.61799">
        <ele>2142.92</ele>
        <time>2013-10-27T07:08:46Z</time>
      </trkpt>
      <trkpt lat="28.37525" lon="83.618">
        <ele>2142.92</ele>
        <time>2013-10-27T07:09:01Z</time>
      </trkpt>
      <trkpt lat="28.37526" lon="83.61802">
        <ele>2142.44</ele>
        <time>2013-10-27T07:09:06Z</time>
      </trkpt>
      <trkpt lat="28.37525" lon="83.61804">
        <ele>2141.95</ele>
        <time>2013-10-27T07:09:21Z</time>
      </trkpt>
      <trkpt lat="28.37524" lon="83.61803">
        <ele>2141.95</ele>
        <time>2013-10-27T07:09:54Z</time>
      </trkpt>
      <trkpt lat="28.37525" lon="83.61803">
        <ele>2141.47</ele>
        <time>2013-10-27T07:10:30Z</time>
      </trkpt>
      <trkpt lat="28.37526" lon="83.61804">
        <ele>2140.99</ele>
        <time>2013-10-27T07:11:04Z</time>
      </trkpt>
      <trkpt lat="28.37526" lon="83.61805">
        <ele>2140.99</ele>
        <time>2013-10-27T07:11:43Z</time>
      </trkpt>
      <trkpt lat="28.37526" lon="83.61804">
        <ele>2140.51</ele>
        <time>2013-10-27T07:12:12Z</time>
      </trkpt>
      <trkpt lat="28.37526" lon="83.61804">
        <ele>2140.51</ele>
        <time>2013-10-27T07:12:48Z</time>
      </trkpt>
      <trkpt lat="28.37526" lon="83.61804">
        <ele>2140.51</ele>
        <time>2013-10-27T07:13:10Z</time>
      </trkpt>
      <trkpt lat="28.37526" lon="83.61804">
        <ele>2140.03</ele>
        <time>2013-10-27T07:13:41Z</time>
      </trkpt>
      <trkpt lat="28.37526" lon="83.61804">
        <ele>2140.51</ele>
        <time>2013-10-27T07:14:13Z</time>
      </trkpt>
      <trkpt lat="28.37525" lon="83.61803">
        <ele>2140.03</ele>
        <time>2013-10-27T07:14:39Z</time>
      </trkpt>
      <trkpt lat="28.37525" lon="83.61802">
        <ele>2140.03</ele>
        <time>2013-10-27T07:15:11Z</time>
      </trkpt>
      <trkpt lat="28.37524" lon="83.61802">
        <ele>2140.03</ele>
        <time>2013-10-27T07:15:24Z</time>
      </trkpt>
      <trkpt lat="28.37525" lon="83.61802">
        <ele>2139.55</ele>
        <time>2013-10-27T07:15:58Z</time>
      </trkpt>
      <trkpt lat="28.37525" lon="83.61803">
        <ele>2140.03</ele>
        <time>2013-10-27T07:16:34Z</time>
      </trkpt>
      <trkpt lat="28.37525" lon="83.61803">
        <ele>2139.55</ele>
        <time>2013-10-27T07:17:08Z</time>
      </trkpt>
      <trkpt lat="28.37525" lon="83.61803">
        <ele>2139.55</ele>
        <time>2013-10-27T07:17:44Z</time>
      </trkpt>
      <trkpt lat="28.37525" lon="83.61803">
        <ele>2139.55</ele>
        <time>2013-10-27T07:18:19Z</time>
      </trkpt>
      <trkpt lat="28.37525" lon="83.61804">
        <ele>2139.55</ele>
        <time>2013-10-27T07:18:59Z</time>
      </trkpt>
      <trkpt lat="28.37525" lon="83.61804">
        <ele>2139.55</ele>
        <time>2013-10-27T07:19:38Z</time>
      </trkpt>
      <trkpt lat="28.37525" lon="83.61804">
        <ele>2139.55</ele>
        <time>2013-10-27T07:20:17Z</time>
      </trkpt>
      <trkpt lat="28.37525" lon="83.61804">
        <ele>2139.55</ele>
        <time>2013-10-27T07:20:52Z</time>
      </trkpt>
      <trkpt lat="28.37525" lon="83.61804">
        <ele>2139.55</ele>
        <time>2013-10-27T07:21:29Z</time>
      </trkpt>
      <trkpt lat="28.37526" lon="83.61801">
        <ele>2140.51</ele>
        <time>2013-10-27T07:21:44Z</time>
      </trkpt>
      <trkpt lat="28.37526" lon="83.61799">
        <ele>2140.03</ele>
        <time>2013-10-27T07:22:02Z</time>
      </trkpt>
      <trkpt lat="28.37527" lon="83.61794">
        <ele>2140.03</ele>
        <time>2013-10-27T07:22:16Z</time>
      </trkpt>
      <trkpt lat="28.37528" lon="83.61795">
        <ele>2140.51</ele>
        <time>2013-10-27T07:22:30Z</time>
      </trkpt>
      <trkpt lat="28.37526" lon="83.61796">
        <ele>2140.51</ele>
        <time>2013-10-27T07:22:44Z</time>
      </trkpt>
      <trkpt lat="28.37525" lon="83.618">
        <ele>2140.51</ele>
        <time>2013-10-27T07:22:48Z</time>
      </trkpt>
      <trkpt lat="28.37524" lon="83.61795">
        <ele>2140.51</ele>
        <time>2013-10-27T07:23:03Z</time>
      </trkpt>
      <trkpt lat="28.37525" lon="83.61795">
        <ele>2140.51</ele>
        <time>2013-10-27T07:23:26Z</time>
      </trkpt>
      <trkpt lat="28.37524" lon="83.61795">
        <ele>2140.51</ele>
        <time>2013-10-27T07:23:47Z</time>
      </trkpt>
      <trkpt lat="28.37524" lon="83.61796">
        <ele>2140.51</ele>
        <time>2013-10-27T07:24:09Z</time>
      </trkpt>
      <trkpt lat="28.37523" lon="83.61798">
        <ele>2140.51</ele>
        <time>2013-10-27T07:24:22Z</time>
      </trkpt>
      <trkpt lat="28.37523" lon="83.61801">
        <ele>2140.51</ele>
        <time>2013-10-27T07:24:28Z</time>
      </trkpt>
      <trkpt lat="28.37519" lon="83.61804">
        <ele>2139.55</ele>
        <time>2013-10-27T07:24:38Z</time>
      </trkpt>
      <trkpt lat="28.37519" lon="83.61809">
        <ele>2140.03</ele>
        <time>2013-10-27T07:24:42Z</time>
      </trkpt>
      <trkpt lat="28.37518" lon="83.61817">
        <ele>2138.11</ele>
        <time>2013-10-27T07:24:54Z</time>
      </trkpt>
      <trkpt lat="28.3751" lon="83.61827">
        <ele>2137.63</ele>
        <time>2013-10-27T07:25:04Z</time>
      </trkpt>
      <trkpt lat="28.37499" lon="83.61839">
        <ele>2136.67</ele>
        <time>2013-10-27T07:25:16Z</time>
      </trkpt>
      <trkpt lat="28.37497" lon="83.61847">
        <ele>2136.67</ele>
        <time>2013-10-27T07:25:22Z</time>
      </trkpt>
      <trkpt lat="28.3749" lon="83.61852">
        <ele>2137.15</ele>
        <time>2013-10-27T07:25:30Z</time>
      </trkpt>
      <trkpt lat="28.37483" lon="83.61854">
        <ele>2135.71</ele>
        <time>2013-10-27T07:25:36Z</time>
      </trkpt>
      <trkpt lat="28.37481" lon="83.61855">
        <ele>2135.23</ele>
        <time>2013-10-27T07:25:38Z</time>
      </trkpt>
      <trkpt lat="28.37472" lon="83.61855">
        <ele>2133.78</ele>
        <time>2013-10-27T07:25:47Z</time>
      </trkpt>
      <trkpt lat="28.37472" lon="83.61855">
        <ele>2133.78</ele>
        <time>2013-10-27T07:25:48Z</time>
      </trkpt>
      <trkpt lat="28.3747" lon="83.61856">
        <ele>2133.78</ele>
        <time>2013-10-27T07:25:51Z</time>
      </trkpt>
      <trkpt lat="28.37463" lon="83.6186">
        <ele>2132.34</ele>
        <time>2013-10-27T07:25:58Z</time>
      </trkpt>
      <trkpt lat="28.37453" lon="83.61872">
        <ele>2130.9</ele>
        <time>2013-10-27T07:26:09Z</time>
      </trkpt>
      <trkpt lat="28.37438" lon="83.61878">
        <ele>2128.02</ele>
        <time>2013-10-27T07:26:23Z</time>
      </trkpt>
      <trkpt lat="28.37437" lon="83.61878">
        <ele>2128.02</ele>
        <time>2013-10-27T07:26:24Z</time>
      </trkpt>
      <trkpt lat="28.37421" lon="83.61873">
        <ele>2127.05</ele>
        <time>2013-10-27T07:26:36Z</time>
      </trkpt>
      <trkpt lat="28.3741" lon="83.61875">
        <ele>2126.57</ele>
        <time>2013-10-27T07:26:43Z</time>
      </trkpt>
      <trkpt lat="28.374" lon="83.61869">
        <ele>2126.57</ele>
        <time>2013-10-27T07:26:56Z</time>
      </trkpt>
      <trkpt lat="28.37392" lon="83.61871">
        <ele>2127.05</ele>
        <time>2013-10-27T07:27:10Z</time>
      </trkpt>
      <trkpt lat="28.3739" lon="83.61872">
        <ele>2127.05</ele>
        <time>2013-10-27T07:27:12Z</time>
      </trkpt>
      <trkpt lat="28.37378" lon="83.61875">
        <ele>2126.57</ele>
        <time>2013-10-27T07:27:24Z</time>
      </trkpt>
      <trkpt lat="28.37361" lon="83.61876">
        <ele>2125.61</ele>
        <time>2013-10-27T07:27:39Z</time>
      </trkpt>
      <trkpt lat="28.37355" lon="83.61868">
        <ele>2126.57</ele>
        <time>2013-10-27T07:27:53Z</time>
      </trkpt>
      <trkpt lat="28.37354" lon="83.61853">
        <ele>2127.53</ele>
        <time>2013-10-27T07:28:06Z</time>
      </trkpt>
      <trkpt lat="28.37352" lon="83.61853">
        <ele>2127.05</ele>
        <time>2013-10-27T07:28:08Z</time>
      </trkpt>
      <trkpt lat="28.37348" lon="83.61854">
        <ele>2127.05</ele>
        <time>2013-10-27T07:28:12Z</time>
      </trkpt>
      <trkpt lat="28.37339" lon="83.61865">
        <ele>2125.13</ele>
        <time>2013-10-27T07:28:25Z</time>
      </trkpt>
      <trkpt lat="28.37337" lon="83.61866">
        <ele>2124.65</ele>
        <time>2013-10-27T07:28:28Z</time>
      </trkpt>
      <trkpt lat="28.37334" lon="83.61872">
        <ele>2123.69</ele>
        <time>2013-10-27T07:28:37Z</time>
      </trkpt>
      <trkpt lat="28.37333" lon="83.61881">
        <ele>2123.69</ele>
        <time>2013-10-27T07:28:49Z</time>
      </trkpt>
      <trkpt lat="28.37333" lon="83.61886">
        <ele>2125.13</ele>
        <time>2013-10-27T07:28:54Z</time>
      </trkpt>
      <trkpt lat="28.37334" lon="83.61893">
        <ele>2126.09</ele>
        <time>2013-10-27T07:29:00Z</time>
      </trkpt>
      <trkpt lat="28.37337" lon="83.61897">
        <ele>2126.57</ele>
        <time>2013-10-27T07:29:04Z</time>
      </trkpt>
      <trkpt lat="28.37344" lon="83.6191">
        <ele>2127.05</ele>
        <time>2013-10-27T07:29:17Z</time>
      </trkpt>
      <trkpt lat="28.37344" lon="83.61913">
        <ele>2127.53</ele>
        <time>2013-10-27T07:29:19Z</time>
      </trkpt>
      <trkpt lat="28.37343" lon="83.61919">
        <ele>2127.53</ele>
        <time>2013-10-27T07:29:25Z</time>
      </trkpt>
      <trkpt lat="28.37344" lon="83.61922">
        <ele>2126.57</ele>
        <time>2013-10-27T07:29:28Z</time>
      </trkpt>
      <trkpt lat="28.37344" lon="83.61929">
        <ele>2127.05</ele>
        <time>2013-10-27T07:29:34Z</time>
      </trkpt>
      <trkpt lat="28.37346" lon="83.61936">
        <ele>2127.05</ele>
        <time>2013-10-27T07:29:41Z</time>
      </trkpt>
      <trkpt lat="28.3735" lon="83.61945">
        <ele>2127.53</ele>
        <time>2013-10-27T07:29:51Z</time>
      </trkpt>
      <trkpt lat="28.3735" lon="83.61954">
        <ele>2127.05</ele>
        <time>2013-10-27T07:29:59Z</time>
      </trkpt>
      <trkpt lat="28.3735" lon="83.61956">
        <ele>2127.05</ele>
        <time>2013-10-27T07:30:01Z</time>
      </trkpt>
      <trkpt lat="28.3735" lon="83.61965">
        <ele>2125.61</ele>
        <time>2013-10-27T07:30:08Z</time>
      </trkpt>
      <trkpt lat="28.37354" lon="83.61972">
        <ele>2124.65</ele>
        <time>2013-10-27T07:30:15Z</time>
      </trkpt>
      <trkpt lat="28.37358" lon="83.61976">
        <ele>2124.65</ele>
        <time>2013-10-27T07:30:20Z</time>
      </trkpt>
      <trkpt lat="28.37364" lon="83.61986">
        <ele>2125.13</ele>
        <time>2013-10-27T07:30:29Z</time>
      </trkpt>
      <trkpt lat="28.37365" lon="83.61988">
        <ele>2125.13</ele>
        <time>2013-10-27T07:30:31Z</time>
      </trkpt>
      <trkpt lat="28.37367" lon="83.61991">
        <ele>2126.09</ele>
        <time>2013-10-27T07:30:34Z</time>
      </trkpt>
      <trkpt lat="28.37371" lon="83.61993">
        <ele>2125.61</ele>
        <time>2013-10-27T07:30:38Z</time>
      </trkpt>
      <trkpt lat="28.37373" lon="83.61995">
        <ele>2125.61</ele>
        <time>2013-10-27T07:30:40Z</time>
      </trkpt>
      <trkpt lat="28.3738" lon="83.61998">
        <ele>2124.65</ele>
        <time>2013-10-27T07:30:46Z</time>
      </trkpt>
      <trkpt lat="28.37385" lon="83.62004">
        <ele>2124.65</ele>
        <time>2013-10-27T07:30:52Z</time>
      </trkpt>
      <trkpt lat="28.37388" lon="83.6201">
        <ele>2124.65</ele>
        <time>2013-10-27T07:30:58Z</time>
      </trkpt>
      <trkpt lat="28.37389" lon="83.62019">
        <ele>2124.65</ele>
        <time>2013-10-27T07:31:04Z</time>
      </trkpt>
      <trkpt lat="28.3739" lon="83.62022">
        <ele>2124.65</ele>
        <time>2013-10-27T07:31:07Z</time>
      </trkpt>
      <trkpt lat="28.37392" lon="83.62035">
        <ele>2123.21</ele>
        <time>2013-10-27T07:31:17Z</time>
      </trkpt>
      <trkpt lat="28.37397" lon="83.62049">
        <ele>2122.25</ele>
        <time>2013-10-27T07:31:32Z</time>
      </trkpt>
      <trkpt lat="28.37398" lon="83.62051">
        <ele>2121.77</ele>
        <time>2013-10-27T07:31:35Z</time>
      </trkpt>
      <trkpt lat="28.37404" lon="83.62057">
        <ele>2121.29</ele>
        <time>2013-10-27T07:31:44Z</time>
      </trkpt>
      <trkpt lat="28.37404" lon="83.62061">
        <ele>2120.81</ele>
        <time>2013-10-27T07:31:47Z</time>
      </trkpt>
      <trkpt lat="28.37405" lon="83.62066">
        <ele>2120.32</ele>
        <time>2013-10-27T07:31:50Z</time>
      </trkpt>
      <trkpt lat="28.37397" lon="83.62078">
        <ele>2117.92</ele>
        <time>2013-10-27T07:32:02Z</time>
      </trkpt>
      <trkpt lat="28.37397" lon="83.62088">
        <ele>2117.92</ele>
        <time>2013-10-27T07:32:11Z</time>
      </trkpt>
      <trkpt lat="28.374" lon="83.62097">
        <ele>2117.92</ele>
        <time>2013-10-27T07:32:19Z</time>
      </trkpt>
      <trkpt lat="28.37405" lon="83.62108">
        <ele>2116.96</ele>
        <time>2013-10-27T07:32:30Z</time>
      </trkpt>
      <trkpt lat="28.37409" lon="83.62111">
        <ele>2116.48</ele>
        <time>2013-10-27T07:32:35Z</time>
      </trkpt>
      <trkpt lat="28.37413" lon="83.62114">
        <ele>2116.96</ele>
        <time>2013-10-27T07:32:43Z</time>
      </trkpt>
      <trkpt lat="28.37415" lon="83.62119">
        <ele>2116.96</ele>
        <time>2013-10-27T07:32:48Z</time>
      </trkpt>
      <trkpt lat="28.37415" lon="83.62125">
        <ele>2116</ele>
        <time>2013-10-27T07:32:53Z</time>
      </trkpt>
      <trkpt lat="28.37408" lon="83.62138">
        <ele>2113.6</ele>
        <time>2013-10-27T07:33:06Z</time>
      </trkpt>
      <trkpt lat="28.37405" lon="83.62148">
        <ele>2112.15</ele>
        <time>2013-10-27T07:33:15Z</time>
      </trkpt>
      <trkpt lat="28.37405" lon="83.62152">
        <ele>2111.67</ele>
        <time>2013-10-27T07:33:20Z</time>
      </trkpt>
      <trkpt lat="28.37407" lon="83.62158">
        <ele>2110.71</ele>
        <time>2013-10-27T07:33:26Z</time>
      </trkpt>
      <trkpt lat="28.3741" lon="83.62168">
        <ele>2108.79</ele>
        <time>2013-10-27T07:33:34Z</time>
      </trkpt>
      <trkpt lat="28.37414" lon="83.6218">
        <ele>2107.35</ele>
        <time>2013-10-27T07:33:43Z</time>
      </trkpt>
      <trkpt lat="28.3741" lon="83.62189">
        <ele>2105.91</ele>
        <time>2013-10-27T07:33:50Z</time>
      </trkpt>
      <trkpt lat="28.37409" lon="83.62203">
        <ele>2104.46</ele>
        <time>2013-10-27T07:34:02Z</time>
      </trkpt>
      <trkpt lat="28.37408" lon="83.62214">
        <ele>2104.46</ele>
        <time>2013-10-27T07:34:12Z</time>
      </trkpt>
      <trkpt lat="28.3741" lon="83.62218">
        <ele>2105.91</ele>
        <time>2013-10-27T07:34:23Z</time>
      </trkpt>
      <trkpt lat="28.37416" lon="83.62218">
        <ele>2107.35</ele>
        <time>2013-10-27T07:34:35Z</time>
      </trkpt>
      <trkpt lat="28.37422" lon="83.62222">
        <ele>2108.79</ele>
        <time>2013-10-27T07:34:44Z</time>
      </trkpt>
      <trkpt lat="28.3743" lon="83.62231">
        <ele>2108.79</ele>
        <time>2013-10-27T07:34:55Z</time>
      </trkpt>
      <trkpt lat="28.3743" lon="83.62234">
        <ele>2108.79</ele>
        <time>2013-10-27T07:34:58Z</time>
      </trkpt>
      <trkpt lat="28.37429" lon="83.62243">
        <ele>2108.79</ele>
        <time>2013-10-27T07:35:10Z</time>
      </trkpt>
      <trkpt lat="28.37428" lon="83.6225">
        <ele>2108.79</ele>
        <time>2013-10-27T07:35:23Z</time>
      </trkpt>
      <trkpt lat="28.3743" lon="83.62261">
        <ele>2110.71</ele>
        <time>2013-10-27T07:35:34Z</time>
      </trkpt>
      <trkpt lat="28.37434" lon="83.62274">
        <ele>2112.63</ele>
        <time>2013-10-27T07:35:48Z</time>
      </trkpt>
      <trkpt lat="28.3743" lon="83.62287">
        <ele>2114.56</ele>
        <time>2013-10-27T07:36:00Z</time>
      </trkpt>
      <trkpt lat="28.37429" lon="83.62289">
        <ele>2114.56</ele>
        <time>2013-10-27T07:36:03Z</time>
      </trkpt>
      <trkpt lat="28.3743" lon="83.62299">
        <ele>2116</ele>
        <time>2013-10-27T07:36:13Z</time>
      </trkpt>
      <trkpt lat="28.37431" lon="83.62303">
        <ele>2116.48</ele>
        <time>2013-10-27T07:36:16Z</time>
      </trkpt>
      <trkpt lat="28.3743" lon="83.62305">
        <ele>2116.48</ele>
        <time>2013-10-27T07:36:19Z</time>
      </trkpt>
      <trkpt lat="28.37431" lon="83.62313">
        <ele>2117.44</ele>
        <time>2013-10-27T07:36:29Z</time>
      </trkpt>
      <trkpt lat="28.37433" lon="83.62317">
        <ele>2117.92</ele>
        <time>2013-10-27T07:36:42Z</time>
      </trkpt>
      <trkpt lat="28.37437" lon="83.62327">
        <ele>2119.84</ele>
        <time>2013-10-27T07:36:54Z</time>
      </trkpt>
      <trkpt lat="28.37438" lon="83.62335">
        <ele>2121.29</ele>
        <time>2013-10-27T07:37:04Z</time>
      </trkpt>
      <trkpt lat="28.37439" lon="83.62337">
        <ele>2121.77</ele>
        <time>2013-10-27T07:37:07Z</time>
      </trkpt>
      <trkpt lat="28.37441" lon="83.62348">
        <ele>2123.21</ele>
        <time>2013-10-27T07:37:18Z</time>
      </trkpt>
      <trkpt lat="28.3744" lon="83.62356">
        <ele>2125.13</ele>
        <time>2013-10-27T07:37:28Z</time>
      </trkpt>
      <trkpt lat="28.37439" lon="83.62364">
        <ele>2126.09</ele>
        <time>2013-10-27T07:37:40Z</time>
      </trkpt>
      <trkpt lat="28.37441" lon="83.62366">
        <ele>2127.53</ele>
        <time>2013-10-27T07:37:51Z</time>
      </trkpt>
      <trkpt lat="28.37441" lon="83.62366">
        <ele>2127.53</ele>
        <time>2013-10-27T07:37:52Z</time>
      </trkpt>
      <trkpt lat="28.37444" lon="83.62379">
        <ele>2128.98</ele>
        <time>2013-10-27T07:38:05Z</time>
      </trkpt>
      <trkpt lat="28.37445" lon="83.6238">
        <ele>2129.46</ele>
        <time>2013-10-27T07:38:08Z</time>
      </trkpt>
      <trkpt lat="28.37444" lon="83.62391">
        <ele>2130.42</ele>
        <time>2013-10-27T07:38:21Z</time>
      </trkpt>
      <trkpt lat="28.37449" lon="83.624">
        <ele>2131.86</ele>
        <time>2013-10-27T07:38:34Z</time>
      </trkpt>
      <trkpt lat="28.37452" lon="83.62411">
        <ele>2132.82</ele>
        <time>2013-10-27T07:38:46Z</time>
      </trkpt>
      <trkpt lat="28.37453" lon="83.62413">
        <ele>2132.82</ele>
        <time>2013-10-27T07:39:02Z</time>
      </trkpt>
      <trkpt lat="28.37453" lon="83.62416">
        <ele>2133.3</ele>
        <time>2013-10-27T07:39:05Z</time>
      </trkpt>
      <trkpt lat="28.37453" lon="83.62419">
        <ele>2133.78</ele>
        <time>2013-10-27T07:39:07Z</time>
      </trkpt>
      <trkpt lat="28.3745" lon="83.62434">
        <ele>2135.23</ele>
        <time>2013-10-27T07:39:20Z</time>
      </trkpt>
      <trkpt lat="28.37449" lon="83.62436">
        <ele>2135.71</ele>
        <time>2013-10-27T07:39:34Z</time>
      </trkpt>
      <trkpt lat="28.37449" lon="83.62436">
        <ele>2135.71</ele>
        <time>2013-10-27T07:39:52Z</time>
      </trkpt>
      <trkpt lat="28.37446" lon="83.62433">
        <ele>2135.71</ele>
        <time>2013-10-27T07:40:05Z</time>
      </trkpt>
      <trkpt lat="28.37448" lon="83.62426">
        <ele>2136.19</ele>
        <time>2013-10-27T07:40:09Z</time>
      </trkpt>
      <trkpt lat="28.3744" lon="83.62416">
        <ele>2139.55</ele>
        <time>2013-10-27T07:40:22Z</time>
      </trkpt>
      <trkpt lat="28.37432" lon="83.62412">
        <ele>2140.51</ele>
        <time>2013-10-27T07:40:33Z</time>
      </trkpt>
      <trkpt lat="28.37431" lon="83.62421">
        <ele>2142.92</ele>
        <time>2013-10-27T07:40:47Z</time>
      </trkpt>
      <trkpt lat="28.37426" lon="83.62421">
        <ele>2144.84</ele>
        <time>2013-10-27T07:41:00Z</time>
      </trkpt>
      <trkpt lat="28.37425" lon="83.62416">
        <ele>2145.8</ele>
        <time>2013-10-27T07:41:16Z</time>
      </trkpt>
      <trkpt lat="28.37427" lon="83.62407">
        <ele>2146.76</ele>
        <time>2013-10-27T07:41:33Z</time>
      </trkpt>
      <trkpt lat="28.37427" lon="83.62404">
        <ele>2148.2</ele>
        <time>2013-10-27T07:41:50Z</time>
      </trkpt>
      <trkpt lat="28.37422" lon="83.62404">
        <ele>2150.61</ele>
        <time>2013-10-27T07:42:02Z</time>
      </trkpt>
      <trkpt lat="28.3742" lon="83.62405">
        <ele>2151.09</ele>
        <time>2013-10-27T07:42:17Z</time>
      </trkpt>
      <trkpt lat="28.3742" lon="83.62405">
        <ele>2151.09</ele>
        <time>2013-10-27T07:42:37Z</time>
      </trkpt>
      <trkpt lat="28.37419" lon="83.62406">
        <ele>2151.57</ele>
        <time>2013-10-27T07:43:01Z</time>
      </trkpt>
      <trkpt lat="28.37418" lon="83.62407">
        <ele>2152.53</ele>
        <time>2013-10-27T07:43:17Z</time>
      </trkpt>
      <trkpt lat="28.37412" lon="83.62408">
        <ele>2155.41</ele>
        <time>2013-10-27T07:43:31Z</time>
      </trkpt>
      <trkpt lat="28.3741" lon="83.62407">
        <ele>2158.3</ele>
        <time>2013-10-27T07:43:51Z</time>
      </trkpt>
      <trkpt lat="28.37404" lon="83.62408">
        <ele>2161.66</ele>
        <time>2013-10-27T07:44:06Z</time>
      </trkpt>
      <trkpt lat="28.37399" lon="83.62406">
        <ele>2162.62</ele>
        <time>2013-10-27T07:44:22Z</time>
      </trkpt>
      <trkpt lat="28.37393" lon="83.62408">
        <ele>2165.03</ele>
        <time>2013-10-27T07:44:39Z</time>
      </trkpt>
      <trkpt lat="28.37392" lon="83.62408">
        <ele>2166.47</ele>
        <time>2013-10-27T07:44:53Z</time>
      </trkpt>
      <trkpt lat="28.37389" lon="83.62409">
        <ele>2169.35</ele>
        <time>2013-10-27T07:45:09Z</time>
      </trkpt>
      <trkpt lat="28.37383" lon="83.62412">
        <ele>2172.24</ele>
        <time>2013-10-27T07:45:26Z</time>
      </trkpt>
      <trkpt lat="28.37379" lon="83.6241">
        <ele>2172.24</ele>
        <time>2013-10-27T07:45:40Z</time>
      </trkpt>
      <trkpt lat="28.37375" lon="83.62408">
        <ele>2172.72</ele>
        <time>2013-10-27T07:46:01Z</time>
      </trkpt>
      <trkpt lat="28.37375" lon="83.62409">
        <ele>2172.24</ele>
        <time>2013-10-27T07:46:27Z</time>
      </trkpt>
      <trkpt lat="28.37371" lon="83.62409">
        <ele>2174.16</ele>
        <time>2013-10-27T07:46:40Z</time>
      </trkpt>
      <trkpt lat="28.37366" lon="83.62412">
        <ele>2176.08</ele>
        <time>2013-10-27T07:46:53Z</time>
      </trkpt>
      <trkpt lat="28.37363" lon="83.62419">
        <ele>2176.56</ele>
        <time>2013-10-27T07:47:04Z</time>
      </trkpt>
      <trkpt lat="28.37361" lon="83.62421">
        <ele>2176.56</ele>
        <time>2013-10-27T07:47:07Z</time>
      </trkpt>
      <trkpt lat="28.37348" lon="83.62425">
        <ele>2177.52</ele>
        <time>2013-10-27T07:47:22Z</time>
      </trkpt>
      <trkpt lat="28.37338" lon="83.62428">
        <ele>2178</ele>
        <time>2013-10-27T07:47:34Z</time>
      </trkpt>
      <trkpt lat="28.3733" lon="83.62429">
        <ele>2178</ele>
        <time>2013-10-27T07:47:47Z</time>
      </trkpt>
      <trkpt lat="28.37317" lon="83.62437">
        <ele>2178.97</ele>
        <time>2013-10-27T07:48:02Z</time>
      </trkpt>
      <trkpt lat="28.37308" lon="83.6244">
        <ele>2178.97</ele>
        <time>2013-10-27T07:48:12Z</time>
      </trkpt>
      <trkpt lat="28.37301" lon="83.62442">
        <ele>2179.93</ele>
        <time>2013-10-27T07:48:19Z</time>
      </trkpt>
      <trkpt lat="28.37288" lon="83.6245">
        <ele>2180.89</ele>
        <time>2013-10-27T07:48:34Z</time>
      </trkpt>
      <trkpt lat="28.37286" lon="83.62453">
        <ele>2181.37</ele>
        <time>2013-10-27T07:48:37Z</time>
      </trkpt>
      <trkpt lat="28.37284" lon="83.62454">
        <ele>2181.85</ele>
        <time>2013-10-27T07:48:39Z</time>
      </trkpt>
      <trkpt lat="28.3728" lon="83.62455">
        <ele>2182.81</ele>
        <time>2013-10-27T07:48:44Z</time>
      </trkpt>
      <trkpt lat="28.37273" lon="83.62459">
        <ele>2183.29</ele>
        <time>2013-10-27T07:48:51Z</time>
      </trkpt>
      <trkpt lat="28.37264" lon="83.62464">
        <ele>2184.73</ele>
        <time>2013-10-27T07:49:03Z</time>
      </trkpt>
      <trkpt lat="28.37262" lon="83.62463">
        <ele>2184.73</ele>
        <time>2013-10-27T07:49:13Z</time>
      </trkpt>
      <trkpt lat="28.37259" lon="83.62465">
        <ele>2185.21</ele>
        <time>2013-10-27T07:49:17Z</time>
      </trkpt>
      <trkpt lat="28.37251" lon="83.62474">
        <ele>2186.18</ele>
        <time>2013-10-27T07:49:29Z</time>
      </trkpt>
      <trkpt lat="28.37248" lon="83.62476">
        <ele>2186.18</ele>
        <time>2013-10-27T07:49:34Z</time>
      </trkpt>
      <trkpt lat="28.37239" lon="83.62483">
        <ele>2187.14</ele>
        <time>2013-10-27T07:49:49Z</time>
      </trkpt>
      <trkpt lat="28.37234" lon="83.62485">
        <ele>2188.1</ele>
        <time>2013-10-27T07:50:00Z</time>
      </trkpt>
      <trkpt lat="28.37229" lon="83.62476">
        <ele>2187.62</ele>
        <time>2013-10-27T07:50:25Z</time>
      </trkpt>
      <trkpt lat="28.37227" lon="83.62474">
        <ele>2188.1</ele>
        <time>2013-10-27T07:50:41Z</time>
      </trkpt>
      <trkpt lat="28.37227" lon="83.62474">
        <ele>2188.1</ele>
        <time>2013-10-27T07:50:48Z</time>
      </trkpt>
      <trkpt lat="28.37225" lon="83.62476">
        <ele>2188.58</ele>
        <time>2013-10-27T07:50:51Z</time>
      </trkpt>
      <trkpt lat="28.37221" lon="83.62478">
        <ele>2189.06</ele>
        <time>2013-10-27T07:50:55Z</time>
      </trkpt>
      <trkpt lat="28.37216" lon="83.62484">
        <ele>2189.06</ele>
        <time>2013-10-27T07:50:59Z</time>
      </trkpt>
      <trkpt lat="28.37206" lon="83.62496">
        <ele>2190.98</ele>
        <time>2013-10-27T07:51:12Z</time>
      </trkpt>
      <trkpt lat="28.372" lon="83.62501">
        <ele>2191.46</ele>
        <time>2013-10-27T07:51:21Z</time>
      </trkpt>
      <trkpt lat="28.37196" lon="83.62502">
        <ele>2191.94</ele>
        <time>2013-10-27T07:51:26Z</time>
      </trkpt>
      <trkpt lat="28.37189" lon="83.62508">
        <ele>2193.87</ele>
        <time>2013-10-27T07:51:38Z</time>
      </trkpt>
      <trkpt lat="28.37183" lon="83.62516">
        <ele>2194.35</ele>
        <time>2013-10-27T07:51:48Z</time>
      </trkpt>
      <trkpt lat="28.37182" lon="83.62516">
        <ele>2194.35</ele>
        <time>2013-10-27T07:51:49Z</time>
      </trkpt>
      <trkpt lat="28.37177" lon="83.62521">
        <ele>2195.31</ele>
        <time>2013-10-27T07:52:04Z</time>
      </trkpt>
      <trkpt lat="28.37175" lon="83.62518">
        <ele>2195.31</ele>
        <time>2013-10-27T07:52:19Z</time>
      </trkpt>
      <trkpt lat="28.37175" lon="83.62518">
        <ele>2195.79</ele>
        <time>2013-10-27T07:52:33Z</time>
      </trkpt>
      <trkpt lat="28.37175" lon="83.62518">
        <ele>2195.31</ele>
        <time>2013-10-27T07:52:42Z</time>
      </trkpt>
      <trkpt lat="28.3717" lon="83.62521">
        <ele>2197.23</ele>
        <time>2013-10-27T07:52:54Z</time>
      </trkpt>
      <trkpt lat="28.37166" lon="83.62519">
        <ele>2198.19</ele>
        <time>2013-10-27T07:53:08Z</time>
      </trkpt>
      <trkpt lat="28.37166" lon="83.62516">
        <ele>2198.19</ele>
        <time>2013-10-27T07:53:25Z</time>
      </trkpt>
      <trkpt lat="28.37166" lon="83.62512">
        <ele>2198.67</ele>
        <time>2013-10-27T07:53:40Z</time>
      </trkpt>
      <trkpt lat="28.37168" lon="83.6251">
        <ele>2198.19</ele>
        <time>2013-10-27T07:54:01Z</time>
      </trkpt>
      <trkpt lat="28.3717" lon="83.62509">
        <ele>2198.67</ele>
        <time>2013-10-27T07:54:11Z</time>
      </trkpt>
      <trkpt lat="28.37171" lon="83.62511">
        <ele>2198.67</ele>
        <time>2013-10-27T07:54:27Z</time>
      </trkpt>
      <trkpt lat="28.37174" lon="83.62509">
        <ele>2199.15</ele>
        <time>2013-10-27T07:54:47Z</time>
      </trkpt>
      <trkpt lat="28.37177" lon="83.62504">
        <ele>2199.15</ele>
        <time>2013-10-27T07:55:01Z</time>
      </trkpt>
      <trkpt lat="28.37178" lon="83.62504">
        <ele>2199.15</ele>
        <time>2013-10-27T07:55:20Z</time>
      </trkpt>
      <trkpt lat="28.37178" lon="83.62503">
        <ele>2199.15</ele>
        <time>2013-10-27T07:55:51Z</time>
      </trkpt>
      <trkpt lat="28.37178" lon="83.625">
        <ele>2199.63</ele>
        <time>2013-10-27T07:56:20Z</time>
      </trkpt>
      <trkpt lat="28.37178" lon="83.625">
        <ele>2199.63</ele>
        <time>2013-10-27T07:56:42Z</time>
      </trkpt>
      <trkpt lat="28.37179" lon="83.625">
        <ele>2199.15</ele>
        <time>2013-10-27T07:57:04Z</time>
      </trkpt>
      <trkpt lat="28.3718" lon="83.625">
        <ele>2199.63</ele>
        <time>2013-10-27T07:57:28Z</time>
      </trkpt>
      <trkpt lat="28.37179" lon="83.625">
        <ele>2199.63</ele>
        <time>2013-10-27T07:57:43Z</time>
      </trkpt>
      <trkpt lat="28.3718" lon="83.62501">
        <ele>2199.15</ele>
        <time>2013-10-27T07:58:10Z</time>
      </trkpt>
      <trkpt lat="28.3718" lon="83.625">
        <ele>2199.63</ele>
        <time>2013-10-27T07:58:35Z</time>
      </trkpt>
      <trkpt lat="28.37179" lon="83.625">
        <ele>2199.63</ele>
        <time>2013-10-27T07:58:54Z</time>
      </trkpt>
      <trkpt lat="28.37179" lon="83.62501">
        <ele>2199.63</ele>
        <time>2013-10-27T07:59:11Z</time>
      </trkpt>
      <trkpt lat="28.37179" lon="83.62501">
        <ele>2199.15</ele>
        <time>2013-10-27T07:59:35Z</time>
      </trkpt>
      <trkpt lat="28.37179" lon="83.62501">
        <ele>2199.15</ele>
        <time>2013-10-27T08:00:00Z</time>
      </trkpt>
      <trkpt lat="28.37178" lon="83.625">
        <ele>2199.15</ele>
        <time>2013-10-27T08:00:24Z</time>
      </trkpt>
      <trkpt lat="28.37176" lon="83.62499">
        <ele>2199.15</ele>
        <time>2013-10-27T08:00:49Z</time>
      </trkpt>
      <trkpt lat="28.37176" lon="83.62499">
        <ele>2199.15</ele>
        <time>2013-10-27T08:01:08Z</time>
      </trkpt>
      <trkpt lat="28.37176" lon="83.62499">
        <ele>2198.67</ele>
        <time>2013-10-27T08:01:29Z</time>
      </trkpt>
      <trkpt lat="28.37175" lon="83.62499">
        <ele>2199.15</ele>
        <time>2013-10-27T08:01:59Z</time>
      </trkpt>
      <trkpt lat="28.37175" lon="83.625">
        <ele>2199.15</ele>
        <time>2013-10-27T08:02:26Z</time>
      </trkpt>
      <trkpt lat="28.37175" lon="83.62499">
        <ele>2198.67</ele>
        <time>2013-10-27T08:02:57Z</time>
      </trkpt>
      <trkpt lat="28.37175" lon="83.62504">
        <ele>2198.19</ele>
        <time>2013-10-27T08:03:18Z</time>
      </trkpt>
      <trkpt lat="28.37175" lon="83.62502">
        <ele>2198.67</ele>
        <time>2013-10-27T08:03:37Z</time>
      </trkpt>
      <trkpt lat="28.37175" lon="83.62501">
        <ele>2198.67</ele>
        <time>2013-10-27T08:03:50Z</time>
      </trkpt>
      <trkpt lat="28.37174" lon="83.62501">
        <ele>2198.67</ele>
        <time>2013-10-27T08:04:09Z</time>
      </trkpt>
      <trkpt lat="28.37173" lon="83.62501">
        <ele>2198.67</ele>
        <time>2013-10-27T08:04:37Z</time>
      </trkpt>
      <trkpt lat="28.37173" lon="83.62505">
        <ele>2198.67</ele>
        <time>2013-10-27T08:04:58Z</time>
      </trkpt>
      <trkpt lat="28.37173" lon="83.62506">
        <ele>2198.19</ele>
        <time>2013-10-27T08:05:11Z</time>
      </trkpt>
      <trkpt lat="28.37172" lon="83.62509">
        <ele>2198.19</ele>
        <time>2013-10-27T08:05:13Z</time>
      </trkpt>
      <trkpt lat="28.37172" lon="83.62513">
        <ele>2198.19</ele>
        <time>2013-10-27T08:05:16Z</time>
      </trkpt>
      <trkpt lat="28.37164" lon="83.62522">
        <ele>2198.19</ele>
        <time>2013-10-27T08:05:28Z</time>
      </trkpt>
      <trkpt lat="28.37166" lon="83.62515">
        <ele>2196.75</ele>
        <time>2013-10-27T08:05:41Z</time>
      </trkpt>
      <trkpt lat="28.37168" lon="83.62516">
        <ele>2195.79</ele>
        <time>2013-10-27T08:05:58Z</time>
      </trkpt>
      <trkpt lat="28.37169" lon="83.62516">
        <ele>2195.79</ele>
        <time>2013-10-27T08:06:18Z</time>
      </trkpt>
      <trkpt lat="28.3717" lon="83.62516">
        <ele>2195.79</ele>
        <time>2013-10-27T08:06:38Z</time>
      </trkpt>
      <trkpt lat="28.37172" lon="83.62516">
        <ele>2196.27</ele>
        <time>2013-10-27T08:06:59Z</time>
      </trkpt>
      <trkpt lat="28.37173" lon="83.62517">
        <ele>2196.27</ele>
        <time>2013-10-27T08:07:25Z</time>
      </trkpt>
      <trkpt lat="28.37172" lon="83.62518">
        <ele>2196.27</ele>
        <time>2013-10-27T08:07:33Z</time>
      </trkpt>
      <trkpt lat="28.37167" lon="83.62527">
        <ele>2196.75</ele>
        <time>2013-10-27T08:07:45Z</time>
      </trkpt>
      <trkpt lat="28.37167" lon="83.62528">
        <ele>2195.79</ele>
        <time>2013-10-27T08:07:49Z</time>
      </trkpt>
      <trkpt lat="28.37167" lon="83.62533">
        <ele>2194.83</ele>
        <time>2013-10-27T08:07:53Z</time>
      </trkpt>
      <trkpt lat="28.37165" lon="83.62533">
        <ele>2194.35</ele>
        <time>2013-10-27T08:07:55Z</time>
      </trkpt>
      <trkpt lat="28.37163" lon="83.62536">
        <ele>2195.31</ele>
        <time>2013-10-27T08:07:58Z</time>
      </trkpt>
      <trkpt lat="28.3716" lon="83.62533">
        <ele>2194.83</ele>
        <time>2013-10-27T08:08:08Z</time>
      </trkpt>
      <trkpt lat="28.37158" lon="83.62534">
        <ele>2195.31</ele>
        <time>2013-10-27T08:08:10Z</time>
      </trkpt>
      <trkpt lat="28.37157" lon="83.62534">
        <ele>2195.31</ele>
        <time>2013-10-27T08:08:21Z</time>
      </trkpt>
      <trkpt lat="28.37155" lon="83.62531">
        <ele>2194.35</ele>
        <time>2013-10-27T08:08:44Z</time>
      </trkpt>
      <trkpt lat="28.37148" lon="83.6253">
        <ele>2194.83</ele>
        <time>2013-10-27T08:08:50Z</time>
      </trkpt>
      <trkpt lat="28.37146" lon="83.62531">
        <ele>2194.35</ele>
        <time>2013-10-27T08:08:52Z</time>
      </trkpt>
      <trkpt lat="28.3714" lon="83.62534">
        <ele>2195.79</ele>
        <time>2013-10-27T08:09:00Z</time>
      </trkpt>
      <trkpt lat="28.37129" lon="83.62536">
        <ele>2195.79</ele>
        <time>2013-10-27T08:09:13Z</time>
      </trkpt>
      <trkpt lat="28.37127" lon="83.62537">
        <ele>2195.79</ele>
        <time>2013-10-27T08:09:15Z</time>
      </trkpt>
      <trkpt lat="28.37122" lon="83.62547">
        <ele>2196.27</ele>
        <time>2013-10-27T08:09:27Z</time>
      </trkpt>
      <trkpt lat="28.37119" lon="83.6255">
        <ele>2196.75</ele>
        <time>2013-10-27T08:09:44Z</time>
      </trkpt>
      <trkpt lat="28.37118" lon="83.6255">
        <ele>2196.75</ele>
        <time>2013-10-27T08:10:01Z</time>
      </trkpt>
      <trkpt lat="28.37117" lon="83.6255">
        <ele>2196.75</ele>
        <time>2013-10-27T08:10:28Z</time>
      </trkpt>
      <trkpt lat="28.37117" lon="83.6255">
        <ele>2196.75</ele>
        <time>2013-10-27T08:10:29Z</time>
      </trkpt>
      <trkpt lat="28.37117" lon="83.62553">
        <ele>2196.27</ele>
        <time>2013-10-27T08:10:31Z</time>
      </trkpt>
      <trkpt lat="28.37117" lon="83.62557">
        <ele>2196.27</ele>
        <time>2013-10-27T08:10:34Z</time>
      </trkpt>
      <trkpt lat="28.37117" lon="83.6256">
        <ele>2196.27</ele>
        <time>2013-10-27T08:10:36Z</time>
      </trkpt>
      <trkpt lat="28.37118" lon="83.62565">
        <ele>2196.27</ele>
        <time>2013-10-27T08:10:40Z</time>
      </trkpt>
      <trkpt lat="28.37118" lon="83.62569">
        <ele>2196.27</ele>
        <time>2013-10-27T08:10:43Z</time>
      </trkpt>
      <trkpt lat="28.3712" lon="83.62576">
        <ele>2196.75</ele>
        <time>2013-10-27T08:10:48Z</time>
      </trkpt>
      <trkpt lat="28.3712" lon="83.62577">
        <ele>2197.23</ele>
        <time>2013-10-27T08:10:50Z</time>
      </trkpt>
      <trkpt lat="28.37121" lon="83.62583">
        <ele>2197.71</ele>
        <time>2013-10-27T08:10:54Z</time>
      </trkpt>
      <trkpt lat="28.37121" lon="83.62589">
        <ele>2198.19</ele>
        <time>2013-10-27T08:10:58Z</time>
      </trkpt>
      <trkpt lat="28.37119" lon="83.62595">
        <ele>2199.15</ele>
        <time>2013-10-27T08:11:03Z</time>
      </trkpt>
      <trkpt lat="28.3711" lon="83.62603">
        <ele>2200.59</ele>
        <time>2013-10-27T08:11:14Z</time>
      </trkpt>
      <trkpt lat="28.37103" lon="83.62608">
        <ele>2202.52</ele>
        <time>2013-10-27T08:11:23Z</time>
      </trkpt>
      <trkpt lat="28.37092" lon="83.62613">
        <ele>2203.96</ele>
        <time>2013-10-27T08:11:35Z</time>
      </trkpt>
      <trkpt lat="28.37091" lon="83.62614">
        <ele>2203.96</ele>
        <time>2013-10-27T08:11:36Z</time>
      </trkpt>
      <trkpt lat="28.37086" lon="83.62616">
        <ele>2204.44</ele>
        <time>2013-10-27T08:11:40Z</time>
      </trkpt>
      <trkpt lat="28.37081" lon="83.62618">
        <ele>2205.4</ele>
        <time>2013-10-27T08:11:45Z</time>
      </trkpt>
      <trkpt lat="28.37074" lon="83.62624">
        <ele>2205.88</ele>
        <time>2013-10-27T08:11:54Z</time>
      </trkpt>
      <trkpt lat="28.37071" lon="83.62626">
        <ele>2205.4</ele>
        <time>2013-10-27T08:11:57Z</time>
      </trkpt>
      <trkpt lat="28.37067" lon="83.62625">
        <ele>2205.88</ele>
        <time>2013-10-27T08:12:02Z</time>
      </trkpt>
      <trkpt lat="28.37065" lon="83.62623">
        <ele>2205.4</ele>
        <time>2013-10-27T08:12:17Z</time>
      </trkpt>
      <trkpt lat="28.37063" lon="83.62624">
        <ele>2205.4</ele>
        <time>2013-10-27T08:12:39Z</time>
      </trkpt>
      <trkpt lat="28.37056" lon="83.62621">
        <ele>2204.92</ele>
        <time>2013-10-27T08:12:58Z</time>
      </trkpt>
      <trkpt lat="28.37047" lon="83.62622">
        <ele>2204.44</ele>
        <time>2013-10-27T08:13:09Z</time>
      </trkpt>
      <trkpt lat="28.3704" lon="83.62626">
        <ele>2203.48</ele>
        <time>2013-10-27T08:13:17Z</time>
      </trkpt>
      <trkpt lat="28.37035" lon="83.62634">
        <ele>2202.52</ele>
        <time>2013-10-27T08:13:24Z</time>
      </trkpt>
      <trkpt lat="28.37028" lon="83.62639">
        <ele>2202.04</ele>
        <time>2013-10-27T08:13:30Z</time>
      </trkpt>
      <trkpt lat="28.3702" lon="83.62646">
        <ele>2201.56</ele>
        <time>2013-10-27T08:13:41Z</time>
      </trkpt>
      <trkpt lat="28.37018" lon="83.62647">
        <ele>2201.56</ele>
        <time>2013-10-27T08:13:43Z</time>
      </trkpt>
      <trkpt lat="28.37014" lon="83.62652">
        <ele>2201.56</ele>
        <time>2013-10-27T08:13:49Z</time>
      </trkpt>
      <trkpt lat="28.3701" lon="83.62656">
        <ele>2202.04</ele>
        <time>2013-10-27T08:13:53Z</time>
      </trkpt>
      <trkpt lat="28.37002" lon="83.62665">
        <ele>2203.48</ele>
        <time>2013-10-27T08:14:04Z</time>
      </trkpt>
      <trkpt lat="28.36992" lon="83.62672">
        <ele>2203.96</ele>
        <time>2013-10-27T08:14:16Z</time>
      </trkpt>
      <trkpt lat="28.3699" lon="83.62674">
        <ele>2204.44</ele>
        <time>2013-10-27T08:14:18Z</time>
      </trkpt>
      <trkpt lat="28.36983" lon="83.6268">
        <ele>2204.92</ele>
        <time>2013-10-27T08:14:28Z</time>
      </trkpt>
      <trkpt lat="28.36973" lon="83.62691">
        <ele>2204.44</ele>
        <time>2013-10-27T08:14:42Z</time>
      </trkpt>
      <trkpt lat="28.36969" lon="83.62696">
        <ele>2204.44</ele>
        <time>2013-10-27T08:14:54Z</time>
      </trkpt>
      <trkpt lat="28.36967" lon="83.62696">
        <ele>2203.96</ele>
        <time>2013-10-27T08:15:02Z</time>
      </trkpt>
      <trkpt lat="28.36962" lon="83.62703">
        <ele>2203.96</ele>
        <time>2013-10-27T08:15:12Z</time>
      </trkpt>
      <trkpt lat="28.3696" lon="83.62703">
        <ele>2203.96</ele>
        <time>2013-10-27T08:15:35Z</time>
      </trkpt>
      <trkpt lat="28.36959" lon="83.62706">
        <ele>2202.52</ele>
        <time>2013-10-27T08:15:44Z</time>
      </trkpt>
      <trkpt lat="28.36959" lon="83.6271">
        <ele>2201.56</ele>
        <time>2013-10-27T08:15:47Z</time>
      </trkpt>
      <trkpt lat="28.36961" lon="83.62714">
        <ele>2199.63</ele>
        <time>2013-10-27T08:15:53Z</time>
      </trkpt>
      <trkpt lat="28.36967" lon="83.62719">
        <ele>2197.71</ele>
        <time>2013-10-27T08:16:07Z</time>
      </trkpt>
      <trkpt lat="28.36966" lon="83.62718">
        <ele>2197.71</ele>
        <time>2013-10-27T08:16:20Z</time>
      </trkpt>
      <trkpt lat="28.36966" lon="83.62717">
        <ele>2197.71</ele>
        <time>2013-10-27T08:16:44Z</time>
      </trkpt>
      <trkpt lat="28.36966" lon="83.62718">
        <ele>2197.71</ele>
        <time>2013-10-27T08:17:05Z</time>
      </trkpt>
      <trkpt lat="28.36966" lon="83.6272">
        <ele>2197.71</ele>
        <time>2013-10-27T08:17:07Z</time>
      </trkpt>
      <trkpt lat="28.36966" lon="83.62724">
        <ele>2197.23</ele>
        <time>2013-10-27T08:17:11Z</time>
      </trkpt>
      <trkpt lat="28.36966" lon="83.62728">
        <ele>2196.75</ele>
        <time>2013-10-27T08:17:18Z</time>
      </trkpt>
      <trkpt lat="28.36958" lon="83.62739">
        <ele>2196.75</ele>
        <time>2013-10-27T08:17:30Z</time>
      </trkpt>
      <trkpt lat="28.36953" lon="83.62743">
        <ele>2196.75</ele>
        <time>2013-10-27T08:17:35Z</time>
      </trkpt>
      <trkpt lat="28.36942" lon="83.62749">
        <ele>2195.31</ele>
        <time>2013-10-27T08:17:46Z</time>
      </trkpt>
      <trkpt lat="28.36941" lon="83.62749">
        <ele>2195.79</ele>
        <time>2013-10-27T08:17:47Z</time>
      </trkpt>
      <trkpt lat="28.36932" lon="83.62752">
        <ele>2195.79</ele>
        <time>2013-10-27T08:17:57Z</time>
      </trkpt>
      <trkpt lat="28.36924" lon="83.62755">
        <ele>2195.31</ele>
        <time>2013-10-27T08:18:09Z</time>
      </trkpt>
      <trkpt lat="28.36917" lon="83.62756">
        <ele>2194.83</ele>
        <time>2013-10-27T08:18:16Z</time>
      </trkpt>
      <trkpt lat="28.36914" lon="83.62757">
        <ele>2194.35</ele>
        <time>2013-10-27T08:18:19Z</time>
      </trkpt>
      <trkpt lat="28.36911" lon="83.62759">
        <ele>2193.87</ele>
        <time>2013-10-27T08:18:22Z</time>
      </trkpt>
      <trkpt lat="28.36903" lon="83.62766">
        <ele>2192.9</ele>
        <time>2013-10-27T08:18:31Z</time>
      </trkpt>
      <trkpt lat="28.369" lon="83.62769">
        <ele>2192.9</ele>
        <time>2013-10-27T08:18:35Z</time>
      </trkpt>
      <trkpt lat="28.36898" lon="83.62771">
        <ele>2193.39</ele>
        <time>2013-10-27T08:18:38Z</time>
      </trkpt>
      <trkpt lat="28.36891" lon="83.62775">
        <ele>2192.42</ele>
        <time>2013-10-27T08:18:46Z</time>
      </trkpt>
      <trkpt lat="28.36884" lon="83.62776">
        <ele>2192.9</ele>
        <time>2013-10-27T08:18:52Z</time>
      </trkpt>
      <trkpt lat="28.36878" lon="83.62781">
        <ele>2193.39</ele>
        <time>2013-10-27T08:19:00Z</time>
      </trkpt>
      <trkpt lat="28.36876" lon="83.62783">
        <ele>2193.39</ele>
        <time>2013-10-27T08:19:03Z</time>
      </trkpt>
      <trkpt lat="28.36871" lon="83.62785">
        <ele>2193.39</ele>
        <time>2013-10-27T08:19:08Z</time>
      </trkpt>
      <trkpt lat="28.36858" lon="83.62789">
        <ele>2193.39</ele>
        <time>2013-10-27T08:19:21Z</time>
      </trkpt>
      <trkpt lat="28.36852" lon="83.62792">
        <ele>2193.87</ele>
        <time>2013-10-27T08:19:28Z</time>
      </trkpt>
      <trkpt lat="28.36845" lon="83.62793">
        <ele>2193.87</ele>
        <time>2013-10-27T08:19:36Z</time>
      </trkpt>
      <trkpt lat="28.36843" lon="83.62791">
        <ele>2193.87</ele>
        <time>2013-10-27T08:19:38Z</time>
      </trkpt>
      <trkpt lat="28.36838" lon="83.62791">
        <ele>2194.35</ele>
        <time>2013-10-27T08:19:44Z</time>
      </trkpt>
      <trkpt lat="28.36835" lon="83.62793">
        <ele>2194.35</ele>
        <time>2013-10-27T08:19:50Z</time>
      </trkpt>
      <trkpt lat="28.36823" lon="83.62796">
        <ele>2193.87</ele>
        <time>2013-10-27T08:20:01Z</time>
      </trkpt>
      <trkpt lat="28.36813" lon="83.62798">
        <ele>2193.39</ele>
        <time>2013-10-27T08:20:11Z</time>
      </trkpt>
      <trkpt lat="28.36807" lon="83.62797">
        <ele>2193.87</ele>
        <time>2013-10-27T08:20:16Z</time>
      </trkpt>
      <trkpt lat="28.368" lon="83.62797">
        <ele>2194.35</ele>
        <time>2013-10-27T08:20:23Z</time>
      </trkpt>
      <trkpt lat="28.36798" lon="83.62798">
        <ele>2194.35</ele>
        <time>2013-10-27T08:20:25Z</time>
      </trkpt>
      <trkpt lat="28.36795" lon="83.62799">
        <ele>2193.87</ele>
        <time>2013-10-27T08:20:28Z</time>
      </trkpt>
      <trkpt lat="28.3678" lon="83.62802">
        <ele>2193.39</ele>
        <time>2013-10-27T08:20:41Z</time>
      </trkpt>
      <trkpt lat="28.36768" lon="83.62805">
        <ele>2193.87</ele>
        <time>2013-10-27T08:20:53Z</time>
      </trkpt>
      <trkpt lat="28.36761" lon="83.62801">
        <ele>2194.35</ele>
        <time>2013-10-27T08:21:00Z</time>
      </trkpt>
      <trkpt lat="28.36752" lon="83.62799">
        <ele>2193.87</ele>
        <time>2013-10-27T08:21:08Z</time>
      </trkpt>
      <trkpt lat="28.3675" lon="83.628">
        <ele>2193.39</ele>
        <time>2013-10-27T08:21:11Z</time>
      </trkpt>
      <trkpt lat="28.36746" lon="83.62804">
        <ele>2193.39</ele>
        <time>2013-10-27T08:21:16Z</time>
      </trkpt>
      <trkpt lat="28.36743" lon="83.62806">
        <ele>2193.87</ele>
        <time>2013-10-27T08:21:20Z</time>
      </trkpt>
      <trkpt lat="28.36739" lon="83.62807">
        <ele>2194.35</ele>
        <time>2013-10-27T08:21:24Z</time>
      </trkpt>
      <trkpt lat="28.36736" lon="83.62807">
        <ele>2194.35</ele>
        <time>2013-10-27T08:21:27Z</time>
      </trkpt>
      <trkpt lat="28.36734" lon="83.62807">
        <ele>2194.83</ele>
        <time>2013-10-27T08:21:29Z</time>
      </trkpt>
      <trkpt lat="28.36732" lon="83.62806">
        <ele>2194.83</ele>
        <time>2013-10-27T08:21:31Z</time>
      </trkpt>
      <trkpt lat="28.36727" lon="83.62804">
        <ele>2195.31</ele>
        <time>2013-10-27T08:21:37Z</time>
      </trkpt>
      <trkpt lat="28.36722" lon="83.62805">
        <ele>2195.31</ele>
        <time>2013-10-27T08:21:42Z</time>
      </trkpt>
      <trkpt lat="28.3672" lon="83.6281">
        <ele>2194.35</ele>
        <time>2013-10-27T08:21:46Z</time>
      </trkpt>
      <trkpt lat="28.36715" lon="83.62815">
        <ele>2194.83</ele>
        <time>2013-10-27T08:21:53Z</time>
      </trkpt>
      <trkpt lat="28.36707" lon="83.62822">
        <ele>2193.39</ele>
        <time>2013-10-27T08:22:03Z</time>
      </trkpt>
      <trkpt lat="28.36697" lon="83.62823">
        <ele>2192.9</ele>
        <time>2013-10-27T08:22:13Z</time>
      </trkpt>
      <trkpt lat="28.36692" lon="83.62824">
        <ele>2193.39</ele>
        <time>2013-10-27T08:22:18Z</time>
      </trkpt>
      <trkpt lat="28.3668" lon="83.62829">
        <ele>2192.42</ele>
        <time>2013-10-27T08:22:31Z</time>
      </trkpt>
      <trkpt lat="28.36676" lon="83.62832">
        <ele>2191.94</ele>
        <time>2013-10-27T08:22:35Z</time>
      </trkpt>
      <trkpt lat="28.36666" lon="83.62831">
        <ele>2191.94</ele>
        <time>2013-10-27T08:22:44Z</time>
      </trkpt>
      <trkpt lat="28.36662" lon="83.62832">
        <ele>2191.94</ele>
        <time>2013-10-27T08:22:48Z</time>
      </trkpt>
      <trkpt lat="28.3666" lon="83.62833">
        <ele>2191.94</ele>
        <time>2013-10-27T08:22:50Z</time>
      </trkpt>
      <trkpt lat="28.36655" lon="83.62834">
        <ele>2192.9</ele>
        <time>2013-10-27T08:23:02Z</time>
      </trkpt>
      <trkpt lat="28.36655" lon="83.62834">
        <ele>2192.42</ele>
        <time>2013-10-27T08:23:03Z</time>
      </trkpt>
      <trkpt lat="28.36649" lon="83.62838">
        <ele>2192.9</ele>
        <time>2013-10-27T08:23:09Z</time>
      </trkpt>
      <trkpt lat="28.36646" lon="83.6284">
        <ele>2192.9</ele>
        <time>2013-10-27T08:23:12Z</time>
      </trkpt>
      <trkpt lat="28.36639" lon="83.62843">
        <ele>2194.35</ele>
        <time>2013-10-27T08:23:21Z</time>
      </trkpt>
      <trkpt lat="28.36625" lon="83.62848">
        <ele>2194.83</ele>
        <time>2013-10-27T08:23:34Z</time>
      </trkpt>
      <trkpt lat="28.36616" lon="83.6285">
        <ele>2195.31</ele>
        <time>2013-10-27T08:23:46Z</time>
      </trkpt>
      <trkpt lat="28.3661" lon="83.62854">
        <ele>2194.35</ele>
        <time>2013-10-27T08:24:00Z</time>
      </trkpt>
      <trkpt lat="28.366" lon="83.62855">
        <ele>2194.83</ele>
        <time>2013-10-27T08:24:12Z</time>
      </trkpt>
      <trkpt lat="28.36596" lon="83.62857">
        <ele>2194.83</ele>
        <time>2013-10-27T08:24:27Z</time>
      </trkpt>
      <trkpt lat="28.36596" lon="83.62864">
        <ele>2196.27</ele>
        <time>2013-10-27T08:24:43Z</time>
      </trkpt>
      <trkpt lat="28.36595" lon="83.62867">
        <ele>2196.75</ele>
        <time>2013-10-27T08:24:46Z</time>
      </trkpt>
      <trkpt lat="28.3659" lon="83.62872">
        <ele>2198.67</ele>
        <time>2013-10-27T08:25:03Z</time>
      </trkpt>
      <trkpt lat="28.36586" lon="83.62873">
        <ele>2200.11</ele>
        <time>2013-10-27T08:25:13Z</time>
      </trkpt>
      <trkpt lat="28.36584" lon="83.62876">
        <ele>2200.11</ele>
        <time>2013-10-27T08:25:29Z</time>
      </trkpt>
      <trkpt lat="28.36583" lon="83.62878">
        <ele>2199.15</ele>
        <time>2013-10-27T08:25:47Z</time>
      </trkpt>
      <trkpt lat="28.36568" lon="83.62885">
        <ele>2198.19</ele>
        <time>2013-10-27T08:25:56Z</time>
      </trkpt>
      <trkpt lat="28.36571" lon="83.62883">
        <ele>2198.67</ele>
        <time>2013-10-27T08:26:11Z</time>
      </trkpt>
      <trkpt lat="28.36567" lon="83.62886">
        <ele>2200.11</ele>
        <time>2013-10-27T08:26:27Z</time>
      </trkpt>
      <trkpt lat="28.36567" lon="83.6289">
        <ele>2199.63</ele>
        <time>2013-10-27T08:26:35Z</time>
      </trkpt>
      <trkpt lat="28.36569" lon="83.62893">
        <ele>2199.15</ele>
        <time>2013-10-27T08:26:43Z</time>
      </trkpt>
      <trkpt lat="28.36572" lon="83.62893">
        <ele>2199.15</ele>
        <time>2013-10-27T08:26:46Z</time>
      </trkpt>
      <trkpt lat="28.36573" lon="83.62894">
        <ele>2199.63</ele>
        <time>2013-10-27T08:26:47Z</time>
      </trkpt>
      <trkpt lat="28.36578" lon="83.62897">
        <ele>2199.15</ele>
        <time>2013-10-27T08:26:59Z</time>
      </trkpt>
      <trkpt lat="28.36648" lon="83.62833">
        <ele>2198.67</ele>
        <time>2013-10-27T08:27:21Z</time>
      </trkpt>
      <trkpt lat="28.36637" lon="83.62852">
        <ele>2198.67</ele>
        <time>2013-10-27T08:27:24Z</time>
      </trkpt>
      <trkpt lat="28.3663" lon="83.62875">
        <ele>2198.19</ele>
        <time>2013-10-27T08:27:35Z</time>
      </trkpt>
      <trkpt lat="28.36616" lon="83.62904">
        <ele>2199.15</ele>
        <time>2013-10-27T08:27:46Z</time>
      </trkpt>
      <trkpt lat="28.3661" lon="83.62915">
        <ele>2200.59</ele>
        <time>2013-10-27T08:27:58Z</time>
      </trkpt>
      <trkpt lat="28.36607" lon="83.62926">
        <ele>2202.04</ele>
        <time>2013-10-27T08:28:08Z</time>
      </trkpt>
      <trkpt lat="28.36604" lon="83.62938">
        <ele>2202.52</ele>
        <time>2013-10-27T08:28:18Z</time>
      </trkpt>
      <trkpt lat="28.36604" lon="83.62952">
        <ele>2204.44</ele>
        <time>2013-10-27T08:28:32Z</time>
      </trkpt>
      <trkpt lat="28.36603" lon="83.62959">
        <ele>2205.4</ele>
        <time>2013-10-27T08:28:43Z</time>
      </trkpt>
      <trkpt lat="28.366" lon="83.62967">
        <ele>2207.81</ele>
        <time>2013-10-27T08:28:59Z</time>
      </trkpt>
      <trkpt lat="28.36598" lon="83.62965">
        <ele>2207.81</ele>
        <time>2013-10-27T08:29:15Z</time>
      </trkpt>
      <trkpt lat="28.36594" lon="83.62963">
        <ele>2207.81</ele>
        <time>2013-10-27T08:29:32Z</time>
      </trkpt>
      <trkpt lat="28.36592" lon="83.62963">
        <ele>2207.32</ele>
        <time>2013-10-27T08:29:54Z</time>
      </trkpt>
      <trkpt lat="28.3659" lon="83.62963">
        <ele>2207.32</ele>
        <time>2013-10-27T08:30:24Z</time>
      </trkpt>
      <trkpt lat="28.36588" lon="83.62964">
        <ele>2207.81</ele>
        <time>2013-10-27T08:30:40Z</time>
      </trkpt>
      <trkpt lat="28.36589" lon="83.62965">
        <ele>2207.81</ele>
        <time>2013-10-27T08:30:59Z</time>
      </trkpt>
      <trkpt lat="28.36585" lon="83.6297">
        <ele>2207.32</ele>
        <time>2013-10-27T08:31:14Z</time>
      </trkpt>
      <trkpt lat="28.36575" lon="83.62974">
        <ele>2206.36</ele>
        <time>2013-10-27T08:31:28Z</time>
      </trkpt>
      <trkpt lat="28.36573" lon="83.62975">
        <ele>2206.84</ele>
        <time>2013-10-27T08:31:31Z</time>
      </trkpt>
      <trkpt lat="28.36565" lon="83.62977">
        <ele>2206.36</ele>
        <time>2013-10-27T08:31:45Z</time>
      </trkpt>
      <trkpt lat="28.36561" lon="83.62981">
        <ele>2206.36</ele>
        <time>2013-10-27T08:31:59Z</time>
      </trkpt>
      <trkpt lat="28.36561" lon="83.62987">
        <ele>2207.32</ele>
        <time>2013-10-27T08:32:11Z</time>
      </trkpt>
      <trkpt lat="28.36567" lon="83.62992">
        <ele>2207.81</ele>
        <time>2013-10-27T08:32:23Z</time>
      </trkpt>
      <trkpt lat="28.36568" lon="83.62993">
        <ele>2208.77</ele>
        <time>2013-10-27T08:32:26Z</time>
      </trkpt>
      <trkpt lat="28.36569" lon="83.62995">
        <ele>2210.21</ele>
        <time>2013-10-27T08:32:40Z</time>
      </trkpt>
      <trkpt lat="28.36571" lon="83.62996">
        <ele>2212.61</ele>
        <time>2013-10-27T08:32:56Z</time>
      </trkpt>
      <trkpt lat="28.36572" lon="83.63008">
        <ele>2215.5</ele>
        <time>2013-10-27T08:33:13Z</time>
      </trkpt>
      <trkpt lat="28.36572" lon="83.6302">
        <ele>2215.98</ele>
        <time>2013-10-27T08:33:29Z</time>
      </trkpt>
      <trkpt lat="28.3657" lon="83.63025">
        <ele>2215.5</ele>
        <time>2013-10-27T08:33:41Z</time>
      </trkpt>
      <trkpt lat="28.36573" lon="83.63028">
        <ele>2216.46</ele>
        <time>2013-10-27T08:33:57Z</time>
      </trkpt>
      <trkpt lat="28.36573" lon="83.63027">
        <ele>2215.98</ele>
        <time>2013-10-27T08:34:01Z</time>
      </trkpt>
      <trkpt lat="28.36578" lon="83.6302">
        <ele>2217.42</ele>
        <time>2013-10-27T08:34:15Z</time>
      </trkpt>
      <trkpt lat="28.36578" lon="83.63033">
        <ele>2218.38</ele>
        <time>2013-10-27T08:34:24Z</time>
      </trkpt>
      <trkpt lat="28.36577" lon="83.63044">
        <ele>2218.86</ele>
        <time>2013-10-27T08:34:33Z</time>
      </trkpt>
      <trkpt lat="28.36581" lon="83.63053">
        <ele>2219.34</ele>
        <time>2013-10-27T08:34:47Z</time>
      </trkpt>
      <trkpt lat="28.36581" lon="83.63063">
        <ele>2221.26</ele>
        <time>2013-10-27T08:35:01Z</time>
      </trkpt>
      <trkpt lat="28.36584" lon="83.63069">
        <ele>2222.22</ele>
        <time>2013-10-27T08:35:15Z</time>
      </trkpt>
      <trkpt lat="28.36586" lon="83.63082">
        <ele>2221.74</ele>
        <time>2013-10-27T08:35:30Z</time>
      </trkpt>
      <trkpt lat="28.3659" lon="83.63086">
        <ele>2222.71</ele>
        <time>2013-10-27T08:35:38Z</time>
      </trkpt>
      <trkpt lat="28.36597" lon="83.63095">
        <ele>2223.19</ele>
        <time>2013-10-27T08:35:49Z</time>
      </trkpt>
      <trkpt lat="28.36608" lon="83.63102">
        <ele>2224.15</ele>
        <time>2013-10-27T08:36:04Z</time>
      </trkpt>
      <trkpt lat="28.36616" lon="83.6311">
        <ele>2226.07</ele>
        <time>2013-10-27T08:36:21Z</time>
      </trkpt>
      <trkpt lat="28.36618" lon="83.63118">
        <ele>2227.51</ele>
        <time>2013-10-27T08:36:34Z</time>
      </trkpt>
      <trkpt lat="28.36622" lon="83.6313">
        <ele>2228.95</ele>
        <time>2013-10-27T08:36:48Z</time>
      </trkpt>
      <trkpt lat="28.36625" lon="83.63134">
        <ele>2229.43</ele>
        <time>2013-10-27T08:36:53Z</time>
      </trkpt>
      <trkpt lat="28.36628" lon="83.63143">
        <ele>2230.4</ele>
        <time>2013-10-27T08:37:03Z</time>
      </trkpt>
      <trkpt lat="28.36627" lon="83.63151">
        <ele>2232.8</ele>
        <time>2013-10-27T08:37:18Z</time>
      </trkpt>
      <trkpt lat="28.36626" lon="83.63155">
        <ele>2233.76</ele>
        <time>2013-10-27T08:37:32Z</time>
      </trkpt>
      <trkpt lat="28.36626" lon="83.63156">
        <ele>2234.24</ele>
        <time>2013-10-27T08:38:06Z</time>
      </trkpt>
      <trkpt lat="28.36626" lon="83.63156">
        <ele>2234.24</ele>
        <time>2013-10-27T08:38:32Z</time>
      </trkpt>
      <trkpt lat="28.36625" lon="83.63156">
        <ele>2234.24</ele>
        <time>2013-10-27T08:39:02Z</time>
      </trkpt>
      <trkpt lat="28.36624" lon="83.63157">
        <ele>2234.24</ele>
        <time>2013-10-27T08:39:33Z</time>
      </trkpt>
      <trkpt lat="28.36624" lon="83.63156">
        <ele>2234.72</ele>
        <time>2013-10-27T08:40:06Z</time>
      </trkpt>
      <trkpt lat="28.36624" lon="83.63156">
        <ele>2235.2</ele>
        <time>2013-10-27T08:40:32Z</time>
      </trkpt>
      <trkpt lat="28.36624" lon="83.63158">
        <ele>2235.2</ele>
        <time>2013-10-27T08:40:53Z</time>
      </trkpt>
      <trkpt lat="28.36623" lon="83.63158">
        <ele>2235.2</ele>
        <time>2013-10-27T08:41:10Z</time>
      </trkpt>
      <trkpt lat="28.36621" lon="83.6316">
        <ele>2235.2</ele>
        <time>2013-10-27T08:41:43Z</time>
      </trkpt>
      <trkpt lat="28.36621" lon="83.6316">
        <ele>2234.72</ele>
        <time>2013-10-27T08:42:12Z</time>
      </trkpt>
      <trkpt lat="28.36621" lon="83.6316">
        <ele>2234.72</ele>
        <time>2013-10-27T08:42:41Z</time>
      </trkpt>
      <trkpt lat="28.36621" lon="83.6316">
        <ele>2234.72</ele>
        <time>2013-10-27T08:43:18Z</time>
      </trkpt>
      <trkpt lat="28.3662" lon="83.63161">
        <ele>2234.72</ele>
        <time>2013-10-27T08:43:49Z</time>
      </trkpt>
      <trkpt lat="28.3662" lon="83.63161">
        <ele>2234.72</ele>
        <time>2013-10-27T08:44:23Z</time>
      </trkpt>
      <trkpt lat="28.3662" lon="83.63161">
        <ele>2234.24</ele>
        <time>2013-10-27T08:44:55Z</time>
      </trkpt>
      <trkpt lat="28.3662" lon="83.63161">
        <ele>2234.24</ele>
        <time>2013-10-27T08:45:26Z</time>
      </trkpt>
      <trkpt lat="28.3662" lon="83.63161">
        <ele>2234.24</ele>
        <time>2013-10-27T08:45:34Z</time>
      </trkpt>
      <trkpt lat="28.36625" lon="83.63167">
        <ele>2234.24</ele>
        <time>2013-10-27T08:45:46Z</time>
      </trkpt>
      <trkpt lat="28.36623" lon="83.63168">
        <ele>2236.16</ele>
        <time>2013-10-27T08:45:58Z</time>
      </trkpt>
      <trkpt lat="28.36622" lon="83.63171">
        <ele>2235.68</ele>
        <time>2013-10-27T08:46:01Z</time>
      </trkpt>
      <trkpt lat="28.36615" lon="83.63181">
        <ele>2236.16</ele>
        <time>2013-10-27T08:46:12Z</time>
      </trkpt>
      <trkpt lat="28.36609" lon="83.6319">
        <ele>2237.13</ele>
        <time>2013-10-27T08:46:25Z</time>
      </trkpt>
      <trkpt lat="28.36606" lon="83.63197">
        <ele>2238.57</ele>
        <time>2013-10-27T08:46:37Z</time>
      </trkpt>
      <trkpt lat="28.36607" lon="83.63198">
        <ele>2238.09</ele>
        <time>2013-10-27T08:46:39Z</time>
      </trkpt>
      <trkpt lat="28.36606" lon="83.63205">
        <ele>2239.53</ele>
        <time>2013-10-27T08:46:51Z</time>
      </trkpt>
      <trkpt lat="28.36605" lon="83.63212">
        <ele>2240.97</ele>
        <time>2013-10-27T08:47:02Z</time>
      </trkpt>
      <trkpt lat="28.36601" lon="83.6322">
        <ele>2241.93</ele>
        <time>2013-10-27T08:47:12Z</time>
      </trkpt>
      <trkpt lat="28.36597" lon="83.63231">
        <ele>2241.93</ele>
        <time>2013-10-27T08:47:23Z</time>
      </trkpt>
      <trkpt lat="28.36593" lon="83.63234">
        <ele>2241.93</ele>
        <time>2013-10-27T08:47:28Z</time>
      </trkpt>
      <trkpt lat="28.36582" lon="83.63241">
        <ele>2241.93</ele>
        <time>2013-10-27T08:47:42Z</time>
      </trkpt>
      <trkpt lat="28.36575" lon="83.63246">
        <ele>2241.45</ele>
        <time>2013-10-27T08:47:51Z</time>
      </trkpt>
      <trkpt lat="28.36566" lon="83.63246">
        <ele>2241.93</ele>
        <time>2013-10-27T08:48:01Z</time>
      </trkpt>
      <trkpt lat="28.36563" lon="83.6325">
        <ele>2241.93</ele>
        <time>2013-10-27T08:48:06Z</time>
      </trkpt>
      <trkpt lat="28.3656" lon="83.63252">
        <ele>2242.41</ele>
        <time>2013-10-27T08:48:09Z</time>
      </trkpt>
      <trkpt lat="28.36547" lon="83.63257">
        <ele>2241.93</ele>
        <time>2013-10-27T08:48:24Z</time>
      </trkpt>
      <trkpt lat="28.36537" lon="83.63263">
        <ele>2240.97</ele>
        <time>2013-10-27T08:48:35Z</time>
      </trkpt>
      <trkpt lat="28.36531" lon="83.63266">
        <ele>2240.97</ele>
        <time>2013-10-27T08:48:43Z</time>
      </trkpt>
      <trkpt lat="28.36529" lon="83.63269">
        <ele>2240.97</ele>
        <time>2013-10-27T08:48:45Z</time>
      </trkpt>
      <trkpt lat="28.36527" lon="83.63269">
        <ele>2240.97</ele>
        <time>2013-10-27T08:48:47Z</time>
      </trkpt>
      <trkpt lat="28.36525" lon="83.63271">
        <ele>2240.97</ele>
        <time>2013-10-27T08:48:49Z</time>
      </trkpt>
      <trkpt lat="28.36513" lon="83.63271">
        <ele>2240.97</ele>
        <time>2013-10-27T08:49:02Z</time>
      </trkpt>
      <trkpt lat="28.36503" lon="83.63274">
        <ele>2240.49</ele>
        <time>2013-10-27T08:49:14Z</time>
      </trkpt>
      <trkpt lat="28.365" lon="83.63276">
        <ele>2240.49</ele>
        <time>2013-10-27T08:49:17Z</time>
      </trkpt>
      <trkpt lat="28.36488" lon="83.63277">
        <ele>2240.01</ele>
        <time>2013-10-27T08:49:30Z</time>
      </trkpt>
      <trkpt lat="28.36485" lon="83.63278">
        <ele>2239.53</ele>
        <time>2013-10-27T08:49:46Z</time>
      </trkpt>
      <trkpt lat="28.36479" lon="83.6328">
        <ele>2239.05</ele>
        <time>2013-10-27T08:49:56Z</time>
      </trkpt>
      <trkpt lat="28.36472" lon="83.63283">
        <ele>2239.05</ele>
        <time>2013-10-27T08:50:05Z</time>
      </trkpt>
      <trkpt lat="28.36467" lon="83.63286">
        <ele>2239.05</ele>
        <time>2013-10-27T08:50:18Z</time>
      </trkpt>
      <trkpt lat="28.36464" lon="83.63288">
        <ele>2238.57</ele>
        <time>2013-10-27T08:50:33Z</time>
      </trkpt>
      <trkpt lat="28.3646" lon="83.6329">
        <ele>2239.05</ele>
        <time>2013-10-27T08:50:50Z</time>
      </trkpt>
      <trkpt lat="28.36448" lon="83.63299">
        <ele>2239.53</ele>
        <time>2013-10-27T08:51:02Z</time>
      </trkpt>
      <trkpt lat="28.36439" lon="83.63303">
        <ele>2240.01</ele>
        <time>2013-10-27T08:51:12Z</time>
      </trkpt>
      <trkpt lat="28.36439" lon="83.63304">
        <ele>2239.53</ele>
        <time>2013-10-27T08:51:13Z</time>
      </trkpt>
      <trkpt lat="28.36431" lon="83.63311">
        <ele>2240.49</ele>
        <time>2013-10-27T08:51:23Z</time>
      </trkpt>
      <trkpt lat="28.36429" lon="83.63314">
        <ele>2240.49</ele>
        <time>2013-10-27T08:51:27Z</time>
      </trkpt>
      <trkpt lat="28.36421" lon="83.63323">
        <ele>2239.05</ele>
        <time>2013-10-27T08:51:40Z</time>
      </trkpt>
      <trkpt lat="28.36417" lon="83.63335">
        <ele>2239.53</ele>
        <time>2013-10-27T08:51:53Z</time>
      </trkpt>
      <trkpt lat="28.36417" lon="83.63337">
        <ele>2239.53</ele>
        <time>2013-10-27T08:51:55Z</time>
      </trkpt>
      <trkpt lat="28.36411" lon="83.63349">
        <ele>2240.49</ele>
        <time>2013-10-27T08:52:10Z</time>
      </trkpt>
      <trkpt lat="28.36408" lon="83.63356">
        <ele>2242.41</ele>
        <time>2013-10-27T08:52:23Z</time>
      </trkpt>
      <trkpt lat="28.36406" lon="83.6336">
        <ele>2242.41</ele>
        <time>2013-10-27T08:52:27Z</time>
      </trkpt>
      <trkpt lat="28.36404" lon="83.63366">
        <ele>2242.89</ele>
        <time>2013-10-27T08:52:33Z</time>
      </trkpt>
      <trkpt lat="28.36395" lon="83.63376">
        <ele>2243.85</ele>
        <time>2013-10-27T08:52:47Z</time>
      </trkpt>
      <trkpt lat="28.36393" lon="83.63378">
        <ele>2243.37</ele>
        <time>2013-10-27T08:52:49Z</time>
      </trkpt>
      <trkpt lat="28.36387" lon="83.6338">
        <ele>2243.37</ele>
        <time>2013-10-27T08:52:59Z</time>
      </trkpt>
      <trkpt lat="28.36383" lon="83.6338">
        <ele>2241.93</ele>
        <time>2013-10-27T08:53:11Z</time>
      </trkpt>
      <trkpt lat="28.3638" lon="83.63382">
        <ele>2240.49</ele>
        <time>2013-10-27T08:53:21Z</time>
      </trkpt>
      <trkpt lat="28.36377" lon="83.63384">
        <ele>2240.49</ele>
        <time>2013-10-27T08:53:31Z</time>
      </trkpt>
      <trkpt lat="28.36372" lon="83.63385">
        <ele>2240.49</ele>
        <time>2013-10-27T08:53:43Z</time>
      </trkpt>
      <trkpt lat="28.36365" lon="83.63387">
        <ele>2238.57</ele>
        <time>2013-10-27T08:53:55Z</time>
      </trkpt>
      <trkpt lat="28.36354" lon="83.63388">
        <ele>2240.01</ele>
        <time>2013-10-27T08:54:08Z</time>
      </trkpt>
      <trkpt lat="28.36352" lon="83.63391">
        <ele>2239.53</ele>
        <time>2013-10-27T08:54:21Z</time>
      </trkpt>
      <trkpt lat="28.36348" lon="83.63392">
        <ele>2240.01</ele>
        <time>2013-10-27T08:54:32Z</time>
      </trkpt>
      <trkpt lat="28.36345" lon="83.63396">
        <ele>2241.93</ele>
        <time>2013-10-27T08:54:44Z</time>
      </trkpt>
      <trkpt lat="28.36349" lon="83.63405">
        <ele>2240.49</ele>
        <time>2013-10-27T08:54:56Z</time>
      </trkpt>
      <trkpt lat="28.36347" lon="83.63411">
        <ele>2240.97</ele>
        <time>2013-10-27T08:55:07Z</time>
      </trkpt>
      <trkpt lat="28.36346" lon="83.63415">
        <ele>2243.37</ele>
        <time>2013-10-27T08:55:20Z</time>
      </trkpt>
      <trkpt lat="28.36345" lon="83.63423">
        <ele>2245.78</ele>
        <time>2013-10-27T08:55:32Z</time>
      </trkpt>
      <trkpt lat="28.36344" lon="83.63428">
        <ele>2246.26</ele>
        <time>2013-10-27T08:55:38Z</time>
      </trkpt>
      <trkpt lat="28.36343" lon="83.6344">
        <ele>2246.26</ele>
        <time>2013-10-27T08:55:48Z</time>
      </trkpt>
      <trkpt lat="28.3634" lon="83.63457">
        <ele>2247.7</ele>
        <time>2013-10-27T08:56:02Z</time>
      </trkpt>
      <trkpt lat="28.36339" lon="83.63463">
        <ele>2247.7</ele>
        <time>2013-10-27T08:56:07Z</time>
      </trkpt>
      <trkpt lat="28.3634" lon="83.63474">
        <ele>2247.22</ele>
        <time>2013-10-27T08:56:16Z</time>
      </trkpt>
      <trkpt lat="28.36342" lon="83.63487">
        <ele>2248.18</ele>
        <time>2013-10-27T08:56:28Z</time>
      </trkpt>
      <trkpt lat="28.36341" lon="83.63489">
        <ele>2248.18</ele>
        <time>2013-10-27T08:56:30Z</time>
      </trkpt>
      <trkpt lat="28.36335" lon="83.63501">
        <ele>2248.18</ele>
        <time>2013-10-27T08:56:41Z</time>
      </trkpt>
      <trkpt lat="28.36334" lon="83.63505">
        <ele>2248.18</ele>
        <time>2013-10-27T08:56:44Z</time>
      </trkpt>
      <trkpt lat="28.36332" lon="83.63512">
        <ele>2248.66</ele>
        <time>2013-10-27T08:56:49Z</time>
      </trkpt>
      <trkpt lat="28.3633" lon="83.63521">
        <ele>2248.66</ele>
        <time>2013-10-27T08:56:57Z</time>
      </trkpt>
      <trkpt lat="28.36329" lon="83.63526">
        <ele>2248.66</ele>
        <time>2013-10-27T08:57:02Z</time>
      </trkpt>
      <trkpt lat="28.36328" lon="83.63529">
        <ele>2248.66</ele>
        <time>2013-10-27T08:57:05Z</time>
      </trkpt>
      <trkpt lat="28.36324" lon="83.63541">
        <ele>2249.14</ele>
        <time>2013-10-27T08:57:16Z</time>
      </trkpt>
      <trkpt lat="28.36324" lon="83.63545">
        <ele>2249.14</ele>
        <time>2013-10-27T08:57:19Z</time>
      </trkpt>
      <trkpt lat="28.36324" lon="83.63547">
        <ele>2249.14</ele>
        <time>2013-10-27T08:57:21Z</time>
      </trkpt>
      <trkpt lat="28.36323" lon="83.6355">
        <ele>2249.62</ele>
        <time>2013-10-27T08:57:23Z</time>
      </trkpt>
      <trkpt lat="28.36323" lon="83.63552">
        <ele>2249.62</ele>
        <time>2013-10-27T08:57:25Z</time>
      </trkpt>
      <trkpt lat="28.36322" lon="83.63556">
        <ele>2249.14</ele>
        <time>2013-10-27T08:57:28Z</time>
      </trkpt>
      <trkpt lat="28.36321" lon="83.6356">
        <ele>2249.62</ele>
        <time>2013-10-27T08:57:32Z</time>
      </trkpt>
      <trkpt lat="28.36316" lon="83.63572">
        <ele>2249.62</ele>
        <time>2013-10-27T08:57:44Z</time>
      </trkpt>
      <trkpt lat="28.36315" lon="83.63579">
        <ele>2250.58</ele>
        <time>2013-10-27T08:57:50Z</time>
      </trkpt>
      <trkpt lat="28.36315" lon="83.63582">
        <ele>2251.06</ele>
        <time>2013-10-27T08:57:53Z</time>
      </trkpt>
      <trkpt lat="28.36315" lon="83.63584">
        <ele>2251.06</ele>
        <time>2013-10-27T08:57:55Z</time>
      </trkpt>
      <trkpt lat="28.36314" lon="83.63596">
        <ele>2252.51</ele>
        <time>2013-10-27T08:58:08Z</time>
      </trkpt>
      <trkpt lat="28.36315" lon="83.63597">
        <ele>2252.03</ele>
        <time>2013-10-27T08:58:09Z</time>
      </trkpt>
      <trkpt lat="28.36316" lon="83.63609">
        <ele>2253.95</ele>
        <time>2013-10-27T08:58:21Z</time>
      </trkpt>
      <trkpt lat="28.36316" lon="83.63612">
        <ele>2254.43</ele>
        <time>2013-10-27T08:58:24Z</time>
      </trkpt>
      <trkpt lat="28.3632" lon="83.63618">
        <ele>2255.39</ele>
        <time>2013-10-27T08:58:31Z</time>
      </trkpt>
      <trkpt lat="28.36327" lon="83.63628">
        <ele>2257.31</ele>
        <time>2013-10-27T08:58:43Z</time>
      </trkpt>
      <trkpt lat="28.36329" lon="83.63636">
        <ele>2258.27</ele>
        <time>2013-10-27T08:58:50Z</time>
      </trkpt>
      <trkpt lat="28.36329" lon="83.63647">
        <ele>2258.75</ele>
        <time>2013-10-27T08:59:01Z</time>
      </trkpt>
      <trkpt lat="28.36329" lon="83.63661">
        <ele>2258.75</ele>
        <time>2013-10-27T08:59:13Z</time>
      </trkpt>
      <trkpt lat="28.36328" lon="83.63666">
        <ele>2258.75</ele>
        <time>2013-10-27T08:59:25Z</time>
      </trkpt>
      <trkpt lat="28.36328" lon="83.63673">
        <ele>2257.79</ele>
        <time>2013-10-27T08:59:36Z</time>
      </trkpt>
      <trkpt lat="28.36328" lon="83.63679">
        <ele>2257.31</ele>
        <time>2013-10-27T08:59:40Z</time>
      </trkpt>
      <trkpt lat="28.36326" lon="83.63692">
        <ele>2257.79</ele>
        <time>2013-10-27T08:59:54Z</time>
      </trkpt>
      <trkpt lat="28.36326" lon="83.63694">
        <ele>2257.79</ele>
        <time>2013-10-27T08:59:57Z</time>
      </trkpt>
      <trkpt lat="28.36324" lon="83.63703">
        <ele>2258.27</ele>
        <time>2013-10-27T09:00:06Z</time>
      </trkpt>
      <trkpt lat="28.36324" lon="83.63709">
        <ele>2257.79</ele>
        <time>2013-10-27T09:00:11Z</time>
      </trkpt>
      <trkpt lat="28.36325" lon="83.63715">
        <ele>2257.31</ele>
        <time>2013-10-27T09:00:17Z</time>
      </trkpt>
      <trkpt lat="28.36328" lon="83.63719">
        <ele>2257.31</ele>
        <time>2013-10-27T09:00:21Z</time>
      </trkpt>
      <trkpt lat="28.36332" lon="83.63726">
        <ele>2256.83</ele>
        <time>2013-10-27T09:00:28Z</time>
      </trkpt>
      <trkpt lat="28.36331" lon="83.63732">
        <ele>2256.35</ele>
        <time>2013-10-27T09:00:42Z</time>
      </trkpt>
      <trkpt lat="28.36331" lon="83.63733">
        <ele>2256.35</ele>
        <time>2013-10-27T09:01:12Z</time>
      </trkpt>
      <trkpt lat="28.36332" lon="83.63734">
        <ele>2256.35</ele>
        <time>2013-10-27T09:01:28Z</time>
      </trkpt>
      <trkpt lat="28.36332" lon="83.63735">
        <ele>2256.35</ele>
        <time>2013-10-27T09:01:45Z</time>
      </trkpt>
      <trkpt lat="28.36332" lon="83.63736">
        <ele>2256.83</ele>
        <time>2013-10-27T09:01:46Z</time>
      </trkpt>
      <trkpt lat="28.36333" lon="83.63741">
        <ele>2256.83</ele>
        <time>2013-10-27T09:01:50Z</time>
      </trkpt>
      <trkpt lat="28.36331" lon="83.63745">
        <ele>2256.83</ele>
        <time>2013-10-27T09:01:53Z</time>
      </trkpt>
      <trkpt lat="28.36332" lon="83.63752">
        <ele>2256.35</ele>
        <time>2013-10-27T09:01:58Z</time>
      </trkpt>
      <trkpt lat="28.3633" lon="83.63759">
        <ele>2256.35</ele>
        <time>2013-10-27T09:02:02Z</time>
      </trkpt>
      <trkpt lat="28.36327" lon="83.63767">
        <ele>2255.87</ele>
        <time>2013-10-27T09:02:08Z</time>
      </trkpt>
      <trkpt lat="28.36326" lon="83.63771">
        <ele>2255.39</ele>
        <time>2013-10-27T09:02:11Z</time>
      </trkpt>
      <trkpt lat="28.36322" lon="83.63777">
        <ele>2255.39</ele>
        <time>2013-10-27T09:02:16Z</time>
      </trkpt>
      <trkpt lat="28.3632" lon="83.63779">
        <ele>2254.91</ele>
        <time>2013-10-27T09:02:18Z</time>
      </trkpt>
      <trkpt lat="28.36316" lon="83.63784">
        <ele>2254.43</ele>
        <time>2013-10-27T09:02:22Z</time>
      </trkpt>
      <trkpt lat="28.36311" lon="83.63792">
        <ele>2253.47</ele>
        <time>2013-10-27T09:02:28Z</time>
      </trkpt>
      <trkpt lat="28.36303" lon="83.63807">
        <ele>2252.99</ele>
        <time>2013-10-27T09:02:40Z</time>
      </trkpt>
      <trkpt lat="28.36299" lon="83.6381">
        <ele>2253.47</ele>
        <time>2013-10-27T09:02:44Z</time>
      </trkpt>
      <trkpt lat="28.36298" lon="83.63811">
        <ele>2253.47</ele>
        <time>2013-10-27T09:02:46Z</time>
      </trkpt>
      <trkpt lat="28.36291" lon="83.63817">
        <ele>2252.99</ele>
        <time>2013-10-27T09:02:53Z</time>
      </trkpt>
      <trkpt lat="28.3629" lon="83.63819">
        <ele>2252.99</ele>
        <time>2013-10-27T09:02:55Z</time>
      </trkpt>
      <trkpt lat="28.36289" lon="83.63823">
        <ele>2252.51</ele>
        <time>2013-10-27T09:02:58Z</time>
      </trkpt>
      <trkpt lat="28.3629" lon="83.63825">
        <ele>2252.99</ele>
        <time>2013-10-27T09:03:00Z</time>
      </trkpt>
      <trkpt lat="28.36289" lon="83.63831">
        <ele>2253.47</ele>
        <time>2013-10-27T09:03:05Z</time>
      </trkpt>
      <trkpt lat="28.36287" lon="83.63836">
        <ele>2253.95</ele>
        <time>2013-10-27T09:03:08Z</time>
      </trkpt>
      <trkpt lat="28.36288" lon="83.63844">
        <ele>2254.43</ele>
        <time>2013-10-27T09:03:17Z</time>
      </trkpt>
      <trkpt lat="28.3629" lon="83.63842">
        <ele>2255.87</ele>
        <time>2013-10-27T09:03:31Z</time>
      </trkpt>
      <trkpt lat="28.36293" lon="83.63842">
        <ele>2258.27</ele>
        <time>2013-10-27T09:03:44Z</time>
      </trkpt>
      <trkpt lat="28.36296" lon="83.63842">
        <ele>2260.68</ele>
        <time>2013-10-27T09:03:59Z</time>
      </trkpt>
      <trkpt lat="28.36299" lon="83.63842">
        <ele>2262.12</ele>
        <time>2013-10-27T09:04:12Z</time>
      </trkpt>
      <trkpt lat="28.36301" lon="83.63844">
        <ele>2265</ele>
        <time>2013-10-27T09:04:26Z</time>
      </trkpt>
      <trkpt lat="28.36303" lon="83.63844">
        <ele>2266.93</ele>
        <time>2013-10-27T09:04:39Z</time>
      </trkpt>
      <trkpt lat="28.36308" lon="83.6385">
        <ele>2268.85</ele>
        <time>2013-10-27T09:04:53Z</time>
      </trkpt>
      <trkpt lat="28.36324" lon="83.63857">
        <ele>2269.81</ele>
        <time>2013-10-27T09:05:01Z</time>
      </trkpt>
      <trkpt lat="28.36343" lon="83.63864">
        <ele>2271.25</ele>
        <time>2013-10-27T09:05:16Z</time>
      </trkpt>
      <trkpt lat="28.36345" lon="83.63873">
        <ele>2271.73</ele>
        <time>2013-10-27T09:05:26Z</time>
      </trkpt>
      <trkpt lat="28.36346" lon="83.63875">
        <ele>2272.21</ele>
        <time>2013-10-27T09:05:28Z</time>
      </trkpt>
      <trkpt lat="28.36347" lon="83.63878">
        <ele>2272.21</ele>
        <time>2013-10-27T09:05:31Z</time>
      </trkpt>
      <trkpt lat="28.36355" lon="83.63889">
        <ele>2271.73</ele>
        <time>2013-10-27T09:05:45Z</time>
      </trkpt>
      <trkpt lat="28.36358" lon="83.63894">
        <ele>2271.73</ele>
        <time>2013-10-27T09:05:57Z</time>
      </trkpt>
      <trkpt lat="28.3636" lon="83.63899">
        <ele>2272.21</ele>
        <time>2013-10-27T09:06:11Z</time>
      </trkpt>
      <trkpt lat="28.36363" lon="83.63904">
        <ele>2272.21</ele>
        <time>2013-10-27T09:06:17Z</time>
      </trkpt>
      <trkpt lat="28.36368" lon="83.63908">
        <ele>2271.73</ele>
        <time>2013-10-27T09:06:27Z</time>
      </trkpt>
      <trkpt lat="28.36376" lon="83.6392">
        <ele>2270.77</ele>
        <time>2013-10-27T09:06:39Z</time>
      </trkpt>
      <trkpt lat="28.36379" lon="83.63928">
        <ele>2271.73</ele>
        <time>2013-10-27T09:06:50Z</time>
      </trkpt>
      <trkpt lat="28.3638" lon="83.63939">
        <ele>2273.17</ele>
        <time>2013-10-27T09:07:02Z</time>
      </trkpt>
      <trkpt lat="28.36385" lon="83.63947">
        <ele>2273.17</ele>
        <time>2013-10-27T09:07:13Z</time>
      </trkpt>
      <trkpt lat="28.36386" lon="83.6395">
        <ele>2273.66</ele>
        <time>2013-10-27T09:07:17Z</time>
      </trkpt>
      <trkpt lat="28.36388" lon="83.63951">
        <ele>2273.66</ele>
        <time>2013-10-27T09:07:19Z</time>
      </trkpt>
      <trkpt lat="28.36389" lon="83.6396">
        <ele>2274.62</ele>
        <time>2013-10-27T09:07:27Z</time>
      </trkpt>
      <trkpt lat="28.36391" lon="83.63964">
        <ele>2275.1</ele>
        <time>2013-10-27T09:07:31Z</time>
      </trkpt>
      <trkpt lat="28.36396" lon="83.63973">
        <ele>2276.06</ele>
        <time>2013-10-27T09:07:43Z</time>
      </trkpt>
      <trkpt lat="28.36397" lon="83.63974">
        <ele>2276.06</ele>
        <time>2013-10-27T09:07:44Z</time>
      </trkpt>
      <trkpt lat="28.36406" lon="83.63986">
        <ele>2277.5</ele>
        <time>2013-10-27T09:07:57Z</time>
      </trkpt>
      <trkpt lat="28.36411" lon="83.63997">
        <ele>2279.42</ele>
        <time>2013-10-27T09:08:08Z</time>
      </trkpt>
      <trkpt lat="28.36413" lon="83.64004">
        <ele>2279.9</ele>
        <time>2013-10-27T09:08:14Z</time>
      </trkpt>
      <trkpt lat="28.36413" lon="83.64016">
        <ele>2280.87</ele>
        <time>2013-10-27T09:08:25Z</time>
      </trkpt>
      <trkpt lat="28.36417" lon="83.6403">
        <ele>2281.35</ele>
        <time>2013-10-27T09:08:37Z</time>
      </trkpt>
      <trkpt lat="28.36417" lon="83.64036">
        <ele>2281.35</ele>
        <time>2013-10-27T09:08:49Z</time>
      </trkpt>
      <trkpt lat="28.36417" lon="83.64035">
        <ele>2281.35</ele>
        <time>2013-10-27T09:09:19Z</time>
      </trkpt>
      <trkpt lat="28.36417" lon="83.64035">
        <ele>2281.35</ele>
        <time>2013-10-27T09:09:47Z</time>
      </trkpt>
      <trkpt lat="28.36417" lon="83.64035">
        <ele>2281.83</ele>
        <time>2013-10-27T09:10:11Z</time>
      </trkpt>
      <trkpt lat="28.36417" lon="83.64036">
        <ele>2281.83</ele>
        <time>2013-10-27T09:10:37Z</time>
      </trkpt>
      <trkpt lat="28.36417" lon="83.64036">
        <ele>2281.83</ele>
        <time>2013-10-27T09:11:04Z</time>
      </trkpt>
      <trkpt lat="28.36415" lon="83.64038">
        <ele>2281.83</ele>
        <time>2013-10-27T09:11:24Z</time>
      </trkpt>
      <trkpt lat="28.36415" lon="83.64038">
        <ele>2282.31</ele>
        <time>2013-10-27T09:11:50Z</time>
      </trkpt>
      <trkpt lat="28.36416" lon="83.64038">
        <ele>2281.83</ele>
        <time>2013-10-27T09:11:57Z</time>
      </trkpt>
      <trkpt lat="28.36421" lon="83.64045">
        <ele>2281.83</ele>
        <time>2013-10-27T09:12:09Z</time>
      </trkpt>
      <trkpt lat="28.36424" lon="83.64052">
        <ele>2281.35</ele>
        <time>2013-10-27T09:12:19Z</time>
      </trkpt>
      <trkpt lat="28.36425" lon="83.64061">
        <ele>2281.83</ele>
        <time>2013-10-27T09:12:31Z</time>
      </trkpt>
      <trkpt lat="28.3643" lon="83.64068">
        <ele>2283.27</ele>
        <time>2013-10-27T09:12:44Z</time>
      </trkpt>
      <trkpt lat="28.36431" lon="83.64074">
        <ele>2285.19</ele>
        <time>2013-10-27T09:12:56Z</time>
      </trkpt>
      <trkpt lat="28.36437" lon="83.64078">
        <ele>2287.11</ele>
        <time>2013-10-27T09:13:10Z</time>
      </trkpt>
      <trkpt lat="28.3644" lon="83.64082">
        <ele>2290</ele>
        <time>2013-10-27T09:13:28Z</time>
      </trkpt>
      <trkpt lat="28.36442" lon="83.64082">
        <ele>2290</ele>
        <time>2013-10-27T09:13:30Z</time>
      </trkpt>
      <trkpt lat="28.36446" lon="83.64084">
        <ele>2290.48</ele>
        <time>2013-10-27T09:13:34Z</time>
      </trkpt>
      <trkpt lat="28.36458" lon="83.64089">
        <ele>2291.92</ele>
        <time>2013-10-27T09:13:48Z</time>
      </trkpt>
      <trkpt lat="28.36461" lon="83.64089">
        <ele>2292.4</ele>
        <time>2013-10-27T09:13:52Z</time>
      </trkpt>
      <trkpt lat="28.36465" lon="83.64089">
        <ele>2292.4</ele>
        <time>2013-10-27T09:13:55Z</time>
      </trkpt>
      <trkpt lat="28.36476" lon="83.64089">
        <ele>2293.36</ele>
        <time>2013-10-27T09:14:07Z</time>
      </trkpt>
      <trkpt lat="28.3649" lon="83.64091">
        <ele>2291.44</ele>
        <time>2013-10-27T09:14:22Z</time>
      </trkpt>
      <trkpt lat="28.36505" lon="83.64091">
        <ele>2290.96</ele>
        <time>2013-10-27T09:14:36Z</time>
      </trkpt>
      <trkpt lat="28.36507" lon="83.6409">
        <ele>2290.96</ele>
        <time>2013-10-27T09:14:38Z</time>
      </trkpt>
      <trkpt lat="28.36513" lon="83.64089">
        <ele>2290.96</ele>
        <time>2013-10-27T09:14:42Z</time>
      </trkpt>
      <trkpt lat="28.36527" lon="83.64087">
        <ele>2290.48</ele>
        <time>2013-10-27T09:14:56Z</time>
      </trkpt>
      <trkpt lat="28.36528" lon="83.64086">
        <ele>2290.48</ele>
        <time>2013-10-27T09:14:57Z</time>
      </trkpt>
      <trkpt lat="28.36535" lon="83.64086">
        <ele>2290.96</ele>
        <time>2013-10-27T09:15:02Z</time>
      </trkpt>
      <trkpt lat="28.36543" lon="83.64083">
        <ele>2291.44</ele>
        <time>2013-10-27T09:15:09Z</time>
      </trkpt>
      <trkpt lat="28.36545" lon="83.64082">
        <ele>2291.44</ele>
        <time>2013-10-27T09:15:11Z</time>
      </trkpt>
      <trkpt lat="28.36559" lon="83.64079">
        <ele>2291.44</ele>
        <time>2013-10-27T09:15:24Z</time>
      </trkpt>
      <trkpt lat="28.36574" lon="83.64078">
        <ele>2291.44</ele>
        <time>2013-10-27T09:15:38Z</time>
      </trkpt>
      <trkpt lat="28.36578" lon="83.64078">
        <ele>2291.44</ele>
        <time>2013-10-27T09:15:42Z</time>
      </trkpt>
      <trkpt lat="28.36589" lon="83.64078">
        <ele>2292.4</ele>
        <time>2013-10-27T09:15:53Z</time>
      </trkpt>
      <trkpt lat="28.36602" lon="83.6408">
        <ele>2294.32</ele>
        <time>2013-10-27T09:16:07Z</time>
      </trkpt>
      <trkpt lat="28.36603" lon="83.64081">
        <ele>2293.84</ele>
        <time>2013-10-27T09:16:08Z</time>
      </trkpt>
      <trkpt lat="28.36618" lon="83.64091">
        <ele>2293.36</ele>
        <time>2013-10-27T09:16:21Z</time>
      </trkpt>
      <trkpt lat="28.36628" lon="83.64099">
        <ele>2293.84</ele>
        <time>2013-10-27T09:16:31Z</time>
      </trkpt>
      <trkpt lat="28.36634" lon="83.64105">
        <ele>2293.84</ele>
        <time>2013-10-27T09:16:41Z</time>
      </trkpt>
      <trkpt lat="28.36638" lon="83.64109">
        <ele>2293.84</ele>
        <time>2013-10-27T09:16:46Z</time>
      </trkpt>
      <trkpt lat="28.3664" lon="83.6411">
        <ele>2294.32</ele>
        <time>2013-10-27T09:16:49Z</time>
      </trkpt>
      <trkpt lat="28.36644" lon="83.64114">
        <ele>2293.84</ele>
        <time>2013-10-27T09:16:53Z</time>
      </trkpt>
      <trkpt lat="28.3665" lon="83.64118">
        <ele>2293.84</ele>
        <time>2013-10-27T09:16:59Z</time>
      </trkpt>
      <trkpt lat="28.36654" lon="83.64119">
        <ele>2293.84</ele>
        <time>2013-10-27T09:17:03Z</time>
      </trkpt>
      <trkpt lat="28.36657" lon="83.6412">
        <ele>2294.32</ele>
        <time>2013-10-27T09:17:06Z</time>
      </trkpt>
      <trkpt lat="28.36662" lon="83.64121">
        <ele>2295.28</ele>
        <time>2013-10-27T09:17:10Z</time>
      </trkpt>
      <trkpt lat="28.36668" lon="83.64121">
        <ele>2295.28</ele>
        <time>2013-10-27T09:17:23Z</time>
      </trkpt>
      <trkpt lat="28.36668" lon="83.6412">
        <ele>2295.77</ele>
        <time>2013-10-27T09:17:49Z</time>
      </trkpt>
      <trkpt lat="28.36667" lon="83.64121">
        <ele>2295.77</ele>
        <time>2013-10-27T09:18:19Z</time>
      </trkpt>
      <trkpt lat="28.36667" lon="83.6412">
        <ele>2295.77</ele>
        <time>2013-10-27T09:18:46Z</time>
      </trkpt>
      <trkpt lat="28.36671" lon="83.64122">
        <ele>2296.25</ele>
        <time>2013-10-27T09:18:50Z</time>
      </trkpt>
      <trkpt lat="28.36674" lon="83.64123">
        <ele>2296.73</ele>
        <time>2013-10-27T09:19:04Z</time>
      </trkpt>
      <trkpt lat="28.36684" lon="83.64126">
        <ele>2297.21</ele>
        <time>2013-10-27T09:19:15Z</time>
      </trkpt>
      <trkpt lat="28.36689" lon="83.64125">
        <ele>2298.17</ele>
        <time>2013-10-27T09:19:19Z</time>
      </trkpt>
      <trkpt lat="28.36703" lon="83.64124">
        <ele>2300.09</ele>
        <time>2013-10-27T09:19:32Z</time>
      </trkpt>
      <trkpt lat="28.36709" lon="83.64122">
        <ele>2301.05</ele>
        <time>2013-10-27T09:19:38Z</time>
      </trkpt>
      <trkpt lat="28.36714" lon="83.64121">
        <ele>2301.53</ele>
        <time>2013-10-27T09:19:51Z</time>
      </trkpt>
      <trkpt lat="28.3672" lon="83.64122">
        <ele>2301.53</ele>
        <time>2013-10-27T09:20:05Z</time>
      </trkpt>
      <trkpt lat="28.36721" lon="83.64122">
        <ele>2301.05</ele>
        <time>2013-10-27T09:20:06Z</time>
      </trkpt>
      <trkpt lat="28.36728" lon="83.64121">
        <ele>2301.05</ele>
        <time>2013-10-27T09:20:12Z</time>
      </trkpt>
      <trkpt lat="28.36739" lon="83.64122">
        <ele>2300.57</ele>
        <time>2013-10-27T09:20:23Z</time>
      </trkpt>
      <trkpt lat="28.36753" lon="83.64114">
        <ele>2301.53</ele>
        <time>2013-10-27T09:20:36Z</time>
      </trkpt>
      <trkpt lat="28.36755" lon="83.64113">
        <ele>2301.53</ele>
        <time>2013-10-27T09:20:38Z</time>
      </trkpt>
      <trkpt lat="28.36768" lon="83.64111">
        <ele>2302.01</ele>
        <time>2013-10-27T09:20:52Z</time>
      </trkpt>
      <trkpt lat="28.36772" lon="83.64109">
        <ele>2302.01</ele>
        <time>2013-10-27T09:21:02Z</time>
      </trkpt>
      <trkpt lat="28.3678" lon="83.64106">
        <ele>2302.49</ele>
        <time>2013-10-27T09:21:11Z</time>
      </trkpt>
      <trkpt lat="28.36794" lon="83.64101">
        <ele>2302.98</ele>
        <time>2013-10-27T09:21:25Z</time>
      </trkpt>
      <trkpt lat="28.36801" lon="83.641">
        <ele>2302.98</ele>
        <time>2013-10-27T09:21:31Z</time>
      </trkpt>
      <trkpt lat="28.36807" lon="83.64101">
        <ele>2302.98</ele>
        <time>2013-10-27T09:21:38Z</time>
      </trkpt>
      <trkpt lat="28.36812" lon="83.64102">
        <ele>2303.46</ele>
        <time>2013-10-27T09:21:42Z</time>
      </trkpt>
      <trkpt lat="28.36825" lon="83.64101">
        <ele>2303.94</ele>
        <time>2013-10-27T09:21:54Z</time>
      </trkpt>
      <trkpt lat="28.36827" lon="83.64101">
        <ele>2303.94</ele>
        <time>2013-10-27T09:21:55Z</time>
      </trkpt>
      <trkpt lat="28.36838" lon="83.64093">
        <ele>2305.38</ele>
        <time>2013-10-27T09:22:08Z</time>
      </trkpt>
      <trkpt lat="28.36849" lon="83.64088">
        <ele>2304.9</ele>
        <time>2013-10-27T09:22:20Z</time>
      </trkpt>
      <trkpt lat="28.3686" lon="83.64083">
        <ele>2305.38</ele>
        <time>2013-10-27T09:22:32Z</time>
      </trkpt>
      <trkpt lat="28.36861" lon="83.64082">
        <ele>2305.38</ele>
        <time>2013-10-27T09:22:34Z</time>
      </trkpt>
      <trkpt lat="28.36867" lon="83.6408">
        <ele>2304.9</ele>
        <time>2013-10-27T09:22:49Z</time>
      </trkpt>
      <trkpt lat="28.3687" lon="83.6408">
        <ele>2305.38</ele>
        <time>2013-10-27T09:22:52Z</time>
      </trkpt>
      <trkpt lat="28.36881" lon="83.64082">
        <ele>2305.86</ele>
        <time>2013-10-27T09:23:05Z</time>
      </trkpt>
      <trkpt lat="28.3689" lon="83.64078">
        <ele>2307.3</ele>
        <time>2013-10-27T09:23:19Z</time>
      </trkpt>
      <trkpt lat="28.36896" lon="83.64073">
        <ele>2307.78</ele>
        <time>2013-10-27T09:23:30Z</time>
      </trkpt>
      <trkpt lat="28.369" lon="83.64071">
        <ele>2308.74</ele>
        <time>2013-10-27T09:23:38Z</time>
      </trkpt>
      <trkpt lat="28.36909" lon="83.64065">
        <ele>2309.7</ele>
        <time>2013-10-27T09:23:51Z</time>
      </trkpt>
      <trkpt lat="28.36915" lon="83.64059">
        <ele>2310.67</ele>
        <time>2013-10-27T09:24:04Z</time>
      </trkpt>
      <trkpt lat="28.36919" lon="83.64054">
        <ele>2312.11</ele>
        <time>2013-10-27T09:24:15Z</time>
      </trkpt>
      <trkpt lat="28.36924" lon="83.64048">
        <ele>2313.55</ele>
        <time>2013-10-27T09:24:29Z</time>
      </trkpt>
      <trkpt lat="28.36931" lon="83.64044">
        <ele>2314.51</ele>
        <time>2013-10-27T09:24:41Z</time>
      </trkpt>
      <trkpt lat="28.36933" lon="83.64041">
        <ele>2316.43</ele>
        <time>2013-10-27T09:24:55Z</time>
      </trkpt>
      <trkpt lat="28.36934" lon="83.64035">
        <ele>2317.4</ele>
        <time>2013-10-27T09:25:07Z</time>
      </trkpt>
      <trkpt lat="28.36938" lon="83.64029">
        <ele>2318.84</ele>
        <time>2013-10-27T09:25:18Z</time>
      </trkpt>
      <trkpt lat="28.36943" lon="83.64023">
        <ele>2319.8</ele>
        <time>2013-10-27T09:25:27Z</time>
      </trkpt>
      <trkpt lat="28.36958" lon="83.6402">
        <ele>2320.28</ele>
        <time>2013-10-27T09:25:41Z</time>
      </trkpt>
      <trkpt lat="28.36971" lon="83.64016">
        <ele>2321.24</ele>
        <time>2013-10-27T09:25:54Z</time>
      </trkpt>
      <trkpt lat="28.36975" lon="83.64015">
        <ele>2321.72</ele>
        <time>2013-10-27T09:26:01Z</time>
      </trkpt>
      <trkpt lat="28.36985" lon="83.6401">
        <ele>2322.2</ele>
        <time>2013-10-27T09:26:15Z</time>
      </trkpt>
      <trkpt lat="28.36991" lon="83.64005">
        <ele>2323.64</ele>
        <time>2013-10-27T09:26:26Z</time>
      </trkpt>
      <trkpt lat="28.37" lon="83.63998">
        <ele>2324.12</ele>
        <time>2013-10-27T09:26:38Z</time>
      </trkpt>
      <trkpt lat="28.37009" lon="83.63991">
        <ele>2324.61</ele>
        <time>2013-10-27T09:26:48Z</time>
      </trkpt>
      <trkpt lat="28.37018" lon="83.63986">
        <ele>2325.57</ele>
        <time>2013-10-27T09:27:02Z</time>
      </trkpt>
      <trkpt lat="28.37029" lon="83.63981">
        <ele>2324.61</ele>
        <time>2013-10-27T09:27:14Z</time>
      </trkpt>
      <trkpt lat="28.37037" lon="83.6398">
        <ele>2325.57</ele>
        <time>2013-10-27T09:27:24Z</time>
      </trkpt>
      <trkpt lat="28.37041" lon="83.63979">
        <ele>2325.57</ele>
        <time>2013-10-27T09:27:27Z</time>
      </trkpt>
      <trkpt lat="28.37046" lon="83.63978">
        <ele>2325.09</ele>
        <time>2013-10-27T09:27:34Z</time>
      </trkpt>
      <trkpt lat="28.37054" lon="83.6398">
        <ele>2327.01</ele>
        <time>2013-10-27T09:27:47Z</time>
      </trkpt>
      <trkpt lat="28.37061" lon="83.63978">
        <ele>2327.49</ele>
        <time>2013-10-27T09:28:00Z</time>
      </trkpt>
      <trkpt lat="28.37076" lon="83.63974">
        <ele>2327.01</ele>
        <time>2013-10-27T09:28:15Z</time>
      </trkpt>
      <trkpt lat="28.37085" lon="83.6397">
        <ele>2327.49</ele>
        <time>2013-10-27T09:28:28Z</time>
      </trkpt>
      <trkpt lat="28.37092" lon="83.63964">
        <ele>2328.93</ele>
        <time>2013-10-27T09:28:40Z</time>
      </trkpt>
      <trkpt lat="28.37094" lon="83.63956">
        <ele>2329.41</ele>
        <time>2013-10-27T09:28:52Z</time>
      </trkpt>
      <trkpt lat="28.37094" lon="83.63955">
        <ele>2329.41</ele>
        <time>2013-10-27T09:29:11Z</time>
      </trkpt>
      <trkpt lat="28.37094" lon="83.63954">
        <ele>2329.89</ele>
        <time>2013-10-27T09:29:36Z</time>
      </trkpt>
      <trkpt lat="28.37094" lon="83.63953">
        <ele>2329.89</ele>
        <time>2013-10-27T09:30:01Z</time>
      </trkpt>
      <trkpt lat="28.37104" lon="83.6395">
        <ele>2332.78</ele>
        <time>2013-10-27T09:30:17Z</time>
      </trkpt>
      <trkpt lat="28.37104" lon="83.63948">
        <ele>2333.26</ele>
        <time>2013-10-27T09:30:37Z</time>
      </trkpt>
      <trkpt lat="28.37104" lon="83.63942">
        <ele>2333.26</ele>
        <time>2013-10-27T09:30:55Z</time>
      </trkpt>
      <trkpt lat="28.37105" lon="83.6394">
        <ele>2333.26</ele>
        <time>2013-10-27T09:31:16Z</time>
      </trkpt>
      <trkpt lat="28.37106" lon="83.6394">
        <ele>2333.74</ele>
        <time>2013-10-27T09:31:44Z</time>
      </trkpt>
      <trkpt lat="28.37103" lon="83.63942">
        <ele>2333.74</ele>
        <time>2013-10-27T09:32:05Z</time>
      </trkpt>
      <trkpt lat="28.37099" lon="83.63941">
        <ele>2333.74</ele>
        <time>2013-10-27T09:32:12Z</time>
      </trkpt>
      <trkpt lat="28.37095" lon="83.63947">
        <ele>2333.74</ele>
        <time>2013-10-27T09:32:31Z</time>
      </trkpt>
      <trkpt lat="28.37108" lon="83.63947">
        <ele>2333.74</ele>
        <time>2013-10-27T09:32:53Z</time>
      </trkpt>
      <trkpt lat="28.3711" lon="83.63946">
        <ele>2334.22</ele>
        <time>2013-10-27T09:32:57Z</time>
      </trkpt>
      <trkpt lat="28.37113" lon="83.63947">
        <ele>2334.22</ele>
        <time>2013-10-27T09:33:19Z</time>
      </trkpt>
      <trkpt lat="28.3709" lon="83.63948">
        <ele>2334.22</ele>
        <time>2013-10-27T09:33:39Z</time>
      </trkpt>
      <trkpt lat="28.37108" lon="83.63944">
        <ele>2334.22</ele>
        <time>2013-10-27T09:33:56Z</time>
      </trkpt>
      <trkpt lat="28.3711" lon="83.63944">
        <ele>2334.7</ele>
        <time>2013-10-27T09:34:25Z</time>
      </trkpt>
      <trkpt lat="28.37109" lon="83.63941">
        <ele>2335.18</ele>
        <time>2013-10-27T09:34:48Z</time>
      </trkpt>
      <trkpt lat="28.37107" lon="83.63942">
        <ele>2335.18</ele>
        <time>2013-10-27T09:35:08Z</time>
      </trkpt>
      <trkpt lat="28.37108" lon="83.63949">
        <ele>2335.18</ele>
        <time>2013-10-27T09:35:27Z</time>
      </trkpt>
      <trkpt lat="28.37106" lon="83.63949">
        <ele>2335.66</ele>
        <time>2013-10-27T09:35:44Z</time>
      </trkpt>
      <trkpt lat="28.37107" lon="83.63949">
        <ele>2335.18</ele>
        <time>2013-10-27T09:36:07Z</time>
      </trkpt>
      <trkpt lat="28.3711" lon="83.63949">
        <ele>2335.18</ele>
        <time>2013-10-27T09:36:31Z</time>
      </trkpt>
      <trkpt lat="28.37113" lon="83.63949">
        <ele>2335.18</ele>
        <time>2013-10-27T09:36:42Z</time>
      </trkpt>
      <trkpt lat="28.37117" lon="83.63951">
        <ele>2335.66</ele>
        <time>2013-10-27T09:36:46Z</time>
      </trkpt>
      <trkpt lat="28.37113" lon="83.63942">
        <ele>2335.66</ele>
        <time>2013-10-27T09:37:05Z</time>
      </trkpt>
      <trkpt lat="28.37112" lon="83.63942">
        <ele>2335.66</ele>
        <time>2013-10-27T09:37:27Z</time>
      </trkpt>
      <trkpt lat="28.37109" lon="83.63942">
        <ele>2333.74</ele>
        <time>2013-10-27T09:37:48Z</time>
      </trkpt>
      <trkpt lat="28.37109" lon="83.63942">
        <ele>2337.58</ele>
        <time>2013-10-27T09:37:49Z</time>
      </trkpt>
      <trkpt lat="28.3711" lon="83.63943">
        <ele>2336.14</ele>
        <time>2013-10-27T09:38:11Z</time>
      </trkpt>
      <trkpt lat="28.3711" lon="83.63943">
        <ele>2337.58</ele>
        <time>2013-10-27T09:38:32Z</time>
      </trkpt>
      <trkpt lat="28.37112" lon="83.63942">
        <ele>2333.26</ele>
        <time>2013-10-27T09:38:47Z</time>
      </trkpt>
      <trkpt lat="28.37112" lon="83.63942">
        <ele>2338.54</ele>
        <time>2013-10-27T09:38:48Z</time>
      </trkpt>
      <trkpt lat="28.37114" lon="83.63942">
        <ele>2333.26</ele>
        <time>2013-10-27T09:38:53Z</time>
      </trkpt>
      <trkpt lat="28.37116" lon="83.63942">
        <ele>2336.62</ele>
        <time>2013-10-27T09:38:56Z</time>
      </trkpt>
      <trkpt lat="28.37115" lon="83.63943">
        <ele>2335.66</ele>
        <time>2013-10-27T09:39:01Z</time>
      </trkpt>
      <trkpt lat="28.3711" lon="83.63947">
        <ele>2335.66</ele>
        <time>2013-10-27T09:39:10Z</time>
      </trkpt>
      <trkpt lat="28.37107" lon="83.63947">
        <ele>2336.14</ele>
        <time>2013-10-27T09:39:13Z</time>
      </trkpt>
      <trkpt lat="28.37106" lon="83.63946">
        <ele>2336.14</ele>
        <time>2013-10-27T09:39:32Z</time>
      </trkpt>
      <trkpt lat="28.37102" lon="83.63955">
        <ele>2335.66</ele>
        <time>2013-10-27T09:39:58Z</time>
      </trkpt>
      <trkpt lat="28.37107" lon="83.63955">
        <ele>2335.66</ele>
        <time>2013-10-27T09:40:22Z</time>
      </trkpt>
      <trkpt lat="28.3711" lon="83.63954">
        <ele>2335.66</ele>
        <time>2013-10-27T09:40:53Z</time>
      </trkpt>
      <trkpt lat="28.37109" lon="83.63954">
        <ele>2335.66</ele>
        <time>2013-10-27T09:41:17Z</time>
      </trkpt>
      <trkpt lat="28.37108" lon="83.63954">
        <ele>2335.66</ele>
        <time>2013-10-27T09:41:41Z</time>
      </trkpt>
      <trkpt lat="28.37109" lon="83.63954">
        <ele>2335.66</ele>
        <time>2013-10-27T09:42:07Z</time>
      </trkpt>
      <trkpt lat="28.37108" lon="83.63954">
        <ele>2335.66</ele>
        <time>2013-10-27T09:42:33Z</time>
      </trkpt>
      <trkpt lat="28.37112" lon="83.63951">
        <ele>2335.18</ele>
        <time>2013-10-27T09:42:54Z</time>
      </trkpt>
      <trkpt lat="28.37113" lon="83.63944">
        <ele>2325.57</ele>
        <time>2013-10-27T09:43:02Z</time>
      </trkpt>
      <trkpt lat="28.37113" lon="83.63944">
        <ele>2330.85</ele>
        <time>2013-10-27T09:43:03Z</time>
      </trkpt>
      <trkpt lat="28.37113" lon="83.63943">
        <ele>2341.43</ele>
        <time>2013-10-27T09:43:04Z</time>
      </trkpt>
      <trkpt lat="28.37112" lon="83.63943">
        <ele>2324.12</ele>
        <time>2013-10-27T09:43:05Z</time>
      </trkpt>
      <trkpt lat="28.37112" lon="83.63943">
        <ele>2346.23</ele>
        <time>2013-10-27T09:43:06Z</time>
      </trkpt>
      <trkpt lat="28.37112" lon="83.63943">
        <ele>2335.66</ele>
        <time>2013-10-27T09:43:07Z</time>
      </trkpt>
      <trkpt lat="28.37112" lon="83.63943">
        <ele>2325.09</ele>
        <time>2013-10-27T09:43:08Z</time>
      </trkpt>
      <trkpt lat="28.37112" lon="83.63943">
        <ele>2345.27</ele>
        <time>2013-10-27T09:43:09Z</time>
      </trkpt>
      <trkpt lat="28.37112" lon="83.63943">
        <ele>2333.74</ele>
        <time>2013-10-27T09:43:10Z</time>
      </trkpt>
      <trkpt lat="28.37113" lon="83.63943">
        <ele>2339.02</ele>
        <time>2013-10-27T09:43:13Z</time>
      </trkpt>
      <trkpt lat="28.37112" lon="83.63944">
        <ele>2335.66</ele>
        <time>2013-10-27T09:43:16Z</time>
      </trkpt>
      <trkpt lat="28.37112" lon="83.63944">
        <ele>2335.18</ele>
        <time>2013-10-27T09:43:17Z</time>
      </trkpt>
      <trkpt lat="28.37113" lon="83.63942">
        <ele>2335.18</ele>
        <time>2013-10-27T09:43:35Z</time>
      </trkpt>
      <trkpt lat="28.37112" lon="83.6395">
        <ele>2335.18</ele>
        <time>2013-10-27T09:43:50Z</time>
      </trkpt>
      <trkpt lat="28.37114" lon="83.63949">
        <ele>2335.18</ele>
        <time>2013-10-27T09:44:20Z</time>
      </trkpt>
      <trkpt lat="28.37111" lon="83.63949">
        <ele>2334.7</ele>
        <time>2013-10-27T09:44:46Z</time>
      </trkpt>
      <trkpt lat="28.37111" lon="83.63947">
        <ele>2334.7</ele>
        <time>2013-10-27T09:45:14Z</time>
      </trkpt>
      <trkpt lat="28.37112" lon="83.63946">
        <ele>2334.7</ele>
        <time>2013-10-27T09:45:15Z</time>
      </trkpt>
      <trkpt lat="28.37116" lon="83.63944">
        <ele>2332.3</ele>
        <time>2013-10-27T09:45:21Z</time>
      </trkpt>
      <trkpt lat="28.37116" lon="83.63944">
        <ele>2340.95</ele>
        <time>2013-10-27T09:45:23Z</time>
      </trkpt>
      <trkpt lat="28.37116" lon="83.63944">
        <ele>2335.66</ele>
        <time>2013-10-27T09:45:24Z</time>
      </trkpt>
      <trkpt lat="28.37116" lon="83.63944">
        <ele>2332.3</ele>
        <time>2013-10-27T09:45:25Z</time>
      </trkpt>
      <trkpt lat="28.37116" lon="83.63944">
        <ele>2337.1</ele>
        <time>2013-10-27T09:45:26Z</time>
      </trkpt>
      <trkpt lat="28.37116" lon="83.63944">
        <ele>2329.41</ele>
        <time>2013-10-27T09:45:27Z</time>
      </trkpt>
      <trkpt lat="28.37116" lon="83.63944">
        <ele>2335.18</ele>
        <time>2013-10-27T09:45:28Z</time>
      </trkpt>
      <trkpt lat="28.37115" lon="83.63944">
        <ele>2337.1</ele>
        <time>2013-10-27T09:45:38Z</time>
      </trkpt>
      <trkpt lat="28.37115" lon="83.63944">
        <ele>2335.18</ele>
        <time>2013-10-27T09:45:40Z</time>
      </trkpt>
      <trkpt lat="28.37114" lon="83.63945">
        <ele>2333.26</ele>
        <time>2013-10-27T09:46:01Z</time>
      </trkpt>
      <trkpt lat="28.37121" lon="83.63945">
        <ele>2334.7</ele>
        <time>2013-10-27T09:46:23Z</time>
      </trkpt>
      <trkpt lat="28.37123" lon="83.63939">
        <ele>2335.18</ele>
        <time>2013-10-27T09:46:44Z</time>
      </trkpt>
      <trkpt lat="28.37129" lon="83.63942">
        <ele>2334.7</ele>
        <time>2013-10-27T09:47:01Z</time>
      </trkpt>
      <trkpt lat="28.37132" lon="83.63941">
        <ele>2334.7</ele>
        <time>2013-10-27T09:47:14Z</time>
      </trkpt>
      <trkpt lat="28.37137" lon="83.63917">
        <ele>2334.7</ele>
        <time>2013-10-27T09:47:35Z</time>
      </trkpt>
    </trkseg>
  </trk>
</gpx>